[[{"header":{"parameterUnit":"m.s-1","parameterCategory":1,"la1":30.6,"la2":29.2853,"lo1":-89.7004,"lo2":-87.6739,"dy":0.0162,"dx":0.0183,"nx":112,"ny":82,"refTime":"2026-02-25T00:00:00:Z","depth":0,"parameterNumber":2,"parameterNumberName":"U-component_of_WINDS"},"data":[0.0,0.0,0.0,0.0,0.0,0.0,0.0,0.0,0.0,0.0,0.0,0.0,0.0,0.0,0.0,0.0,0.0,0.0,0.0,0.0,0.0,0.0,0.0,0.0,0.0,0.0,0.0,0.0,0.0,0.0,0.0,0.0,0.0,0.0,0.0,0.0,0.0,0.0,0.0,0.0,0.0,0.0,0.0,0.0,0.0,0.0,0.0,0.0,0.0,0.0,0.0,0.0,0.0,0.0,0.0,0.0,0.0,0.0,0.0,0.0,0.0,0.0,0.0,0.0,0.0,0.0,0.0,0.0,0.0,0.0,0.0,0.0,0.0,0.0,0.0,0.0,0.0,0.0,0.0,0.0,0.0,0.0,0.0,0.0,0.0,0.0,0.0,0.0,0.0,0.0,0.0,3.6443,3.8261,3.984,4.0653,3.972,3.8777,3.8046,0.0,0.0,0.0,0.0,0.0,0.0,0.0,0.0,0.0,0.0,0.0,0.0,0.0,0.0,0.0,0.0,0.0,0.0,0.0,0.0,0.0,0.0,0.0,0.0,0.0,0.0,0.0,0.0,0.0,0.0,0.0,0.0,0.0,0.0,0.0,0.0,0.0,0.0,0.0,0.0,0.0,0.0,0.0,0.0,0.0,0.0,0.0,0.0,0.0,0.0,0.0,0.0,0.0,0.0,0.0,0.0,0.0,0.0,0.0,0.0,0.0,0.0,0.0,0.0,0.0,0.0,0.0,0.0,0.0,0.0,0.0,0.0,0.0,0.0,0.0,0.0,0.0,0.0,0.0,0.0,0.0,0.0,0.0,0.0,0.0,0.0,0.0,0.0,0.0,0.0,0.0,0.0,0.0,0.0,0.0,0.0,0.0,0.0,0.0,0.0,0.0,0.0,0.0,0.0,3.6716,3.8063,3.8981,3.9849,4.0714,3.9194,3.8142,3.8007,0.0,0.0,0.0,0.0,0.0,0.0,0.0,0.0,0.0,0.0,0.0,0.0,0.0,0.0,0.0,0.0,0.0,0.0,0.0,0.0,0.0,0.0,0.0,0.0,0.0,0.0,0.0,0.0,0.0,0.0,0.0,0.0,0.0,0.0,0.0,0.0,0.0,0.0,0.0,0.0,0.0,0.0,0.0,0.0,0.0,0.0,0.0,0.0,0.0,0.0,0.0,0.0,0.0,0.0,0.0,0.0,0.0,0.0,0.0,0.0,0.0,0.0,0.0,0.0,0.0,0.0,0.0,0.0,0.0,0.0,0.0,0.0,0.0,0.0,0.0,0.0,0.0,0.0,0.0,0.0,0.0,0.0,0.0,0.0,0.0,0.0,0.0,0.0,0.0,0.0,0.0,0.0,0.0,0.0,0.0,0.0,0.0,0.0,0.0,0.0,0.0,0.0,0.0,3.6579,3.7711,3.8514,3.9565,4.0364,4.0771,3.9515,3.8507,3.8027,3.718,0.0,0.0,0.0,0.0,0.0,0.0,0.0,0.0,0.0,0.0,0.0,0.0,0.0,0.0,0.0,0.0,0.0,0.0,0.0,0.0,0.0,0.0,0.0,0.0,0.0,0.0,0.0,0.0,0.0,0.0,0.0,0.0,0.0,0.0,0.0,0.0,0.0,0.0,0.0,0.0,0.0,0.0,0.0,0.0,0.0,0.0,0.0,0.0,0.0,0.0,0.0,0.0,0.0,0.0,0.0,0.0,0.0,0.0,0.0,0.0,0.0,0.0,0.0,0.0,0.0,0.0,0.0,0.0,0.0,0.0,0.0,0.0,0.0,0.0,0.0,0.0,0.0,0.0,0.0,0.0,0.0,0.0,0.0,0.0,0.0,0.0,0.0,0.0,0.0,0.0,0.0,0.0,0.0,0.0,0.0,0.0,0.0,0.0,0.0,0.0,0.0,0.0,3.7519,3.8593,3.8593,3.9916,4.081,4.081,3.9689,3.87,3.8046,3.7007,0.0,0.0,0.0,0.0,0.0,0.0,0.0,0.0,0.0,0.0,0.0,0.0,0.0,0.0,0.0,0.0,0.0,0.0,0.0,0.0,0.0,0.0,0.0,0.0,0.0,0.0,0.0,0.0,0.0,0.0,0.0,0.0,0.0,0.0,0.0,0.0,0.0,0.0,0.0,0.0,0.0,0.0,0.0,0.0,0.0,0.0,0.0,0.0,0.0,0.0,0.0,0.0,0.0,0.0,0.0,0.0,0.0,0.0,0.0,0.0,0.0,0.0,0.0,0.0,0.0,0.0,0.0,0.0,0.0,0.0,0.0,0.0,0.0,0.0,0.0,0.0,0.0,0.0,0.0,0.0,0.0,0.0,0.0,0.0,0.0,0.0,0.0,0.0,0.0,0.0,0.0,0.0,0.0,0.0,0.0,0.0,0.0,0.0,0.0,0.0,0.0,0.0,3.7524,3.8593,3.8593,3.9916,4.081,4.081,3.9148,3.8065,3.8007,3.6488,0.0,0.0,0.0,0.0,0.0,0.0,0.0,0.0,0.0,0.0,0.0,0.0,0.0,0.0,0.0,0.0,0.0,0.0,0.0,0.0,0.0,0.0,0.0,0.0,0.0,0.0,0.0,0.0,0.0,0.0,0.0,0.0,0.0,0.0,0.0,0.0,0.0,0.0,0.0,0.0,0.0,0.0,0.0,0.0,0.0,0.0,0.0,0.0,0.0,0.0,0.0,0.0,0.0,0.0,0.0,0.0,0.0,0.0,0.0,0.0,0.0,0.0,0.0,0.0,0.0,0.0,0.0,0.0,0.0,0.0,0.0,0.0,0.0,0.0,0.0,0.0,0.0,0.0,0.0,0.0,0.0,0.0,0.0,0.0,0.0,0.0,0.0,0.0,0.0,0.0,0.0,0.0,0.0,0.0,0.0,0.0,0.0,0.0,0.0,0.0,0.0,0.0,3.7519,3.8609,0.0,3.9916,4.081,4.081,3.9593,3.8584,3.8027,0.0,0.0,0.0,0.0,0.0,0.0,0.0,0.0,0.0,0.0,0.0,0.0,0.0,0.0,0.0,0.0,0.0,0.0,0.0,0.0,0.0,0.0,0.0,0.0,0.0,0.0,0.0,0.0,0.0,0.0,0.0,0.0,0.0,0.0,0.0,0.0,0.0,0.0,0.0,0.0,0.0,0.0,0.0,0.0,0.0,0.0,0.0,0.0,0.0,0.0,0.0,0.0,0.0,0.0,0.0,0.0,0.0,0.0,0.0,0.0,0.0,0.0,0.0,0.0,0.0,0.0,0.0,0.0,0.0,0.0,0.0,0.0,0.0,0.0,0.0,0.0,0.0,0.0,0.0,0.0,0.0,0.0,0.0,0.0,0.0,0.0,0.0,0.0,0.0,0.0,0.0,0.0,0.0,0.0,0.0,0.0,0.0,0.0,0.0,0.0,0.0,0.0,3.5896,3.7516,3.8707,0.0,4.0071,4.0694,4.0441,3.9477,3.8411,3.7276,0.0,0.0,0.0,0.0,0.0,0.0,0.0,0.0,0.0,0.0,0.0,0.0,0.0,0.0,0.0,0.0,0.0,0.0,0.0,0.0,0.0,0.0,0.0,0.0,0.0,0.0,0.0,0.0,0.0,0.0,0.0,0.0,0.0,0.0,0.0,0.0,0.0,0.0,0.0,0.0,0.0,0.0,0.0,0.0,0.0,0.0,0.0,0.0,0.0,0.0,0.0,0.0,0.0,0.0,0.0,0.0,0.0,0.0,0.0,0.0,0.0,0.0,0.0,0.0,0.0,0.0,0.0,0.0,0.0,0.0,0.0,0.0,0.0,0.0,0.0,0.0,0.0,0.0,0.0,0.0,0.0,0.0,0.0,0.0,0.0,0.0,0.0,0.0,0.0,0.0,0.0,0.0,0.0,0.0,0.0,0.0,0.0,0.0,0.0,0.0,0.0,0.0,3.5896,3.7516,3.8902,3.9702,4.0383,4.0461,3.9673,3.8607,3.7276,0.0,0.0,0.0,0.0,0.0,0.0,0.0,0.0,0.0,0.0,0.0,0.0,0.0,0.0,0.0,0.0,0.0,0.0,0.0,0.0,0.0,0.0,0.0,0.0,0.0,0.0,0.0,0.0,0.0,0.0,0.0,0.0,0.0,0.0,0.0,0.0,0.0,0.0,0.0,0.0,0.0,0.0,0.0,0.0,0.0,0.0,0.0,0.0,0.0,0.0,0.0,0.0,0.0,0.0,0.0,0.0,0.0,0.0,0.0,0.0,0.0,0.0,0.0,0.0,0.0,0.0,0.0,0.0,0.0,0.0,0.0,0.0,0.0,0.0,0.0,0.0,0.0,0.0,0.0,0.0,0.0,0.0,0.0,0.0,0.0,0.0,0.0,0.0,0.0,0.0,0.0,0.0,0.0,0.0,0.0,0.0,0.0,0.0,0.0,0.0,0.0,0.0,0.0,3.5818,3.7516,3.8902,3.9702,3.9883,3.9868,3.9615,3.8047,3.6642,3.5584,0.0,0.0,0.0,0.0,0.0,0.0,0.0,0.0,0.0,0.0,0.0,0.0,0.0,0.0,0.0,0.0,0.0,0.0,0.0,0.0,0.0,0.0,0.0,0.0,0.0,0.0,0.0,0.0,0.0,0.0,0.0,0.0,0.0,0.0,0.0,0.0,0.0,0.0,0.0,0.0,0.0,0.0,0.0,0.0,0.0,0.0,0.0,0.0,0.0,0.0,0.0,0.0,0.0,0.0,0.0,0.0,0.0,0.0,0.0,0.0,0.0,0.0,0.0,0.0,0.0,0.0,0.0,0.0,0.0,0.0,0.0,0.0,0.0,0.0,0.0,0.0,0.0,0.0,0.0,0.0,0.0,0.0,0.0,0.0,0.0,0.0,0.0,0.0,0.0,0.0,0.0,0.0,0.0,0.0,0.0,0.0,0.0,0.0,0.0,0.0,0.0,0.0,3.5779,3.7516,3.9036,4.0168,3.987,3.9441,3.9034,3.7585,3.6065,3.4564,0.0,0.0,0.0,0.0,0.0,0.0,0.0,0.0,0.0,0.0,0.0,0.0,0.0,0.0,0.0,0.0,0.0,0.0,0.0,0.0,0.0,0.0,0.0,0.0,0.0,0.0,0.0,0.0,0.0,0.0,0.0,0.0,0.0,0.0,0.0,0.0,0.0,0.0,0.0,0.0,0.0,0.0,0.0,0.0,0.0,0.0,0.0,0.0,0.0,0.0,0.0,0.0,0.0,0.0,0.0,0.0,0.0,0.0,0.0,0.0,0.0,0.0,0.0,0.0,0.0,0.0,0.0,0.0,0.0,0.0,0.0,0.0,0.0,0.0,0.0,0.0,0.0,0.0,0.0,0.0,0.0,0.0,0.0,0.0,0.0,0.0,0.0,0.0,0.0,0.0,0.0,0.0,0.0,0.0,0.0,0.0,0.0,0.0,0.0,0.0,0.0,0.0,3.5896,3.7497,3.9103,4.0707,4.0035,3.9064,3.8067,3.7186,3.5661,3.3179,0.0,0.0,0.0,0.0,0.0,0.0,0.0,0.0,0.0,0.0,0.0,0.0,0.0,0.0,0.0,0.0,0.0,0.0,0.0,0.0,0.0,0.0,0.0,0.0,0.0,0.0,0.0,0.0,0.0,0.0,0.0,0.0,0.0,0.0,0.0,0.0,0.0,0.0,0.0,0.0,0.0,0.0,0.0,0.0,0.0,0.0,0.0,0.0,0.0,0.0,0.0,0.0,0.0,0.0,0.0,0.0,0.0,0.0,0.0,0.0,3.0919,0.0,0.0,0.0,0.0,0.0,0.0,0.0,0.0,0.0,0.0,0.0,0.0,0.0,0.0,0.0,0.0,0.0,0.0,0.0,0.0,0.0,0.0,0.0,0.0,0.0,0.0,0.0,0.0,0.0,0.0,0.0,0.0,0.0,0.0,0.0,0.0,0.0,0.0,0.0,0.0,0.0,3.6719,3.734,3.8186,3.9817,3.914,3.82,3.7246,3.689,3.5911,3.4045,3.3403,0.0,0.0,0.0,0.0,0.0,0.0,0.0,0.0,0.0,0.0,0.0,0.0,0.0,0.0,0.0,0.0,0.0,0.0,0.0,0.0,0.0,0.0,0.0,0.0,0.0,0.0,0.0,0.0,0.0,0.0,0.0,0.0,0.0,0.0,0.0,0.0,0.0,0.0,0.0,0.0,0.0,0.0,0.0,0.0,0.0,0.0,0.0,0.0,0.0,0.0,0.0,0.0,0.0,0.0,0.0,0.0,0.0,0.0,0.0,0.0,3.1278,0.0,0.0,0.0,0.0,0.0,0.0,0.0,0.0,0.0,0.0,0.0,0.0,0.0,0.0,0.0,0.0,0.0,0.0,0.0,0.0,0.0,0.0,0.0,0.0,0.0,0.0,0.0,0.0,0.0,0.0,0.0,0.0,0.0,0.0,0.0,0.0,0.0,0.0,0.0,0.0,3.6883,3.7196,3.7809,3.938,3.8734,3.8003,3.7469,3.6972,3.6161,3.4891,3.3603,0.0,0.0,0.0,0.0,0.0,0.0,0.0,0.0,0.0,0.0,0.0,0.0,0.0,0.0,0.0,0.0,0.0,0.0,0.0,0.0,0.0,0.0,0.0,0.0,0.0,0.0,0.0,0.0,0.0,0.0,0.0,0.0,0.0,0.0,0.0,0.0,0.0,0.0,0.0,0.0,0.0,0.0,0.0,0.0,0.0,0.0,0.0,0.0,0.0,0.0,0.0,0.0,0.0,3.328,3.371,3.3846,3.3846,3.3944,3.4003,3.2558,3.2487,3.3336,3.2459,0.0,0.0,0.0,0.0,0.0,0.0,0.0,0.0,0.0,0.0,0.0,0.0,0.0,0.0,0.0,0.0,0.0,0.0,0.0,0.0,0.0,0.0,0.0,0.0,3.3913,3.3802,0.0,0.0,0.0,0.0,0.0,0.0,0.0,0.0,0.0,0.0,0.0,0.0,3.6798,3.7092,3.7622,3.9027,3.8528,3.8073,3.8003,3.7488,3.6738,3.5776,3.4237,3.2987,0.0,0.0,0.0,0.0,0.0,0.0,0.0,0.0,0.0,0.0,0.0,0.0,0.0,0.0,0.0,0.0,0.0,0.0,0.0,0.0,0.0,0.0,0.0,0.0,0.0,0.0,0.0,0.0,0.0,0.0,0.0,0.0,3.0398,3.0398,0.0,0.0,0.0,0.0,0.0,0.0,0.0,0.0,0.0,0.0,0.0,0.0,0.0,3.2044,3.2861,3.3042,3.354,3.4354,3.4471,3.492,3.5659,3.5659,3.6072,3.6774,3.654,0.0,3.3324,3.2457,0.0,0.0,0.0,0.0,0.0,0.0,0.0,0.0,0.0,0.0,0.0,0.0,0.0,0.0,0.0,0.0,0.0,0.0,0.0,0.0,0.0,0.0,3.4242,3.3551,3.3477,3.3468,0.0,3.309,3.2864,3.2002,3.1904,0.0,0.0,0.0,0.0,0.0,0.0,0.0,3.6872,3.7099,3.7396,3.8194,3.8168,3.808,3.8003,3.8584,3.8277,3.6642,3.568,3.4743,3.3832,3.1997,0.0,0.0,0.0,0.0,0.0,0.0,0.0,0.0,0.0,0.0,0.0,0.0,0.0,0.0,0.0,0.0,0.0,0.0,0.0,0.0,0.0,0.0,0.0,0.0,0.0,0.0,0.0,0.0,0.0,3.0732,3.0823,3.0444,3.0825,3.0948,0.0,0.0,0.0,0.0,0.0,0.0,0.0,0.0,0.0,3.2352,3.245,3.2909,3.38,3.4361,3.512,3.6055,3.6543,3.7024,3.7458,3.7458,3.7672,3.8024,3.8024,3.7379,3.6228,3.4849,3.4001,3.3476,0.0,0.0,0.0,0.0,3.2758,3.3531,3.3981,3.4143,3.4115,3.3971,0.0,0.0,0.0,0.0,0.0,0.0,0.0,0.0,0.0,0.0,3.4698,3.4822,3.4859,3.4851,3.4863,3.4841,3.4402,0.0,3.317,3.3085,3.1687,0.0,0.0,0.0,0.0,0.0,3.6828,3.7047,3.7296,3.7958,3.8491,3.8772,3.8734,3.9084,3.8969,3.82,3.6488,3.5287,3.4856,3.2943,3.1625,0.0,0.0,0.0,0.0,0.0,0.0,0.0,0.0,0.0,0.0,0.0,0.0,0.0,0.0,0.0,0.0,0.0,0.0,0.0,0.0,0.0,0.0,0.0,0.0,0.0,0.0,0.0,0.0,3.1021,3.122,3.0502,3.1176,3.1376,0.0,0.0,0.0,0.0,0.0,0.0,3.1965,3.2018,3.2487,3.3526,3.3612,3.4171,3.5256,3.5979,3.6789,3.7728,3.841,3.8912,3.9201,3.9231,3.9237,3.9237,3.9237,3.9117,3.8765,3.7048,3.5948,3.5273,3.4413,3.4068,3.407,3.4053,3.4542,3.5325,3.5907,3.6115,3.6028,3.5621,3.439,3.2917,3.2035,0.0,0.0,0.0,0.0,3.4243,3.5086,3.549,3.5801,3.623,3.6328,3.6269,3.6055,3.5996,3.5547,0.0,3.4258,3.4219,3.2695,0.0,0.0,0.0,0.0,3.5388,3.653,3.6871,3.7248,3.7935,3.858,3.9142,3.9565,3.9604,3.9508,3.9296,3.7493,3.6214,3.5724,3.3996,3.2594,3.1619,0.0,0.0,0.0,0.0,0.0,0.0,0.0,0.0,0.0,0.0,0.0,0.0,0.0,0.0,0.0,0.0,0.0,0.0,0.0,0.0,0.0,0.0,0.0,0.0,0.0,0.0,0.0,0.0,0.0,3.0513,3.1229,0.0,0.0,0.0,0.0,3.1573,3.163,3.1985,3.2795,3.2833,3.3622,3.5334,3.5372,3.619,3.7885,3.7955,3.8449,3.9373,3.9558,4.0078,4.0883,4.0957,4.0971,4.0971,4.0971,4.0503,3.9605,3.7926,3.7204,3.7072,3.6207,3.5879,3.5851,3.5798,3.6281,3.6964,3.6958,3.6929,3.7072,3.7854,3.703,3.5553,3.4672,3.3897,0.0,0.0,3.5232,3.6073,3.6933,3.7773,3.8203,3.7422,3.7226,3.7012,3.6172,3.5996,3.5723,0.0,3.4668,3.4414,3.3496,0.0,3.3664,3.4417,3.5338,3.5919,3.5869,3.6526,3.7254,3.7924,3.8041,3.87,4.0296,4.0431,4.0104,3.9354,3.9115,3.8278,3.66,3.5211,3.4108,3.3295,3.1273,0.0,0.0,0.0,0.0,0.0,0.0,0.0,0.0,0.0,0.0,0.0,0.0,0.0,0.0,0.0,0.0,0.0,0.0,0.0,0.0,0.0,0.0,0.0,0.0,0.0,0.0,0.0,0.0,3.1383,3.2543,0.0,3.2166,3.21,3.2235,3.2513,3.2528,3.3133,3.4494,3.4578,3.5353,3.7065,3.7103,3.769,3.8849,3.8868,3.9335,4.0281,4.0313,4.0557,4.0994,4.1017,4.1066,4.1108,4.1108,4.0912,4.0581,3.9995,3.9086,3.8041,3.7731,3.7616,3.7616,3.7582,3.8081,3.8773,3.8747,3.8762,3.867,3.7915,3.7277,3.6739,3.6431,3.6149,3.6094,3.6967,3.7439,3.7734,3.8066,3.8379,3.8516,3.8203,3.7715,3.7207,3.6894,3.6406,3.5918,3.5605,3.5547,3.5254,3.4394,3.4707,3.498,3.4715,3.5437,3.5935,3.5763,3.6502,3.7296,3.793,3.8535,3.9339,4.0408,4.0489,4.0373,4.0085,3.9519,3.8911,3.823,3.6387,3.499,3.4177,3.2562,3.0852,0.0,0.0,0.0,0.0,0.0,0.0,0.0,0.0,0.0,0.0,0.0,0.0,0.0,0.0,0.0,0.0,0.0,0.0,0.0,0.0,0.0,0.0,0.0,0.0,0.0,0.0,3.2647,3.2184,3.3346,3.3833,3.3012,3.2928,3.3191,3.3793,3.3839,3.4584,3.6246,3.6348,3.6988,3.8392,3.843,3.8854,3.97,3.97,4.0029,4.0629,4.0681,4.0768,4.0894,4.0967,4.1017,4.107,4.1085,4.1108,4.1108,4.1108,4.0413,3.9387,3.9387,3.9375,3.937,3.9373,3.9697,4.0141,4.0129,4.0162,3.9975,3.8619,3.8184,3.8125,3.7832,3.7734,3.7851,3.8437,3.8809,3.9043,3.9043,3.9258,3.9394,3.9101,3.8594,3.8105,3.7793,3.7051,3.6445,3.6445,3.6191,3.582,3.5234,3.5625,3.5801,3.5234,3.5622,3.594,3.5795,3.6548,3.7347,3.7997,3.8884,3.9586,4.0062,4.0085,3.995,3.9646,3.908,3.8575,3.8129,3.663,3.5375,3.4498,3.2952,3.1242,2.9326,0.0,0.0,0.0,0.0,0.0,0.0,0.0,0.0,0.0,0.0,0.0,0.0,0.0,0.0,0.0,0.0,0.0,0.0,0.0,0.0,0.0,0.0,0.0,3.1314,3.2192,3.2831,3.2842,3.3502,3.3681,3.2972,3.2938,3.3665,3.5438,3.5566,3.6285,3.795,3.8046,3.843,3.9296,3.9335,3.97,4.0489,4.0489,4.0489,4.0504,4.0629,4.0694,4.0706,4.0902,4.1007,4.0994,4.1074,4.1108,4.1108,4.1108,4.1108,4.1108,4.1108,4.1111,4.1094,4.1092,4.1055,4.0996,4.1004,4.1007,4.0881,4.0171,3.9941,3.9785,3.8945,3.8672,3.8672,3.8672,3.9297,3.9941,3.9941,4.0566,4.0996,4.0137,3.9922,3.9668,3.8828,3.7969,3.7344,3.7344,3.666,3.6055,3.6016,3.5996,3.5996,3.5996,3.6009,0.0,3.595,3.6625,3.7393,3.8158,3.8938,3.9387,3.933,3.9296,3.8916,3.7986,3.792,3.7403,3.6293,3.5958,3.5277,3.4216,3.2305,3.0885,3.0006,0.0,0.0,0.0,0.0,0.0,0.0,0.0,0.0,0.0,0.0,0.0,0.0,0.0,0.0,0.0,0.0,0.0,0.0,0.0,0.0,0.0,0.0,3.1408,3.1295,3.2634,3.3582,3.3516,3.478,3.5545,3.528,3.5796,3.6401,3.7048,3.7051,3.7578,3.8873,3.8931,3.9315,4.0142,4.0162,4.0277,4.0489,4.0489,4.0489,4.0489,4.0534,4.0621,4.0706,4.0811,4.0898,4.0994,4.1074,4.1108,4.1108,4.1108,4.1108,4.1108,4.1108,4.1101,4.1091,4.1103,4.1082,4.1062,4.1068,4.1091,4.1113,4.0918,4.084,4.0801,4.0566,4.0488,4.0488,4.0488,4.0664,4.084,4.084,4.1016,4.1133,4.0898,4.0351,3.9824,3.959,3.8867,3.8242,3.8242,3.8047,3.748,3.6211,3.5996,3.5996,3.5996,3.6009,0.0,3.678,3.7081,3.7714,3.8941,3.9303,3.9658,4.0134,3.9642,3.9165,3.8866,3.8262,3.774,3.7368,3.6362,3.5184,3.386,3.2745,3.1425,0.0,0.0,0.0,0.0,0.0,0.0,0.0,0.0,0.0,0.0,0.0,0.0,0.0,0.0,0.0,0.0,0.0,0.0,0.0,0.0,0.0,0.0,3.094,3.1884,3.216,3.3066,3.3992,3.4696,3.5533,3.6193,3.6574,3.7026,3.7484,3.8023,3.8117,3.8588,3.9608,3.9765,4.0008,4.0489,4.0489,4.0489,4.0489,4.0489,4.0489,4.0489,4.0489,4.0549,4.0615,4.0715,4.082,4.0914,4.1022,4.1074,4.1108,4.1108,4.1108,0.0,0.0,0.0,0.0,0.0,4.1103,4.1099,4.1099,4.1133,4.115,4.1164,4.117,4.1191,4.1191,4.1191,4.1191,4.1191,4.1191,4.1191,4.1191,4.1191,4.1191,4.1191,4.0801,4.0449,4.0449,3.9766,3.9141,3.9141,3.8848,0.0,3.7266,3.709,3.709,3.709,3.6773,3.686,3.7672,3.7828,3.8254,3.9335,3.9801,4.002,4.0,3.9204,0.0,0.0,0.0,3.6697,3.6426,3.5569,0.0,0.0,0.0,0.0,0.0,0.0,0.0,0.0,2.857,2.7901,0.0,0.0,0.0,0.0,0.0,0.0,0.0,0.0,0.0,0.0,0.0,0.0,0.0,0.0,0.0,0.0,3.1517,3.2808,3.3571,3.3728,3.4338,3.5871,3.601,3.6307,3.7186,3.7314,3.7698,3.8634,3.8899,3.9356,4.0157,0.0,0.0,0.0,0.0,4.0489,4.0489,4.0489,4.0489,4.0489,4.0489,4.0489,4.0504,4.0629,4.0734,4.0801,4.094,4.1022,4.1085,4.1108,4.1108,4.1108,4.1091,4.1091,4.1094,4.1112,4.1112,4.1108,4.1108,0.0,0.0,4.1114,4.1146,4.1191,4.1191,4.1191,4.1191,4.1191,4.1191,4.1191,4.1191,4.1191,4.1191,4.1191,4.1191,4.1191,4.1191,4.0586,4.0059,4.0059,3.9414,3.8887,3.8887,3.873,3.8594,3.8593,3.8025,3.7901,3.8768,3.8879,3.9117,3.974,0.0,0.0,3.9518,3.8593,3.7663,3.6792,3.5825,3.5053,3.4551,3.4279,3.3972,3.3643,3.3549,3.3386,3.3166,3.3256,3.2629,3.1367,2.9951,2.9228,0.0,0.0,0.0,0.0,0.0,0.0,0.0,0.0,0.0,0.0,0.0,0.0,0.0,0.0,0.0,3.1813,3.2712,3.3723,3.5202,3.5368,3.5458,3.5754,3.69,3.7685,3.7765,3.8353,3.8887,3.9288,3.9504,3.9792,4.0177,4.0389,4.0489,4.0489,4.0489,4.0489,4.0489,4.0489,4.0489,4.0489,0.0,0.0,4.0504,4.0629,4.0706,4.0723,4.091,4.1019,4.1017,4.1078,4.1108,4.1091,4.1101,4.1099,4.1114,4.1151,4.1172,4.1171,4.1171,4.1171,4.1171,4.1171,4.1191,4.1191,4.1191,4.1191,0.0,4.1191,4.1191,4.1191,4.1191,4.1191,4.1191,4.1191,4.1191,4.1191,4.1191,4.1074,4.0957,4.0957,4.0801,4.0703,4.0703,3.9531,3.8593,3.86,3.9051,3.9696,4.0503,4.0569,4.0805,4.1509,4.107,4.0597,4.0284,3.9465,3.855,3.7625,3.6083,3.5089,3.4753,3.4486,3.4189,3.3842,3.3633,3.3125,3.2405,3.3015,3.2805,3.1846,3.0909,2.992,0.0,0.0,0.0,0.0,0.0,0.0,0.0,0.0,0.0,0.0,0.0,2.9332,2.9736,0.0,3.1784,3.3424,3.3865,3.4583,3.6254,3.6813,3.7028,3.6956,3.7617,3.8193,3.8524,3.8887,3.9156,3.9298,3.9513,3.975,4.0002,4.0232,4.0408,4.0489,4.0489,4.0489,4.0489,4.0489,4.0489,4.0489,4.0489,4.0489,4.0504,4.0579,4.0629,4.0706,4.0839,4.094,4.1019,4.1074,4.1108,4.1111,4.1097,4.1123,4.1147,4.1191,4.1191,4.1191,4.1191,4.1191,4.1191,4.1191,4.1191,4.1191,4.1191,4.1191,4.1191,4.1191,4.1191,4.1191,4.1191,4.1191,4.1308,4.1699,4.1797,4.1797,4.1797,4.1797,4.168,4.1289,4.1191,4.1328,4.1732,4.1086,4.0496,4.0503,4.0508,4.0957,4.224,4.1925,4.1894,4.2665,4.1881,4.1247,4.1113,3.9912,3.858,3.723,3.6317,3.5528,3.4831,3.4508,3.4213,3.3895,3.3605,3.3194,3.2661,3.3412,3.3548,3.3033,3.2843,3.2069,0.0,0.0,0.0,0.0,0.0,0.0,0.0,0.0,2.8741,2.8741,2.996,3.0992,3.0852,3.1905,3.3225,3.4586,3.4842,3.5428,3.7099,3.7887,3.8308,3.8428,3.832,3.8503,3.9127,3.9129,3.9101,3.9101,3.935,3.9585,3.9797,4.0062,4.0286,4.0489,4.0489,4.0489,4.0489,4.0489,4.0489,4.0489,4.0489,4.0489,4.0489,4.0489,4.0559,4.0706,4.0801,4.0898,4.1017,4.1078,4.1108,4.1108,4.1108,4.1144,4.1191,4.1191,4.1191,4.1191,4.1191,4.1191,4.1191,4.1191,4.1191,4.1191,4.1191,4.1191,4.1191,4.1191,4.1191,4.1191,4.1191,4.1191,4.1367,4.2012,4.2285,4.2402,4.2402,4.2539,4.2461,4.1816,4.1699,4.1891,4.2533,4.2646,4.2646,4.2646,4.2201,4.2376,4.3759,4.322,4.2922,4.3569,4.2717,4.2001,4.1711,4.0227,3.8663,3.7101,3.6835,3.6232,3.5135,3.4733,3.4431,3.4186,3.3796,3.3593,3.3584,3.4199,3.4476,3.4347,3.4783,3.4314,3.1777,3.112,0.0,3.0462,3.0443,3.0443,0.0,0.0,3.1371,3.1371,3.205,3.2641,3.2609,3.3096,3.379,3.4661,3.535,3.6329,3.7943,3.8196,3.8484,3.9175,3.9242,3.9208,3.9129,3.9101,3.9101,3.9101,3.935,3.9585,3.9797,4.0062,4.0286,4.0489,4.0489,4.0489,4.0489,4.0489,4.0489,4.0489,4.0489,4.0489,4.0489,4.0489,4.0559,4.0706,4.0887,4.1025,4.1085,4.1108,4.1108,4.1108,4.1166,4.1183,4.1191,4.1191,4.1191,4.1191,4.1191,4.1191,4.1191,4.1191,4.1191,4.1191,4.1191,4.1191,4.1191,4.1191,4.1191,4.1191,4.1191,4.1191,4.1211,4.1308,4.1875,4.2402,4.2402,4.3008,4.3535,4.3437,4.3411,4.3453,4.3544,4.3544,4.3544,4.3544,4.4133,4.4621,4.4836,4.4611,4.4433,4.4461,4.3525,4.252,4.1684,4.073,3.9756,3.8782,3.7983,3.7128,3.6178,3.5638,3.533,3.5243,3.4597,3.4645,3.5317,3.528,3.5267,3.5252,3.5741,3.5416,3.199,0.0,0.0,0.0,3.0946,3.1294,3.1294,3.1952,3.256,3.256,3.3099,3.3563,3.3485,3.4348,3.5304,0.0,3.6788,3.7718,3.8882,3.9027,3.8921,3.867,3.91,3.932,3.9129,3.9101,3.9101,3.9101,3.9192,3.9357,3.9609,3.9838,4.0081,4.0321,4.0441,4.0489,4.0489,4.0489,4.0489,4.0489,4.0489,4.0489,4.0489,4.0489,4.0596,4.077,4.0921,4.1042,4.1101,4.1094,4.1119,4.1167,4.1187,4.1209,4.1191,4.1191,4.1191,4.1191,4.1191,4.1191,4.1191,4.1191,4.1191,4.1191,4.1191,4.1191,4.1191,4.1191,4.1191,4.1191,4.1191,4.1191,4.1328,4.1797,4.2168,4.2402,4.2402,4.2693,4.2941,4.2939,4.2937,4.3264,4.4289,4.4465,4.4641,4.5148,4.509,4.5187,4.5695,4.5543,4.513,4.4442,4.3936,4.3273,4.2374,4.1954,4.1361,4.0463,4.0043,3.9433,3.8497,3.7906,3.7359,3.6853,3.6158,3.5714,3.554,3.589,3.6021,3.5988,3.6557,3.6604,3.17,0.0,0.0,3.0926,3.1545,3.2164,3.2164,3.2841,3.345,3.3388,3.3917,3.4323,3.4206,3.5002,0.0,3.6957,3.7587,3.8357,3.947,3.9389,3.8946,3.8184,3.8439,3.8697,3.8775,3.8971,3.9101,3.9101,3.9101,3.9245,3.958,3.9728,3.9963,4.0269,4.0406,4.0489,4.0489,4.0489,4.0489,4.0489,4.0489,4.0489,4.0504,4.0564,4.0655,4.082,4.0967,4.107,4.1129,4.1123,4.1167,4.1191,4.1191,4.1191,4.1191,4.1191,4.1191,4.1191,4.1191,4.1191,4.1191,4.1191,4.1191,4.1191,4.1191,4.1191,4.1191,4.1191,4.1191,4.1191,4.1191,4.1191,4.1348,4.1933,4.2246,4.2402,4.2401,4.2587,4.277,4.2767,4.2756,4.3169,4.4426,4.4836,4.5207,4.5851,4.5613,4.5594,4.6218,4.6044,4.5524,4.4614,4.446,4.4077,4.3216,4.31,4.2716,4.1817,4.1509,4.0973,4.0032,3.9208,3.8486,3.7875,3.713,3.6548,3.6121,3.6575,3.6756,3.6666,3.7031,3.7182,0.0,0.0,3.1758,3.1758,3.2406,3.3063,3.3063,3.3731,3.4318,3.4109,3.4591,3.5026,3.4889,3.4751,3.5187,3.6817,3.7117,3.7699,3.9376,3.8814,3.8197,3.8109,3.738,3.7154,0.0,3.8637,3.9101,3.9101,3.9101,3.9287,3.9775,3.9797,4.0004,4.0473,4.0489,4.0489,4.0489,4.0489,4.0489,4.0489,4.0489,4.0489,4.0504,4.07,4.0798,4.08,4.1008,4.1142,4.1191,4.1191,4.1191,4.1191,4.1191,4.1191,4.1191,4.1191,4.1191,4.1191,4.1191,4.1191,4.1191,4.1191,4.1191,4.1191,4.1191,4.1191,4.1191,4.1191,4.1191,4.1191,4.1191,4.1191,4.1211,4.123,4.1836,4.2401,4.2405,4.3063,4.3668,4.3668,4.3668,4.3684,4.3723,4.4445,4.5012,4.5051,4.5746,4.6264,4.6303,4.6008,4.5684,4.54,4.53,4.4914,4.4055,4.3897,4.3533,4.2713,4.1808,4.0908,4.0034,3.8664,3.7848,3.7701,3.7053,3.7019,3.7632,3.7596,3.7485,3.7261,3.7087,3.6908,0.0,0.0,3.2657,3.2657,3.3325,3.3963,3.3963,3.461,3.5145,3.4995,3.5426,3.5798,3.5646,3.5948,3.6541,3.7647,3.7863,3.83,3.9451,3.9333,3.8683,3.7436,3.8028,0.0,0.0,0.0,0.0,3.9064,3.9272,3.9433,3.9585,3.9899,4.0139,4.0304,4.0441,4.0489,4.0489,4.0489,4.0489,4.0489,4.0489,4.0523,4.0573,4.0681,4.0776,4.0869,4.0988,4.1064,4.1142,4.1171,4.1191,4.1191,4.1191,4.1523,4.1992,4.1992,4.2363,4.2695,4.1582,4.1191,4.1191,4.1191,4.1191,4.1191,4.1191,4.1191,4.1191,4.1191,4.1191,4.1191,4.1191,4.1191,4.1191,4.1144,4.1338,4.1533,4.1533,4.176,4.2145,4.2728,4.2845,4.3021,4.3606,4.3938,4.4325,4.4903,4.5742,4.6215,4.5998,4.5871,4.5457,4.4575,4.4437,4.4072,4.3212,4.3134,4.2959,4.2588,4.2278,4.1908,4.1468,4.0802,4.0039,3.9243,3.87,3.8185,3.7703,3.7503,3.7372,3.7297,3.6965,3.6725,0.0,3.2899,3.3557,3.3557,3.4214,3.4853,3.4853,3.5256,3.5526,3.5297,3.5518,3.5704,3.5484,3.5803,3.648,3.7561,3.7796,3.8257,3.9402,3.9045,3.8321,3.7436,3.7773,0.0,0.0,0.0,0.0,3.9045,3.9657,3.9852,3.9628,4.0267,4.0519,4.0304,4.0441,4.0489,4.0489,4.0489,4.0504,4.0539,4.0539,4.0554,4.0598,4.0694,4.0776,4.0873,4.0992,4.1069,4.1103,4.1171,4.1191,4.123,4.1523,4.1933,4.2441,4.2754,4.3223,4.3555,4.2461,4.209,4.209,4.209,4.209,4.209,4.209,4.1875,4.1621,4.1621,4.1426,4.1191,4.1169,4.1168,4.1147,4.1119,4.1094,4.1091,4.1101,4.135,4.1732,4.2298,4.265,4.304,4.3606,4.37,4.3868,4.4421,4.4947,4.5387,4.5757,4.5544,4.4997,4.4095,4.3729,4.3307,4.2752,4.2673,4.2591,4.2503,4.2151,4.1907,4.1769,4.1143,4.0383,3.951,3.9097,3.8454,3.7577,3.7372,3.7238,3.7083,3.6766,3.6544,3.2928,3.3828,3.4524,3.4524,3.5123,3.5704,3.5742,3.567,3.5477,3.5076,3.5034,3.4908,0.0,0.0,3.5146,3.6702,3.7012,3.7641,3.927,3.8147,3.7373,0.0,0.0,0.0,0.0,0.0,0.0,3.9101,0.0,4.0495,3.9854,4.0804,4.1129,4.0527,4.0489,4.0489,4.0489,4.0504,4.0539,4.0607,4.0607,4.0598,4.0621,4.0731,4.0803,4.0823,4.1007,4.1093,4.1113,4.1211,4.1269,4.1348,4.2148,4.248,4.2637,4.3457,4.3789,4.3828,4.3828,4.3769,4.3691,4.3691,4.3691,4.3691,4.3691,4.3125,4.248,4.2519,4.1972,4.1386,4.137,4.1325,4.1309,4.1301,4.1275,4.1225,4.1225,4.1888,4.2474,4.2474,4.3138,4.3704,4.3704,4.3697,4.368,4.3674,4.3549,4.3996,4.548,4.4937,4.4295,4.398,4.3212,4.2695,4.2637,4.2512,4.2427,4.2348,4.1449,4.0939,4.0915,3.9754,3.8942,3.8597,3.8281,3.7845,3.7297,3.7259,3.7066,3.6702,3.6544,3.6377,3.4002,3.5143,3.6265,3.6265,3.5944,3.5805,3.6443,3.5913,3.5243,3.503,3.5305,3.5528,0.0,0.0,0.0,3.7617,3.7885,0.0,3.9402,3.9196,0.0,0.0,0.0,3.8294,3.7939,3.9027,0.0,0.0,4.0472,4.0452,3.9835,4.0823,4.1111,4.0527,4.0489,4.0489,4.0489,4.0539,4.0573,4.0607,4.0598,4.064,4.0687,4.0706,4.0791,4.0887,4.0927,4.1011,4.1152,4.1777,4.2051,4.2187,4.3027,4.3769,4.4355,4.459,4.5078,4.5644,4.5644,4.4785,4.3691,4.3691,4.3691,4.3691,4.3691,4.3535,4.3496,4.4147,4.4198,4.4181,4.4811,4.4494,4.4019,4.4003,4.3512,4.304,4.304,4.3216,4.3372,4.3372,4.3544,4.3693,4.3693,4.3656,4.383,4.4468,4.4448,4.4256,4.3912,4.3588,4.3316,4.3119,4.2848,4.2425,4.1795,4.1654,4.1263,4.0465,4.0151,3.9943,3.9745,3.941,3.8998,3.846,3.8234,3.7845,3.7297,3.7005,3.6806,3.6702,3.6395,3.6208,3.5394,3.6458,3.7386,3.7,3.6524,3.63,3.6783,3.6106,3.5336,3.5181,3.5286,0.0,0.0,0.0,0.0,0.0,0.0,0.0,3.9439,3.9233,3.8927,0.0,3.8782,0.0,3.8577,3.9695,4.0411,0.0,4.1312,4.1393,4.0419,4.1395,4.1513,4.0527,4.0489,4.0504,4.0539,4.0583,4.0598,4.0631,4.064,4.0668,4.0746,4.0746,4.0778,4.0848,0.0,4.1141,4.1588,4.2083,4.2558,4.3027,4.3926,4.457,4.5058,4.543,4.5879,4.6308,4.6308,4.5664,4.4844,4.4844,4.4844,4.4844,4.484,4.4565,4.4368,4.4865,4.4719,4.454,4.504,4.4803,4.4426,4.4426,4.4055,4.3704,4.3704,4.3997,4.4387,4.4774,4.482,4.4675,4.43,4.4206,4.4208,4.4319,4.4171,4.3838,4.3279,4.3393,4.3462,4.3289,4.2883,4.2419,4.1922,4.1753,4.143,4.0844,4.0371,4.0014,3.9877,3.945,3.8923,3.8267,3.8168,3.7756,3.7044,3.6806,3.6643,3.6502,3.6251,3.6062,3.6845,3.7715,3.8199,3.7425,3.7143,3.7065,3.7065,3.6373,3.5637,3.5364,0.0,0.0,3.4714,0.0,3.6133,3.6777,0.0,3.8634,3.9427,3.8865,3.8677,3.9401,3.8789,3.8607,3.9466,4.0179,4.0672,4.0904,4.2331,4.2573,4.1131,4.196,4.1896,4.0546,4.0504,4.0539,4.0607,4.0612,4.0635,4.07,4.07,4.0746,4.079,4.079,4.079,4.081,4.0965,4.1448,4.2131,4.2481,4.3064,4.3867,4.4805,4.5156,4.5254,4.6016,4.6308,4.6308,4.6308,4.6308,4.6308,4.6308,4.6308,4.6307,4.6309,4.5773,4.521,4.5299,4.4806,4.4247,4.4344,4.4305,4.4227,4.4211,4.4133,4.4055,4.4055,4.4637,4.5375,4.6147,4.6236,4.5967,4.5195,4.5072,4.4812,4.4052,4.3693,4.3523,4.3523,4.3808,4.3982,4.3895,4.3159,4.2674,4.2633,4.247,4.2329,4.2165,4.1263,4.0755,4.0728,3.977,3.8962,3.8365,3.8298,3.7811,3.6846,3.6853,3.6713,3.6326,3.6088,3.5975,3.7735,3.8605,3.9243,3.9088,3.8472,3.7913,3.7957,3.7132,0.0,0.0,0.0,3.4907,3.4655,3.5891,0.0,3.69,0.0,0.0,0.0,0.0,3.9402,0.0,0.0,0.0,0.0,0.0,0.0,0.0,0.0,4.2406,4.0947,4.1192,4.111,4.0527,4.0539,4.0588,4.0607,4.066,4.0687,4.07,4.0746,4.079,4.079,4.079,4.079,4.0829,4.1525,0.0,4.2222,4.3676,4.4442,4.4766,4.5644,4.6035,4.6094,4.623,4.6308,4.6308,4.6308,4.6308,4.6308,4.6308,4.6305,4.6309,4.6303,4.6183,4.6222,4.6947,4.7042,4.7077,4.7744,4.7412,4.6924,4.6924,4.6378,4.5851,4.5839,4.5928,4.6036,4.6192,4.622,4.615,4.5988,4.5975,4.593,4.5767,4.5429,4.5177,4.5177,4.3883,4.3212,4.3838,4.3691,4.3502,4.3326,4.3309,4.2874,4.1921,4.1698,4.154,4.1444,4.0511,3.9889,3.9598,3.9316,3.8667,3.7613,3.7786,3.7434,3.6643,3.6199,3.5932,3.8644,3.9514,3.9959,3.905,3.8484,3.8035,3.7614,0.0,0.0,0.0,0.0,3.5098,3.4887,0.0,0.0,0.0,0.0,0.0,0.0,0.0,0.0,0.0,0.0,0.0,0.0,0.0,0.0,0.0,0.0,4.2108,4.1519,4.0937,4.054,4.0358,4.0504,4.0598,4.0598,4.07,4.0746,4.0746,4.079,4.079,4.079,4.079,4.1023,4.1448,4.1835,0.0,4.3465,4.433,4.5013,4.5514,4.5967,4.618,4.625,4.625,4.6269,4.6308,4.6308,4.6307,4.6301,4.6301,4.6293,4.63,4.63,4.63,4.6397,4.6807,4.6924,4.7002,4.7393,4.7217,4.6924,4.6924,4.6608,4.6288,4.626,4.6226,4.6195,4.6195,4.6203,4.619,4.619,4.6203,4.6189,4.6154,4.5832,4.5592,4.5584,4.4595,4.4056,4.4414,4.4402,4.4326,4.414,4.4075,4.3764,4.3156,4.2592,4.2281,4.218,4.1352,4.0677,4.0255,4.0117,3.9642,3.8885,3.8958,3.8624,3.793,3.7603,3.7271,3.9591,4.0404,4.0694,3.9146,3.8612,3.8226,3.7367,3.6535,0.0,0.0,0.0,0.0,0.0,0.0,0.0,0.0,0.0,0.0,0.0,0.0,0.0,0.0,0.0,0.0,0.0,0.0,0.0,0.0,0.0,0.0,4.1569,4.0618,4.012,4.0195,4.0434,4.0574,4.0621,4.0746,4.079,4.079,4.079,4.079,4.081,4.0984,4.1506,4.2299,4.2667,0.0,0.0,4.5123,4.5524,4.6002,4.6066,4.6125,4.6173,4.619,4.623,4.6289,4.6307,4.63,4.63,4.63,4.63,4.63,4.63,4.63,4.63,4.63,4.63,4.63,4.63,4.63,4.63,4.6296,4.6288,4.626,4.6206,4.6189,4.6196,4.6196,4.6209,4.6196,4.6189,4.6189,4.6154,4.6084,4.5828,4.5615,4.5577,4.5262,4.5033,4.4943,4.487,4.4796,4.4659,4.4524,4.4401,4.4255,4.3472,4.3045,4.2952,4.2162,4.1493,4.099,4.099,4.0672,4.0109,4.0173,3.9882,3.93,3.9083,3.8649,4.0655,4.1274,4.168,4.0771,3.9915,3.909,3.8264,0.0,0.0,0.0,3.5673,3.5521,3.5095,0.0,0.0,0.0,0.0,0.0,0.0,0.0,0.0,0.0,0.0,0.0,0.0,0.0,0.0,0.0,0.0,0.0,3.9919,3.9769,3.9878,4.0193,4.0353,4.0519,4.0687,4.0759,4.079,4.079,4.079,4.079,4.081,4.1564,4.2357,4.3266,4.4794,0.0,0.0,4.6573,4.6515,4.6007,4.6015,4.6061,4.6116,4.6189,4.6191,4.6211,4.6276,4.6303,4.63,4.63,4.63,4.63,4.63,4.63,4.63,4.63,4.63,4.63,4.63,4.63,4.63,4.6308,4.626,4.6206,4.6189,4.6196,4.6203,4.6203,4.6196,4.6189,4.613,4.6102,4.6084,4.6017,4.5829,4.5638,4.5524,4.5321,4.508,4.4745,4.4719,4.4659,4.4542,4.4401,4.4255,4.4036,4.3931,4.3862,4.3786,4.2963,4.2424,4.2239,4.2158,4.169,4.0821,4.1216,4.0921,3.9884,3.9585,3.9108,4.1255,4.2144,4.2454,4.1119,4.0133,3.9096,3.7735,0.0,0.0,3.5762,3.5704,3.5565,3.5146,3.5348,0.0,0.0,0.0,0.0,0.0,0.0,0.0,0.0,0.0,0.0,0.0,0.0,0.0,0.0,0.0,0.0,3.9788,3.9832,3.9941,4.0082,4.0403,4.0626,4.07,4.0778,4.079,4.079,4.079,4.079,4.0829,4.1622,4.2473,4.3363,4.4562,0.0,0.0,4.6187,4.6129,4.5877,4.5877,4.5949,4.6035,4.6076,4.6128,4.6208,4.6219,4.627,4.63,4.63,4.63,4.63,4.63,4.63,4.63,4.63,4.63,4.63,4.63,4.6296,4.6288,4.6255,4.6226,4.6209,4.619,4.6203,4.6196,4.6196,4.6181,4.6138,4.6102,4.6075,4.6017,4.5953,4.5802,4.5642,4.5455,4.5201,4.4929,4.4719,4.4712,4.4605,4.4401,4.4344,4.4207,4.4005,4.3942,4.3897,4.3851,4.3439,4.3155,4.307,4.3054,4.2821,4.2406,4.2505,4.2193,4.1429,4.123,4.0859,4.1603,4.2454,4.2628,4.1448,4.0307,3.9108,0.0,0.0,3.6052,3.6052,3.6052,3.5944,3.5541,3.5687,3.6101,0.0,0.0,0.0,0.0,0.0,0.0,0.0,0.0,0.0,0.0,0.0,0.0,0.0,0.0,0.0,3.9902,4.0041,4.0139,4.012,4.0454,4.0673,4.0733,4.0778,4.0906,4.1158,4.1409,4.1661,4.1951,4.2763,4.3595,4.4465,4.5065,0.0,0.0,4.6167,4.6032,4.58,4.58,4.5858,4.5949,4.5996,4.6096,4.619,4.6225,4.6251,4.63,4.63,4.63,4.63,4.63,4.63,4.63,4.63,4.63,4.6296,4.6296,4.6288,4.6255,4.6206,4.6195,4.6203,4.6203,4.6189,4.6162,4.6162,4.613,4.6047,4.6037,4.5997,4.5953,4.5873,4.578,4.5645,4.5381,4.5118,4.4843,4.4613,4.4578,4.4496,4.4314,4.4255,4.4147,4.4005,4.3929,4.3883,4.3804,4.3667,4.3548,4.3497,4.3463,4.3446,4.334,4.3233,4.2975,4.2555,4.2458,4.2157,4.1777,4.2009,4.2009,4.199,4.0732,3.9262,0.0,3.7522,3.6884,3.6884,3.6884,3.6793,3.6438,3.7041,3.7471,3.7152,0.0,0.0,0.0,0.0,0.0,0.0,0.0,0.0,0.0,0.0,0.0,0.0,0.0,0.0,3.9968,4.0286,4.0454,4.0406,4.0454,4.0598,4.079,4.079,4.1197,4.2009,4.286,4.373,4.4601,4.5394,4.6245,4.7057,0.0,0.0,0.0,4.7096,4.6573,4.58,4.58,4.58,4.5827,4.6037,4.6091,4.6118,4.6249,4.63,4.63,4.63,4.63,4.63,4.63,4.63,4.63,4.63,4.6292,4.6303,4.6303,4.6255,4.6206,4.6209,4.6203,4.6203,4.6203,4.6146,4.6093,4.6093,4.6056,4.5986,4.5898,4.5886,4.5893,4.5814,4.5791,4.5648,4.5263,4.514,4.4891,4.4354,4.4314,4.4314,4.4285,4.4116,4.4005,4.4005,4.3929,4.3883,4.3804,4.3667,4.3548,4.3497,4.3446,4.334,4.3214,4.3123,4.3049,4.2882,4.2882,4.2634,4.1622,4.2434,4.2744,4.2144,4.1177,3.9997,3.8528,3.7986,3.7618,3.7019,3.7367,3.7668,3.7283,3.7426,3.7833,3.8568,0.0,0.0,0.0,0.0,0.0,0.0,0.0,0.0,0.0,0.0,0.0,0.0,0.0,0.0,4.0176,4.0356,4.0489,4.0473,4.0612,4.0733,4.079,4.1351,4.2048,4.2899,4.3769,4.433,4.4639,4.5432,4.5645,0.0,0.0,0.0,0.0,4.6206,4.6051,4.58,4.58,4.58,4.5814,4.5917,4.6017,4.6117,4.6153,4.621,4.63,4.63,4.63,4.63,4.63,4.63,4.63,4.6292,4.6308,4.6284,4.6236,4.6226,4.6189,4.6203,4.6196,4.6196,4.6146,4.6111,4.6084,4.6037,4.5986,4.591,4.5898,4.5848,4.5808,4.5814,4.5791,4.5648,4.5263,4.5052,4.4795,4.4354,4.4177,4.4097,4.4097,4.4036,4.3974,4.3929,4.3883,4.3786,4.3667,4.36,4.3513,4.3497,4.3446,4.334,4.3214,4.3123,4.3049,4.2882,4.2882,4.2786,0.0,4.2164,4.2299,4.2067,4.139,4.0423,3.9011,3.8682,3.8547,3.7986,3.8315,3.8569,3.8163,3.8344,3.8632,3.892,0.0,0.0,0.0,0.0,0.0,0.0,0.0,0.0,0.0,0.0,0.0,0.0,0.0,0.0,4.1189,4.1399,4.1562,4.1562,4.137,4.1255,4.1255,4.2396,4.3401,4.4253,4.5471,4.6206,4.6535,4.6689,4.6515,0.0,0.0,0.0,0.0,4.58,4.58,4.58,4.5814,4.5847,4.586,4.5941,4.6026,4.6092,4.6124,4.619,4.6276,4.6284,4.6296,4.6296,4.6296,4.6296,4.6292,4.626,4.6255,4.625,4.6201,4.6209,4.6196,4.6196,4.6176,4.6146,4.6102,4.6066,4.6007,4.5975,4.5917,4.5848,4.5848,4.5841,4.58,4.5805,4.5776,4.5651,4.5283,4.503,4.472,4.4374,4.4158,4.4005,4.4005,4.3974,4.3942,4.3897,4.3786,4.3686,4.3615,4.3532,4.3497,4.3463,4.3376,4.3269,4.3142,4.3086,4.2994,4.2882,4.2882,4.2862,0.0,4.1371,4.0984,4.1738,4.1351,4.0558,3.97,3.9545,0.0,3.9507,3.9565,3.9476,3.908,3.9604,3.9713,3.8558,0.0,0.0,0.0,0.0,0.0,0.0,0.0,0.0,0.0,0.0,0.0,0.0,0.0,0.0,4.2698,4.3057,4.3291,4.3305,4.257,4.2164,4.2086,4.3827,4.5084,4.5896,4.7657,4.8875,4.9591,4.8778,4.8333,0.0,0.0,4.58,0.0,4.58,4.58,4.5814,4.588,4.5906,4.5932,4.6056,4.6107,4.6118,4.6182,4.6191,4.621,4.627,4.6292,4.6303,4.6284,4.6284,4.6279,4.6231,4.6195,4.6203,4.6203,4.6209,4.6196,4.6196,4.6146,4.6093,4.6084,4.5986,4.5905,4.5886,4.5835,4.58,4.58,4.58,4.5805,4.5795,4.575,4.5599,4.5323,4.5007,4.4701,4.4411,4.4151,4.4005,4.4005,4.3929,4.3915,4.3897,4.3734,4.3582,4.3582,4.3513,4.3463,4.3394,4.3251,4.316,4.3104,4.2938,4.2882,4.2882,4.2882,4.2862,4.0984,0.0,4.0848,4.1023,4.0945,4.0558,0.0,4.0029,4.0307,0.0,0.0,0.0,0.0,0.0,0.0,0.0,0.0,0.0,0.0,0.0,0.0,0.0,0.0,0.0,0.0,0.0,0.0,0.0,0.0,4.3175,4.2717,4.294,4.3138,4.3305,4.375,4.3672,4.2995,4.4678,4.5955,4.6825,4.8566,4.9146,4.8701,4.8488,4.7676,0.0,0.0,4.58,4.58,4.58,4.5827,4.5893,4.5893,4.5899,4.5905,4.5994,4.6066,4.6111,4.6175,4.6205,4.621,4.6284,4.6308,4.6279,4.624,4.6226,4.6231,4.6195,4.6209,4.6203,4.6209,4.6162,4.6111,4.6111,4.6075,4.6007,4.5964,4.591,4.5873,4.5822,4.5814,4.58,4.581,4.5795,4.5781,4.5731,4.5703,4.5603,4.5342,4.5007,4.4701,4.4411,4.4121,4.3929,4.3929,4.3897,4.3883,4.3837,4.3667,4.3582,4.3532,4.3532,4.3463,4.3394,4.3215,4.3086,4.2938,4.2938,4.2882,4.2882,4.2882,4.2824,4.079,4.079,4.079,4.079,4.079,4.0674,4.0191,0.0,0.0,0.0,0.0,0.0,0.0,0.0,0.0,0.0,0.0,0.0,0.0,0.0,0.0,0.0,0.0,0.0,0.0,0.0,0.0,0.0,0.0,4.3662,4.3824,4.4037,4.4245,4.4446,4.4891,4.4755,4.3904,4.5568,4.6631,4.7115,4.8469,4.8856,4.8392,4.7985,4.7502,0.0,0.0,4.6413,4.6447,4.6447,4.6242,4.5899,4.5944,4.5956,4.596,4.5983,4.6017,4.6063,4.6177,4.6228,4.6258,4.6296,4.6279,4.6245,4.6209,4.6203,4.6203,4.6196,4.619,4.619,4.6162,4.6138,4.6093,4.6066,4.6007,4.5933,4.5917,4.588,4.5835,4.5814,4.5786,4.5791,4.5795,4.5765,4.575,4.5703,4.569,4.564,4.5457,4.518,4.4872,4.4572,4.4279,4.4017,4.3883,4.38,4.3734,4.3719,4.36,4.3532,4.3497,4.3497,4.3428,4.3305,4.3105,4.2994,4.2882,4.2882,4.2882,4.2882,4.2882,4.2786,4.0746,4.0746,4.0765,4.079,4.0778,4.0746,4.079,0.0,0.0,0.0,0.0,0.0,0.0,0.0,0.0,0.0,0.0,0.0,0.0,0.0,0.0,0.0,0.0,0.0,0.0,0.0,0.0,0.0,0.0,4.4151,4.5142,4.5362,4.556,4.58,4.58,4.5471,4.4794,4.6322,4.7096,4.7115,4.7985,4.8333,4.8179,4.7444,4.7502,4.8159,0.0,0.0,4.7384,4.7262,4.6771,4.6111,4.6019,4.6003,4.6003,4.5997,4.5997,4.6008,4.6133,4.623,4.6284,4.6279,4.6245,4.6203,4.6203,4.619,4.6196,4.6189,4.6189,4.6162,4.6111,4.6084,4.6066,4.5997,4.5922,4.5873,4.5873,4.5841,4.58,4.58,4.5791,4.5781,4.5785,4.5735,4.5703,4.5693,4.5673,4.5657,4.5586,4.5342,4.5074,4.4795,4.4511,4.4192,4.3883,4.3734,4.3649,4.3582,4.3513,4.3497,4.3497,4.3463,4.3393,4.3178,4.3013,4.2882,4.2882,4.2882,4.2882,4.2882,4.29,4.2786,4.0583,4.0554,4.0583,4.0765,4.0673,4.0583,4.0765,0.0,0.0,0.0,0.0,0.0,0.0,0.0,0.0,0.0,0.0,0.0,0.0,0.0,0.0,0.0,0.0,0.0,0.0,0.0,0.0,0.0,0.0,4.4619,4.5161,4.5243,4.5418,4.58,4.58,4.5742,4.5626,4.6593,4.7096,4.7115,4.7985,4.8005,4.7289,4.7154,4.7173,4.7289,0.0,4.7616,4.8236,4.7488,4.7158,4.7008,4.6282,4.5994,4.5997,4.5997,4.5997,4.6018,4.6084,4.6151,4.6226,4.6215,4.6209,4.6203,4.6209,4.6203,4.6189,4.6138,4.613,4.6102,4.6102,4.6017,4.5941,4.5929,4.5848,4.5827,4.5827,4.5805,4.5795,4.5795,4.5746,4.5719,4.5726,4.5709,4.5673,4.5603,4.5622,4.5586,4.5513,4.5263,4.5094,4.5042,4.4714,4.4374,4.4079,4.3986,4.3814,4.3513,4.3532,4.3463,4.3429,4.3286,4.3214,4.3141,4.2975,4.2882,4.2882,4.2882,4.2882,4.29,4.2842,4.2727,3.9726,3.9796,3.9912,4.0358,4.0408,4.0389,4.0583,0.0,0.0,0.0,0.0,0.0,0.0,0.0,0.0,0.0,0.0,0.0,0.0,0.0,0.0,0.0,0.0,0.0,0.0,0.0,0.0,0.0,0.0,0.0,4.518,4.5201,4.5381,4.58,4.58,4.58,4.58,4.6187,4.6399,4.6399,4.6806,4.6786,4.6399,4.6447,4.6969,4.7859,0.0,4.8393,4.9162,4.878,4.8087,4.7256,4.6849,4.6413,4.6007,4.6037,4.6076,4.6119,4.6139,4.6166,4.6195,4.6209,4.6196,4.6183,4.6154,4.6146,4.6138,4.6056,4.6075,4.6084,4.6007,4.5953,4.5886,4.5848,4.5814,4.5791,4.5791,4.5761,4.575,4.575,4.5719,4.5706,4.5709,4.5657,4.564,4.5603,4.5568,4.5531,4.5495,4.5362,4.518,4.5023,4.4819,4.4519,4.4079,4.4036,4.3846,4.3513,4.3481,4.3446,4.3394,4.3233,4.3123,4.3104,4.2956,4.2882,4.2882,4.2882,4.2882,4.29,4.2804,4.2745,3.9246,3.926,3.9214,3.989,0.0,4.0215,4.0622,0.0,0.0,0.0,0.0,0.0,0.0,0.0,0.0,0.0,0.0,0.0,0.0,0.0,0.0,0.0,0.0,0.0,0.0,0.0,0.0,0.0,0.0,0.0,4.518,4.5201,4.5381,4.58,4.58,4.58,4.58,4.58,4.58,4.58,4.58,4.5814,4.5833,4.588,4.6739,4.8211,4.8445,4.9013,4.9795,4.9827,4.8946,4.7589,4.7376,4.6784,4.6027,4.6093,4.6167,4.6207,4.6209,4.62,4.6195,4.6203,4.6183,4.6181,4.613,4.6084,4.6066,4.5997,4.6007,4.6027,4.5929,4.5893,4.5848,4.5814,4.581,4.58,4.5781,4.5735,4.5684,4.5684,4.569,4.5693,4.5693,4.5622,4.5568,4.5568,4.5513,4.5476,4.5495,4.5438,4.5301,4.5026,4.5004,4.4745,4.4121,4.3986,4.3795,4.3444,4.3411,4.3394,4.3323,4.3178,4.3104,4.3049,4.2938,4.2882,4.2882,4.29,4.2862,4.2862,4.2783,4.2667,3.9943,3.9395,3.8812,3.9472,0.0,0.0,4.1112,0.0,0.0,0.0,0.0,0.0,0.0,0.0,0.0,0.0,0.0,0.0,0.0,0.0,0.0,0.0,0.0,0.0,0.0,0.0,0.0,0.0,0.0,0.0,4.518,4.5201,4.5381,4.58,4.58,4.58,4.58,4.58,4.58,4.58,4.58,4.5827,4.5893,4.5893,4.6423,4.734,4.8211,4.9057,4.9795,4.987,4.9357,4.8425,4.7628,4.6805,4.6093,4.6181,4.6211,4.62,4.619,4.6202,4.6197,4.6196,4.6154,4.6102,4.6093,4.6066,4.5997,4.5929,4.5898,4.5898,4.5898,4.5848,4.58,4.5795,4.5815,4.5781,4.5715,4.5703,4.5709,4.5709,4.5657,4.5622,4.5622,4.555,4.5513,4.5513,4.5438,4.5419,4.5399,4.5399,4.5359,4.5277,4.5256,4.5019,4.4336,4.3992,4.3627,4.3232,4.334,4.3323,4.3141,4.3104,4.3049,4.2938,4.2882,4.2882,4.2882,4.2842,4.2822,4.2783,4.2606,4.2503,3.7623,3.7716,3.7953,3.8635,0.0,0.0,0.0,0.0,0.0,0.0,0.0,0.0,0.0,0.0,0.0,0.0,0.0,0.0,0.0,0.0,0.0,0.0,0.0,0.0,0.0,0.0,0.0,0.0,0.0,0.0,4.5362,4.5381,4.5507,4.58,4.58,4.58,4.58,4.5847,4.586,4.586,4.586,4.588,4.5906,4.5944,4.6434,4.728,4.7633,4.8588,4.9831,4.9299,4.8913,4.8536,4.7153,4.6427,4.617,4.6183,4.6206,4.6191,4.6209,4.6179,4.613,4.6146,4.6093,4.6027,4.5986,4.5964,4.591,4.5867,4.5847,4.5833,4.5833,4.5805,4.5795,4.5765,4.5754,4.5722,4.5706,4.5673,4.564,4.564,4.5586,4.555,4.555,4.5495,4.5438,4.5438,4.5438,4.5399,4.5398,4.5359,4.5317,4.5297,4.4929,4.4584,4.4318,4.374,4.3321,4.316,4.3178,4.3178,4.3104,4.3012,4.2938,4.2882,4.288,4.2842,4.2842,4.2727,4.2706,4.2649,4.2566,4.2503,3.6861,3.7253,3.7788,0.0,0.0,0.0,0.0,0.0,0.0,0.0,0.0,0.0,0.0,0.0,0.0,0.0,0.0,0.0,0.0,0.0,0.0,0.0,0.0,0.0,0.0,0.0,0.0,0.0,0.0,0.0,0.0,4.549,4.5594,4.578,4.5814,4.5827,4.5827,4.5874,4.5899,4.5899,4.5932,4.5932,4.5932,4.598,4.6333,4.6896,4.717,4.7978,4.9066,4.8757,4.8497,4.8163,4.6741,4.6209,4.6206,4.6216,4.6234,4.623,4.6184,4.6143,4.6127,4.6084,4.6017,4.5964,4.5898,4.5893,4.5854,4.58,4.5776,4.5765,4.577,4.5785,4.575,4.5719,4.5706,4.5693,4.5657,4.5622,4.5568,4.5568,4.5513,4.5476,4.5476,4.5438,4.54,4.54,4.538,4.5378,4.5378,4.5317,4.5297,4.5275,4.4833,4.4457,4.4231,4.374,4.3338,4.3049,4.3049,4.3049,4.3049,4.2938,4.29,4.2862,4.2822,4.2783,4.2745,4.2627,4.2588,4.2588,4.2486,4.2445,3.8357,3.8429,0.0,0.0,0.0,0.0,0.0,0.0,0.0,0.0,0.0,0.0,0.0,0.0,0.0,0.0,0.0,0.0,0.0,0.0,0.0,0.0,0.0,0.0,0.0,0.0,0.0,0.0,0.0,0.0,0.0,4.549,4.5594,4.578,4.586,4.5893,4.5893,4.5893,4.5886,4.5886,4.596,4.5991,4.5991,4.5991,4.5994,4.6055,4.6909,4.7298,4.7376,4.8312,4.8182,4.7306,4.6507,4.6206,4.6211,4.6273,4.63,4.627,4.6143,4.6143,4.6177,4.6047,4.5944,4.5905,4.5905,4.586,4.58,4.58,4.575,4.5719,4.569,4.5706,4.5719,4.569,4.5693,4.5693,4.5603,4.555,4.5495,4.5495,4.5457,4.54,4.54,4.54,4.5398,4.5398,4.5338,4.5297,4.5297,4.5297,4.5275,4.5192,4.5148,4.4789,4.4058,4.4016,4.367,4.2957,4.2882,4.2882,4.2882,4.2882,4.2862,4.2783,4.2802,4.2745,4.2609,4.2526,4.2503,4.2503,4.2346,4.2287,3.6779,0.0,0.0,0.0,0.0,0.0,0.0,0.0,0.0,0.0,0.0,0.0,0.0,0.0,0.0,0.0,0.0,0.0,0.0,0.0,0.0,0.0,0.0,0.0,0.0,0.0,0.0,0.0,0.0,0.0,0.0,4.5757,4.5819,4.586,4.5899,4.5893,4.5893,4.5949,4.596,4.596,4.5994,4.5994,4.5991,4.5994,4.5997,4.6026,4.6309,4.6795,4.7398,4.7727,4.7333,4.6546,4.6342,4.6273,4.6273,4.63,4.6295,4.6288,4.6198,4.6118,4.6037,4.5953,4.588,4.5838,4.5838,4.5776,4.5731,4.5731,4.6108,4.6403,4.5863,4.6119,4.639,4.5794,4.564,4.5603,4.5531,4.5513,4.5495,4.5438,4.54,4.5419,4.5419,4.5359,4.5317,4.5317,4.5317,4.5297,4.5254,4.5192,4.5148,4.5125,4.4857,4.4493,4.4046,4.3735,4.3387,4.292,4.2882,4.2882,4.2882,4.2824,4.2822,4.2783,4.2645,4.2566,4.2526,4.2445,4.2346,4.2346,4.2328,4.2287,3.6892,0.0,0.0,0.0,0.0,0.0,0.0,0.0,0.0,0.0,0.0,0.0,0.0,0.0,0.0,0.0,0.0,0.0,0.0,0.0,0.0,0.0,0.0,0.0,0.0,0.0,0.0,0.0,0.0,0.0,0.0,4.5893,4.5906,4.5899,4.5937,4.5949,4.5949,4.5983,4.5994,4.5994,4.5997,4.6007,4.6046,4.6047,4.6037,4.6037,4.6102,4.6438,4.6929,4.6969,4.6699,4.6245,4.6277,4.63,4.63,4.63,4.6286,4.6258,4.6189,4.6076,4.5951,4.5893,4.5819,4.5765,4.5765,4.5735,4.5703,4.5703,4.6037,4.6352,4.618,4.624,4.6204,4.5703,4.5568,4.5531,4.5457,4.5457,4.5458,4.5419,4.538,4.5359,4.5359,4.5317,4.5297,4.5256,4.5254,4.5192,4.517,4.5103,4.5057,4.5057,4.4808,4.4538,4.4194,4.3924,4.359,4.3087,4.3069,4.2995,4.2786,4.2765,4.2745,4.2685,4.2584,4.2463,4.2405,4.2346,4.2287,4.2287,4.2287,4.2246,0.0,0.0,0.0,0.0,0.0,0.0,0.0,0.0,0.0,0.0,0.0,0.0,0.0,0.0,0.0,0.0,0.0,0.0,0.0,0.0,0.0,0.0,0.0,0.0,0.0,0.0,0.0,0.0,0.0,0.0,0.0,4.5906,4.5899,4.5917,4.596,4.6003,4.6003,4.6005,4.6007,4.6007,4.6007,4.6037,4.6102,4.6102,4.6102,4.6111,4.6169,4.6203,4.6211,4.6211,4.6245,4.63,4.63,4.63,4.6303,4.63,4.6269,4.6206,4.6123,4.6017,4.5901,4.5819,4.575,4.57,4.57,4.5745,4.5808,4.5808,4.5871,4.6087,4.6743,4.632,4.5706,4.5629,4.5552,4.5457,4.54,4.54,4.5398,4.5398,4.5338,4.5297,4.5297,4.5297,4.5275,4.5192,4.5148,4.5103,4.5103,4.5014,4.4991,4.4991,4.4919,4.4751,4.443,4.4355,4.4035,4.3338,4.3232,4.3014,4.2609,4.2706,4.2685,4.2503,4.2503,4.2405,4.2287,4.2287,4.2287,4.2287,4.2287,4.2103,0.0,0.0,0.0,0.0,0.0,0.0,0.0,0.0,0.0,0.0,0.0,0.0,0.0,0.0,0.0,0.0,0.0,0.0,0.0,0.0,0.0,0.0,0.0,0.0,0.0,0.0,0.0,0.0,0.0,0.0,4.5893,4.5949,4.598,4.5991,4.5994,4.5986,4.5986,4.5997,4.6017,4.6084,4.6084,4.6102,4.6181,4.6111,4.6135,4.6189,4.6195,4.6236,4.6273,4.6273,4.6296,4.63,4.63,4.6309,4.6297,4.6306,4.6293,4.625,4.6076,4.6013,4.5947,4.5773,4.5703,4.569,4.569,4.6138,4.6624,4.6569,4.7492,4.8394,4.7874,4.7606,4.728,4.653,4.5879,4.5419,4.54,4.5399,4.5379,4.5338,4.5275,4.5213,4.5213,4.517,4.5148,4.5125,4.5061,4.5014,4.5014,4.4943,4.4919,4.4919,4.4895,4.4726,4.4279,4.4035,4.3689,4.3087,4.2882,4.2688,4.2526,4.2544,4.2544,4.2503,4.2405,4.2346,4.2287,4.2287,4.2187,4.1977,4.1977,4.1892,0.0,0.0,0.0,0.0,0.0,0.0,0.0,0.0,0.0,0.0,0.0,0.0,0.0,0.0,0.0,0.0,0.0,0.0,0.0,0.0,0.0,0.0,0.0,0.0,0.0,0.0,0.0,0.0,0.0,4.5808,4.5949,4.5991,4.6003,4.5994,4.5997,4.6017,4.6056,4.6056,4.6084,4.6146,4.6146,4.6169,4.6203,4.6164,4.6183,4.6245,4.6245,4.6273,4.63,4.63,4.6306,4.6293,4.6303,4.6306,4.6295,4.6307,4.6289,4.623,4.6065,4.5955,4.5873,4.5738,4.569,4.564,4.5603,4.6183,4.6839,4.6781,4.7683,4.8661,4.8541,4.8235,4.7811,4.7289,4.6259,4.54,4.5359,4.5338,4.5338,4.5275,4.5213,4.5192,4.5148,4.5103,4.5038,4.5038,4.501,4.4943,4.4943,4.4919,4.4889,4.4796,4.4796,4.4693,4.4374,4.4229,4.3886,4.3249,4.3069,4.2806,4.2445,4.2387,4.2387,4.2387,4.2346,4.2246,4.2103,4.2103,4.1977,4.1762,4.1762,4.1631,0.0,0.0,0.0,0.0,0.0,0.0,0.0,0.0,0.0,0.0,0.0,0.0,0.0,0.0,0.0,0.0,0.0,0.0,0.0,0.0,0.0,0.0,0.0,0.0,0.0,0.0,0.0,0.0,0.0,4.5929,4.6003,4.6003,4.6025,4.6017,4.6017,4.6056,4.613,4.613,4.6146,4.6209,4.6216,4.6209,4.6216,4.6216,4.6245,4.63,4.63,4.6303,4.6303,4.6303,4.6309,4.63,4.6297,4.6297,4.6301,4.6301,4.6254,4.6189,4.6037,4.5912,4.5802,4.5703,4.564,4.5607,4.5667,4.6321,4.7031,4.7087,4.7738,4.8541,4.9149,4.8706,4.8092,4.8006,4.6885,4.574,4.5526,4.5371,4.5292,4.5382,4.5284,4.5148,4.508,4.5014,4.4967,4.4967,4.4938,4.4895,4.487,4.4889,4.4796,4.4685,4.4659,4.4605,4.4487,4.4411,4.4091,4.3424,4.3301,4.2977,4.2328,4.2246,4.2246,4.2246,4.2246,4.2103,4.1874,4.1892,4.1762,4.1542,4.1542,4.1408,0.0,0.0,0.0,0.0,0.0,0.0,0.0,0.0,0.0,0.0,0.0,0.0,0.0,0.0,0.0,0.0,0.0,0.0,0.0,0.0,0.0,0.0,0.0,0.0,0.0,0.0,0.0,0.0,4.5893,4.5983,4.5997,4.5997,4.6037,4.6084,4.6084,4.613,4.6189,4.6189,4.619,4.6201,4.6264,4.6292,4.6296,4.6296,4.6296,4.63,4.63,4.6309,4.63,4.6306,4.6303,4.6309,4.6306,4.6293,4.6295,4.6297,4.6295,4.6249,4.5997,4.5899,4.586,4.5618,4.5513,4.5629,4.6321,4.7165,4.7969,4.8597,4.9398,5.0084,5.0134,4.9515,4.8857,4.8834,4.8048,4.711,4.6412,4.5665,4.5354,4.6096,4.5593,4.501,4.4919,4.4919,4.4895,4.4895,4.4914,4.4846,4.4745,4.4738,4.4685,4.4524,4.4542,4.4487,4.4344,4.4079,4.3693,4.325,4.2939,4.2634,4.2328,4.2061,4.1959,4.1959,4.1959,4.1934,4.1874,4.1736,4.1498,4.1255,4.1255,4.1134,0.0,0.0,0.0,0.0,0.0,0.0,0.0,0.0,0.0,0.0,0.0,0.0,0.0,0.0,0.0,0.0,0.0,0.0,0.0,0.0,0.0,0.0,0.0,0.0,0.0,0.0,0.0,0.0,4.5953,4.6016,4.6047,4.6066,4.6084,4.6154,4.6154,4.6169,4.6209,4.6209,4.622,4.6269,4.6296,4.6306,4.6293,4.6306,4.6306,4.6293,4.6303,4.6295,4.6307,4.6308,4.6308,4.6308,4.6301,4.6309,4.63,4.6309,4.6306,4.6264,4.5978,4.5898,4.5938,4.6123,4.6167,4.6321,4.7124,4.7966,4.8673,4.9013,4.9675,5.0278,5.0255,4.994,4.9485,4.9053,4.8604,4.8175,4.7819,4.7101,4.6473,4.6349,4.5979,4.5507,4.499,4.4895,4.487,4.4796,4.4789,4.4738,4.4605,4.4578,4.4524,4.4401,4.4401,4.4314,4.4147,4.3986,4.3712,4.3232,4.2921,4.2537,4.2103,4.1849,4.1719,4.1719,4.1719,4.1675,4.1525,4.1436,4.1272,4.1041,4.1041,4.0789,0.0,0.0,0.0,0.0,0.0,0.0,0.0,0.0,0.0,0.0,0.0,0.0,0.0,0.0,0.0,0.0,0.0,0.0,0.0,0.0,0.0,0.0,0.0,0.0,0.0,0.0,0.0,0.0,4.6037,4.6075,4.6111,4.613,4.6154,4.619,4.619,4.6209,4.6236,4.6236,4.6245,4.63,4.63,4.6306,4.6297,4.6301,4.6305,4.6308,4.6305,4.6307,4.6307,4.6293,4.6309,4.6297,4.6297,4.6293,4.63,4.6296,4.6296,4.6284,4.6222,4.6193,4.63,4.6819,4.701,4.7143,4.7941,4.8608,4.9102,4.9305,4.9754,5.0163,5.0163,5.0114,4.993,4.9321,4.9138,4.8953,4.8536,4.815,4.7542,4.6491,4.6234,4.5918,4.4997,4.4846,4.4796,4.4685,4.4659,4.4605,4.4458,4.4458,4.4401,4.4237,4.4207,4.4147,4.3974,4.3974,4.3697,4.3105,4.2884,4.248,4.1831,4.1631,4.1498,4.1498,4.1471,4.1363,4.1209,4.1163,4.1041,4.0888,4.0888,4.0451,0.0,0.0,0.0,0.0,0.0,0.0,0.0,0.0,0.0,0.0,0.0,0.0,0.0,0.0,0.0,0.0,0.0,0.0,0.0,0.0,0.0,0.0,0.0,0.0,0.0,0.0,0.0,0.0,4.6154,4.6196,4.6196,4.6196,4.619,4.6206,4.6206,4.6236,4.63,4.63,4.63,4.63,4.63,4.63,4.6303,4.6306,4.6306,4.6303,4.6306,4.6293,4.6301,4.6306,4.63,4.6303,4.6303,4.63,4.63,4.6308,4.6303,4.6367,4.6871,4.7036,4.7119,4.7665,4.7848,4.7979,4.8728,4.8967,4.9158,4.9847,5.0089,5.0108,5.0108,5.0057,4.9986,4.9948,4.9876,4.9432,4.7813,4.8105,4.8162,4.6506,4.6184,4.5868,4.487,4.4712,4.4659,4.4542,4.4515,4.4458,4.4314,4.4314,4.4237,4.4036,4.4005,4.3974,4.3897,4.3915,4.3563,4.2788,4.2711,4.2396,4.1648,4.1346,4.1209,4.1209,4.1041,4.0995,4.1209,4.1012,4.0935,4.0888,4.0793,4.0402,0.0,0.0,0.0,0.0,0.0,0.0,0.0,0.0,0.0,0.0,0.0,0.0,0.0,0.0,0.0,0.0,0.0,0.0,0.0,0.0,0.0,0.0,0.0,0.0,0.0,0.0,0.0,0.0,0.0,4.6209,4.6189,4.6189,4.6226,4.6269,4.6249,4.628,4.6295,4.6295,4.6293,4.63,4.63,4.6308,4.6306,4.63,4.629,4.63,4.63,4.6303,4.6309,4.6303,4.6296,4.6292,4.6292,4.6269,4.624,4.6236,4.6587,4.7072,4.7031,4.7397,4.7947,4.8466,4.8594,4.8747,4.9472,4.9714,4.9752,5.0032,5.0082,5.0031,5.0031,4.9978,4.9952,4.9952,4.9843,4.9608,4.9003,4.9117,4.9003,4.7851,4.7542,4.7043,4.5594,4.5341,4.5125,4.4476,4.4373,4.4314,4.4147,4.4116,4.4067,4.4005,4.3942,4.3929,4.3897,4.3851,4.3634,4.3124,4.2657,4.2262,4.1813,4.1318,4.1012,4.1012,4.0918,4.0918,4.1012,4.0918,4.084,4.0793,4.0697,4.0087,3.6656,0.0,0.0,0.0,0.0,0.0,0.0,0.0,0.0,0.0,0.0,0.0,0.0,0.0,0.0,0.0,0.0,0.0,0.0,0.0,0.0,0.0,0.0,0.0,0.0,0.0,0.0,0.0,0.0,0.0,4.624,4.6221,4.6249,4.6309,4.6303,4.6293,4.6306,4.6308,4.6307,4.6301,4.6308,4.6303,4.63,4.6306,4.6306,4.6292,4.6273,4.6273,4.6296,4.6296,4.6288,4.6279,4.6279,4.6236,4.6206,4.6201,4.6747,4.7502,4.7486,4.8009,4.8771,4.9307,4.943,4.9472,4.9911,5.0082,5.0057,5.0057,5.0005,4.9978,4.9978,4.9898,4.9816,4.9741,4.9655,4.9585,4.9585,4.9585,4.934,4.8493,4.8273,4.7751,4.6285,4.606,4.572,4.4766,4.4655,4.4482,4.4042,4.3974,4.3974,4.3974,4.3897,4.3851,4.38,4.3753,4.3513,4.294,4.2483,4.2056,4.1596,4.1134,4.0888,4.084,4.084,4.084,4.0776,4.084,4.068,4.032,4.0254,3.9489,0.0,0.0,0.0,0.0,0.0,0.0,0.0,0.0,0.0,0.0,0.0,0.0,0.0,0.0,0.0,0.0,0.0,0.0,0.0,0.0,0.0,0.0,0.0,0.0,0.0,0.0,0.0,0.0,4.6249,4.63,4.63,4.63,4.6309,4.6301,4.629,4.6297,4.6308,4.6295,4.6309,4.6301,4.6301,4.6295,4.63,4.6303,4.6294,4.6294,4.6231,4.6231,4.6284,4.6303,4.626,4.6206,4.6206,4.6206,4.6201,4.6209,4.6768,4.7625,4.8196,4.8851,4.9539,5.0195,5.0278,5.0082,5.0031,5.0005,4.9978,4.9906,4.9879,4.9879,4.9898,4.9788,4.9644,4.9446,4.9415,4.9396,4.9396,4.9384,4.9159,4.8371,4.822,4.7897,4.6881,4.675,4.6408,4.5467,4.5305,4.4989,4.4153,4.3947,4.3915,4.3915,4.3837,4.3753,4.3615,4.3582,4.3196,4.2279,4.2198,4.1839,4.0965,4.0935,4.084,4.0697,4.0697,4.0648,4.0468,4.0648,4.032,3.961,3.9437,3.8668,3.5348,0.0,0.0,0.0,0.0,0.0,0.0,0.0,0.0,0.0,0.0,0.0,0.0,0.0,0.0,0.0,0.0,0.0,0.0,0.0,0.0,0.0,0.0,0.0,0.0,0.0,0.0,0.0,4.6296,4.63,4.63,4.63,4.6307,4.6308,4.6308,4.6307,4.6305,4.6293,4.6303,4.6306,4.6296,4.6308,4.6303,4.6255,4.6231,4.6231,4.6164,4.6151,4.6164,4.6201,4.6226,4.6189,4.6189,4.617,4.6135,4.6127,4.7056,4.8312,4.8321,4.918,5.0259,5.0323,5.0188,5.0031,4.9952,4.9925,4.9898,4.9807,4.975,4.9702,4.9566,4.9506,4.9476,4.9415,4.934,4.9244,4.9244,4.9127,4.9005,4.8931,4.881,4.8449,4.7564,4.7415,4.7103,4.6168,4.5523,4.5045,4.4739,4.4188,4.3837,4.3837,4.3701,4.3634,4.3615,4.3548,4.341,4.316,4.2559,4.2032,4.1717,4.1071,4.0697,4.0534,4.0534,4.0485,4.0355,4.0485,4.0387,4.007,3.9065,3.8181,3.5326,3.6078,0.0,0.0,0.0,0.0,0.0,4.1418,0.0,0.0,0.0,0.0,0.0,0.0,0.0,0.0,0.0,0.0,0.0,0.0,0.0,0.0,0.0,0.0,0.0,4.63,4.6303,4.629,4.629,4.6293,4.63,4.6308,4.6307,4.6303,4.6297,4.6295,4.6295,4.63,4.6292,4.6292,4.6279,4.625,4.625,4.622,4.617,4.6157,4.613,4.608,4.6054,4.6088,4.6115,4.6127,4.6127,4.6083,4.6066,4.6066,4.7135,4.8588,4.8438,4.9302,5.045,5.0313,5.0044,4.9741,4.9712,4.9683,4.9683,4.9615,4.9585,4.9525,4.9352,4.9321,4.9308,4.9225,4.9127,4.9079,4.9064,4.8943,4.8874,4.903,4.8962,4.8691,4.8173,4.8081,4.7768,4.69,4.607,4.5423,4.5041,4.4251,4.3719,4.3719,4.3634,4.3566,4.3532,4.3463,4.3268,4.2846,4.236,4.1864,4.1393,4.0884,4.0534,4.0436,4.0436,4.0337,4.0238,4.0337,4.0104,3.9454,3.8181,3.7342,3.5655,3.6593,0.0,0.0,0.0,0.0,4.1832,4.199,0.0,0.0,0.0,0.0,0.0,0.0,0.0,0.0,0.0,0.0,0.0,0.0,0.0,0.0,0.0,0.0,4.63,4.63,4.6306,4.63,4.6303,4.6307,4.6308,4.6305,4.6295,4.63,4.63,4.63,4.6296,4.6284,4.6299,4.6284,4.6226,4.6181,4.6201,4.6183,4.615,4.6099,4.6074,4.6037,4.5986,4.5986,4.5986,4.5997,4.5997,4.5997,4.5986,4.5986,4.7093,4.8565,4.8503,4.9305,5.0306,5.021,4.9857,4.9446,4.9415,4.9415,4.9415,4.9384,4.9352,4.9321,4.9211,4.9146,4.9113,4.8943,4.8874,4.8839,4.8787,4.8787,4.8787,4.8751,4.8787,4.8732,4.8623,4.8587,4.8347,4.7645,4.6777,4.5946,4.5192,4.422,4.3582,4.3582,4.3513,4.3463,4.3376,4.334,4.292,4.2008,4.1881,4.1445,4.0566,4.0517,4.0436,4.0305,4.0305,4.0188,4.002,4.0138,3.9523,3.8278,3.7103,3.6538,3.6581,3.6996,3.7441,3.8258,0.0,0.0,0.0,3.9566,0.0,0.0,0.0,0.0,0.0,0.0,0.0,0.0,0.0,0.0,0.0,0.0,0.0,0.0,0.0,0.0,4.63,4.63,4.6303,4.6306,4.6308,4.6293,4.629,4.6306,4.63,4.6303,4.6303,4.6264,4.6216,4.6211,4.6231,4.6211,4.6151,4.613,4.6123,4.6065,4.6037,4.6017,4.5956,4.5922,4.5929,4.5848,4.5898,4.5997,4.5997,4.5975,4.5929,4.5925,4.6958,4.8372,4.833,4.9276,5.0406,5.0187,4.9981,4.9741,4.9476,4.9415,4.9384,4.9276,4.9127,4.8993,4.8978,4.8909,4.8857,4.8822,4.8732,4.866,4.8642,4.8642,4.8605,4.8569,4.8587,4.8642,4.8587,4.8587,4.8513,4.8311,4.7058,4.6009,4.5772,4.4432,4.3497,4.3446,4.3411,4.3376,4.3251,4.2884,4.258,4.2422,4.1682,4.1122,4.0827,4.0483,4.0288,4.0138,4.0138,3.9918,3.9365,3.9418,3.9028,3.8278,3.7413,3.6723,3.7102,3.776,3.8487,3.8933,0.0,0.0,0.0,0.0,0.0,0.0,0.0,0.0,0.0,0.0,0.0,0.0,0.0,0.0,0.0,0.0,0.0,0.0,0.0,0.0,4.63,4.6295,4.6303,4.6307,4.6301,4.6296,4.6308,4.6292,4.6288,4.625,4.6255,4.6236,4.6206,4.6164,4.6151,4.6151,4.6072,4.6056,4.6056,4.6017,4.5975,4.5949,4.5925,4.5854,4.58,4.5757,4.58,4.5848,4.5899,4.5854,4.58,4.5805,4.6858,4.824,4.78,4.8855,5.0284,4.9572,4.9489,4.9596,4.9239,4.916,4.9127,4.9012,4.8927,4.8839,4.875,4.8714,4.8697,4.8697,4.8642,4.8587,4.855,4.855,4.8513,4.8401,4.842,4.8439,4.8439,4.8439,4.831,4.7868,4.6765,4.5809,4.5315,4.4198,4.3411,4.3305,4.3069,4.2902,4.2788,4.236,4.1955,4.1682,4.1213,4.0832,4.048,4.0303,4.0188,4.007,3.9731,3.9332,3.9049,3.839,3.7937,3.7706,3.689,3.6165,0.0,0.0,0.0,0.0,0.0,4.0032,0.0,0.0,0.0,0.0,0.0,0.0,0.0,0.0,0.0,0.0,0.0,0.0,0.0,0.0,0.0,0.0,0.0,0.0,4.6295,4.6151,4.611,4.63,4.6131,4.6117,4.6299,4.6299,4.6255,4.6206,4.6195,4.6176,4.617,4.6103,4.6072,4.6072,4.5998,4.5986,4.5986,4.5964,4.5937,4.588,4.5866,4.5791,4.57,4.57,4.57,4.5719,4.5765,4.575,4.57,4.57,4.6703,4.7921,4.7227,4.8241,4.9723,4.8865,4.8928,4.9257,4.8978,4.8874,4.8874,4.8768,4.8751,4.8732,4.8642,4.8587,4.8569,4.8569,4.8569,4.8532,4.8494,4.8457,4.8419,4.8306,4.8306,4.8306,4.8306,4.8177,4.7847,4.7186,4.625,4.537,4.4675,4.3852,4.3305,4.3087,4.2732,4.2422,4.2239,4.1778,4.1293,4.0849,4.0724,4.0483,4.0138,4.0087,4.002,3.9885,3.9209,3.8745,3.8509,3.7263,3.6753,3.7071,3.6117,3.5429,0.0,0.0,0.0,0.0,4.0949,0.0,0.0,0.0,0.0,0.0,0.0,0.0,0.0,0.0,0.0,0.0,0.0,0.0,0.0,0.0,0.0,0.0,0.0,0.0,0.0,4.5595,4.5467,4.6245,4.5586,4.5479,4.6264,4.6236,4.6201,4.6209,4.6137,4.6115,4.6111,4.6047,4.6017,4.6017,4.5933,4.5898,4.5917,4.5847,4.581,4.5815,4.5746,4.5715,4.57,4.57,4.5703,4.569,4.5719,4.5715,4.57,4.5706,4.6287,4.7041,4.695,4.7548,4.8375,4.8479,4.8724,4.8943,4.8857,4.8822,4.8768,4.8642,4.8623,4.8623,4.8587,4.855,4.8494,4.8494,4.8438,4.8344,4.8306,4.8306,4.8306,4.8306,4.8306,4.8306,4.8306,4.7719,4.7186,4.7018,4.5736,4.4657,4.4455,4.3707,4.3032,4.2555,4.2418,4.2198,4.1656,4.1185,4.0896,4.0802,4.0402,4.0171,4.007,3.9986,3.9644,3.9032,3.8854,3.8189,3.7115,3.612,3.6073,3.689,3.5434,3.4728,0.0,0.0,0.0,0.0,0.0,0.0,4.0639,0.0,4.031,0.0,0.0,0.0,0.0,0.0,0.0,0.0,0.0,0.0,0.0,0.0,0.0,0.0,0.0,0.0,0.0,4.5207,4.5356,4.6234,4.546,4.5304,4.6138,4.6151,4.613,4.6083,4.6065,4.6047,4.6037,4.5975,4.5941,4.5937,4.5874,4.5833,4.5786,4.5761,4.5735,4.5738,4.5722,4.5671,4.5635,4.5635,4.562,4.5586,4.5584,4.5601,4.5654,4.5657,4.6161,4.6779,4.6261,4.6954,4.8084,4.832,4.8521,4.8714,4.8678,4.8678,4.8642,4.8587,4.855,4.8513,4.8458,4.8401,4.8363,4.8363,4.8363,4.8306,4.8306,4.8306,4.8267,4.8247,4.8247,4.8062,4.7508,4.7219,4.6853,4.6264,4.5222,4.4291,4.3724,4.3099,4.2634,4.2338,4.1821,4.1366,4.1111,4.0659,4.0385,4.0385,4.0121,3.9986,3.9986,3.947,3.9049,3.8799,3.793,3.7037,3.6073,3.523,3.4787,3.4736,3.4095,3.3561,4.0122,0.0,0.0,0.0,0.0,0.0,0.0,0.0,0.0,0.0,0.0,0.0,0.0,0.0,0.0,0.0,0.0,0.0,0.0,0.0,0.0,0.0,0.0,0.0,0.0,4.489,4.5085,4.6153,0.0,4.5001,4.6013,4.6063,4.6056,4.6007,4.5986,4.5975,4.5964,4.5905,4.5854,4.5833,4.5795,4.575,4.57,4.57,4.5687,4.5693,4.5693,4.564,4.5568,4.5568,4.5531,4.5457,4.5457,4.5495,4.555,4.555,4.5916,4.634,4.5687,4.6472,4.7747,4.7815,4.8194,4.8587,4.8569,4.8569,4.8532,4.8494,4.8457,4.8401,4.8324,4.8306,4.8306,4.8306,4.8286,4.8286,4.8286,4.8229,4.819,4.813,4.8148,4.7795,4.6775,4.6624,4.6282,4.5364,4.4563,4.376,4.2953,4.2573,4.2216,4.1846,4.1202,4.0754,4.0628,4.0254,4.0037,3.9969,3.9713,3.9592,3.9592,3.8832,3.8286,3.8117,3.6872,3.5885,3.515,3.4201,3.3408,3.2932,3.2932,3.2506,0.0,0.0,0.0,4.0127,0.0,0.0,0.0,0.0,4.23,0.0,0.0,0.0,0.0,0.0,4.2033,4.2067,4.0734,0.0,0.0,0.0,0.0,0.0,0.0,0.0,0.0,0.0,4.4401,0.0,4.4584,4.4339,4.593,4.5998,4.6007,4.5997,4.5941,4.5893,4.5906,4.5824,4.5765,4.5715,4.5715,4.57,4.57,4.5706,4.5709,4.5693,4.564,4.5568,4.5495,4.5495,4.5457,4.54,4.54,4.54,4.5419,4.5419,4.5419,4.5438,4.54,4.6115,4.6996,4.6731,4.7549,4.8605,4.8532,4.8494,4.8457,4.8344,4.8306,4.8306,4.8306,4.8306,4.8306,4.8306,4.8247,4.8187,4.8187,4.809,4.7992,4.7992,4.7992,4.7597,4.6241,4.5816,4.5328,4.4469,4.365,4.2917,4.2297,4.2216,4.1864,4.0926,4.0802,4.0628,4.0171,3.9986,3.9833,3.9729,3.9119,3.8745,3.8745,3.8035,3.7338,3.6661,3.5806,3.4984,3.438,3.2918,3.2146,3.2146,3.2146,3.1783,0.0,0.0,4.1756,4.0917,0.0,0.0,0.0,0.0,0.0,0.0,0.0,0.0,0.0,0.0,4.2717,4.2118,4.148,0.0,0.0,0.0,0.0,0.0,0.0,0.0,0.0,0.0,0.0,0.0,4.4666,0.0,4.5886,4.5933,4.5898,4.588,4.5847,4.5838,4.5824,4.5781,4.5719,4.5706,4.5706,4.569,4.5637,4.562,4.5622,4.5568,4.5531,4.5495,4.5438,4.5438,4.5419,4.54,4.54,4.538,4.5339,4.5381,4.54,4.536,4.5094,4.583,4.6813,4.6544,4.7344,4.8382,4.8344,4.8363,4.8363,4.8306,4.8306,4.8306,4.8306,4.8286,4.8208,4.8208,4.813,4.809,4.809,4.8032,4.7852,4.7457,4.7414,4.6809,4.4893,4.4494,4.4138,4.3355,4.2572,4.199,4.1743,4.1455,4.1157,4.0849,4.0434,4.0121,3.9986,3.9833,3.954,3.9049,3.8707,3.8374,3.7978,3.7235,3.6492,3.5743,3.4984,3.4066,3.2847,3.2362,3.1882,3.132,3.0934,3.062,4.1094,4.1738,0.0,4.1324,4.1986,0.0,4.1684,0.0,0.0,0.0,0.0,0.0,0.0,0.0,4.3351,4.2535,4.1754,4.0373,0.0,3.7111,0.0,0.0,0.0,0.0,0.0,0.0,4.3726,4.5093,4.4305,4.4389,0.0,4.5867,4.5841,4.5805,4.5781,4.5765,4.577,4.5719,4.5687,4.5657,4.564,4.5622,4.5568,4.555,4.5513,4.5457,4.5457,4.5438,4.54,4.54,4.538,4.5359,4.5359,4.5338,4.5317,4.5341,4.53,4.5132,4.4795,4.5529,4.6607,4.632,4.715,4.8306,4.8286,4.8286,4.8229,4.819,4.819,4.819,4.819,4.8169,4.813,4.813,4.7911,4.7687,4.7687,4.7482,4.7204,4.6799,4.6753,4.607,4.3938,4.3533,4.3261,4.2394,4.1842,4.1437,4.1276,4.0972,4.0659,4.0483,4.007,3.9798,3.9746,3.9451,3.9082,3.8596,3.8035,3.7589,3.7191,3.6197,3.5419,3.4919,3.3998,3.3059,3.2074,3.1476,3.0895,3.0419,2.9614,2.9069]},{"header":{"parameterUnit":"m.s-1","parameterCategory":1,"la1":30.6,"la2":29.2853,"lo1":-89.7004,"lo2":-87.6739,"dy":0.0162,"dx":0.0183,"nx":112,"ny":82,"refTime":"2026-02-25T00:00:00:Z","depth":0,"parameterNumber":3,"parameterNumberName":"V-component_of_WINDS"},"data":[0.0,0.0,0.0,0.0,0.0,0.0,0.0,0.0,0.0,0.0,0.0,0.0,0.0,0.0,0.0,0.0,0.0,0.0,0.0,0.0,0.0,0.0,0.0,0.0,0.0,0.0,0.0,0.0,0.0,0.0,0.0,0.0,0.0,0.0,0.0,0.0,0.0,0.0,0.0,0.0,0.0,0.0,0.0,0.0,0.0,0.0,0.0,0.0,0.0,0.0,0.0,0.0,0.0,0.0,0.0,0.0,0.0,0.0,0.0,0.0,0.0,0.0,0.0,0.0,0.0,0.0,0.0,0.0,0.0,0.0,0.0,0.0,0.0,0.0,0.0,0.0,0.0,0.0,0.0,0.0,0.0,0.0,0.0,0.0,0.0,0.0,0.0,0.0,0.0,0.0,0.0,-0.1273,-0.3011,-0.4539,-0.5442,-0.6291,-0.6837,-0.6709,0.0,0.0,0.0,0.0,0.0,0.0,0.0,0.0,0.0,0.0,0.0,0.0,0.0,0.0,0.0,0.0,0.0,0.0,0.0,0.0,0.0,0.0,0.0,0.0,0.0,0.0,0.0,0.0,0.0,0.0,0.0,0.0,0.0,0.0,0.0,0.0,0.0,0.0,0.0,0.0,0.0,0.0,0.0,0.0,0.0,0.0,0.0,0.0,0.0,0.0,0.0,0.0,0.0,0.0,0.0,0.0,0.0,0.0,0.0,0.0,0.0,0.0,0.0,0.0,0.0,0.0,0.0,0.0,0.0,0.0,0.0,0.0,0.0,0.0,0.0,0.0,0.0,0.0,0.0,0.0,0.0,0.0,0.0,0.0,0.0,0.0,0.0,0.0,0.0,0.0,0.0,0.0,0.0,0.0,0.0,0.0,0.0,0.0,0.0,0.0,0.0,0.0,0.0,0.0,-0.1282,-0.1329,-0.3068,-0.4276,-0.4459,-0.5858,-0.6725,-0.6702,0.0,0.0,0.0,0.0,0.0,0.0,0.0,0.0,0.0,0.0,0.0,0.0,0.0,0.0,0.0,0.0,0.0,0.0,0.0,0.0,0.0,0.0,0.0,0.0,0.0,0.0,0.0,0.0,0.0,0.0,0.0,0.0,0.0,0.0,0.0,0.0,0.0,0.0,0.0,0.0,0.0,0.0,0.0,0.0,0.0,0.0,0.0,0.0,0.0,0.0,0.0,0.0,0.0,0.0,0.0,0.0,0.0,0.0,0.0,0.0,0.0,0.0,0.0,0.0,0.0,0.0,0.0,0.0,0.0,0.0,0.0,0.0,0.0,0.0,0.0,0.0,0.0,0.0,0.0,0.0,0.0,0.0,0.0,0.0,0.0,0.0,0.0,0.0,0.0,0.0,0.0,0.0,0.0,0.0,0.0,0.0,0.0,0.0,0.0,0.0,0.0,0.0,0.0,-0.1277,-0.1317,-0.1261,-0.3114,-0.4242,-0.4285,-0.5818,-0.679,-0.6705,-0.6556,0.0,0.0,0.0,0.0,0.0,0.0,0.0,0.0,0.0,0.0,0.0,0.0,0.0,0.0,0.0,0.0,0.0,0.0,0.0,0.0,0.0,0.0,0.0,0.0,0.0,0.0,0.0,0.0,0.0,0.0,0.0,0.0,0.0,0.0,0.0,0.0,0.0,0.0,0.0,0.0,0.0,0.0,0.0,0.0,0.0,0.0,0.0,0.0,0.0,0.0,0.0,0.0,0.0,0.0,0.0,0.0,0.0,0.0,0.0,0.0,0.0,0.0,0.0,0.0,0.0,0.0,0.0,0.0,0.0,0.0,0.0,0.0,0.0,0.0,0.0,0.0,0.0,0.0,0.0,0.0,0.0,0.0,0.0,0.0,0.0,0.0,0.0,0.0,0.0,0.0,0.0,0.0,0.0,0.0,0.0,0.0,0.0,0.0,0.0,0.0,0.0,0.0,-0.1228,-0.1263,-0.1263,-0.3141,-0.4289,-0.4289,-0.5843,-0.6824,-0.6709,-0.6525,0.0,0.0,0.0,0.0,0.0,0.0,0.0,0.0,0.0,0.0,0.0,0.0,0.0,0.0,0.0,0.0,0.0,0.0,0.0,0.0,0.0,0.0,0.0,0.0,0.0,0.0,0.0,0.0,0.0,0.0,0.0,0.0,0.0,0.0,0.0,0.0,0.0,0.0,0.0,0.0,0.0,0.0,0.0,0.0,0.0,0.0,0.0,0.0,0.0,0.0,0.0,0.0,0.0,0.0,0.0,0.0,0.0,0.0,0.0,0.0,0.0,0.0,0.0,0.0,0.0,0.0,0.0,0.0,0.0,0.0,0.0,0.0,0.0,0.0,0.0,0.0,0.0,0.0,0.0,0.0,0.0,0.0,0.0,0.0,0.0,0.0,0.0,0.0,0.0,0.0,0.0,0.0,0.0,0.0,0.0,0.0,0.0,0.0,0.0,0.0,0.0,0.0,-0.1065,-0.1263,-0.1263,-0.3141,-0.4289,-0.4289,-0.5763,-0.6712,-0.6702,-0.6434,0.0,0.0,0.0,0.0,0.0,0.0,0.0,0.0,0.0,0.0,0.0,0.0,0.0,0.0,0.0,0.0,0.0,0.0,0.0,0.0,0.0,0.0,0.0,0.0,0.0,0.0,0.0,0.0,0.0,0.0,0.0,0.0,0.0,0.0,0.0,0.0,0.0,0.0,0.0,0.0,0.0,0.0,0.0,0.0,0.0,0.0,0.0,0.0,0.0,0.0,0.0,0.0,0.0,0.0,0.0,0.0,0.0,0.0,0.0,0.0,0.0,0.0,0.0,0.0,0.0,0.0,0.0,0.0,0.0,0.0,0.0,0.0,0.0,0.0,0.0,0.0,0.0,0.0,0.0,0.0,0.0,0.0,0.0,0.0,0.0,0.0,0.0,0.0,0.0,0.0,0.0,0.0,0.0,0.0,0.0,0.0,0.0,0.0,0.0,0.0,0.0,0.0,-0.1228,-0.1348,0.0,-0.3141,-0.4289,-0.4289,-0.5829,-0.6803,-0.6705,0.0,0.0,0.0,0.0,0.0,0.0,0.0,0.0,0.0,0.0,0.0,0.0,0.0,0.0,0.0,0.0,0.0,0.0,0.0,0.0,0.0,0.0,0.0,0.0,0.0,0.0,0.0,0.0,0.0,0.0,0.0,0.0,0.0,0.0,0.0,0.0,0.0,0.0,0.0,0.0,0.0,0.0,0.0,0.0,0.0,0.0,0.0,0.0,0.0,0.0,0.0,0.0,0.0,0.0,0.0,0.0,0.0,0.0,0.0,0.0,0.0,0.0,0.0,0.0,0.0,0.0,0.0,0.0,0.0,0.0,0.0,0.0,0.0,0.0,0.0,0.0,0.0,0.0,0.0,0.0,0.0,0.0,0.0,0.0,0.0,0.0,0.0,0.0,0.0,0.0,0.0,0.0,0.0,0.0,0.0,0.0,0.0,0.0,0.0,0.0,0.0,0.0,-0.1254,-0.131,-0.1352,0.0,-0.3154,-0.4277,-0.4251,-0.5812,-0.6773,-0.6573,0.0,0.0,0.0,0.0,0.0,0.0,0.0,0.0,0.0,0.0,0.0,0.0,0.0,0.0,0.0,0.0,0.0,0.0,0.0,0.0,0.0,0.0,0.0,0.0,0.0,0.0,0.0,0.0,0.0,0.0,0.0,0.0,0.0,0.0,0.0,0.0,0.0,0.0,0.0,0.0,0.0,0.0,0.0,0.0,0.0,0.0,0.0,0.0,0.0,0.0,0.0,0.0,0.0,0.0,0.0,0.0,0.0,0.0,0.0,0.0,0.0,0.0,0.0,0.0,0.0,0.0,0.0,0.0,0.0,0.0,0.0,0.0,0.0,0.0,0.0,0.0,0.0,0.0,0.0,0.0,0.0,0.0,0.0,0.0,0.0,0.0,0.0,0.0,0.0,0.0,0.0,0.0,0.0,0.0,0.0,0.0,0.0,0.0,0.0,0.0,0.0,0.0,-0.1254,-0.131,-0.1358,-0.1386,-0.3178,-0.4253,-0.4082,-0.5684,-0.6573,0.0,0.0,0.0,0.0,0.0,0.0,0.0,0.0,0.0,0.0,0.0,0.0,0.0,0.0,0.0,0.0,0.0,0.0,0.0,0.0,0.0,0.0,0.0,0.0,0.0,0.0,0.0,0.0,0.0,0.0,0.0,0.0,0.0,0.0,0.0,0.0,0.0,0.0,0.0,0.0,0.0,0.0,0.0,0.0,0.0,0.0,0.0,0.0,0.0,0.0,0.0,0.0,0.0,0.0,0.0,0.0,0.0,0.0,0.0,0.0,0.0,0.0,0.0,0.0,0.0,0.0,0.0,0.0,0.0,0.0,0.0,0.0,0.0,0.0,0.0,0.0,0.0,0.0,0.0,0.0,0.0,0.0,0.0,0.0,0.0,0.0,0.0,0.0,0.0,0.0,0.0,0.0,0.0,0.0,0.0,0.0,0.0,0.0,0.0,0.0,0.0,0.0,0.0,-0.1251,-0.131,-0.1358,-0.1386,-0.3051,-0.4102,-0.4076,-0.5601,-0.6461,-0.6274,0.0,0.0,0.0,0.0,0.0,0.0,0.0,0.0,0.0,0.0,0.0,0.0,0.0,0.0,0.0,0.0,0.0,0.0,0.0,0.0,0.0,0.0,0.0,0.0,0.0,0.0,0.0,0.0,0.0,0.0,0.0,0.0,0.0,0.0,0.0,0.0,0.0,0.0,0.0,0.0,0.0,0.0,0.0,0.0,0.0,0.0,0.0,0.0,0.0,0.0,0.0,0.0,0.0,0.0,0.0,0.0,0.0,0.0,0.0,0.0,0.0,0.0,0.0,0.0,0.0,0.0,0.0,0.0,0.0,0.0,0.0,0.0,0.0,0.0,0.0,0.0,0.0,0.0,0.0,0.0,0.0,0.0,0.0,0.0,0.0,0.0,0.0,0.0,0.0,0.0,0.0,0.0,0.0,0.0,0.0,0.0,0.0,0.0,0.0,0.0,0.0,0.0,-0.1249,-0.131,-0.1448,-0.1929,-0.3225,-0.4232,-0.4534,-0.5785,-0.6359,-0.6095,0.0,0.0,0.0,0.0,0.0,0.0,0.0,0.0,0.0,0.0,0.0,0.0,0.0,0.0,0.0,0.0,0.0,0.0,0.0,0.0,0.0,0.0,0.0,0.0,0.0,0.0,0.0,0.0,0.0,0.0,0.0,0.0,0.0,0.0,0.0,0.0,0.0,0.0,0.0,0.0,0.0,0.0,0.0,0.0,0.0,0.0,0.0,0.0,0.0,0.0,0.0,0.0,0.0,0.0,0.0,0.0,0.0,0.0,0.0,0.0,0.0,0.0,0.0,0.0,0.0,0.0,0.0,0.0,0.0,0.0,0.0,0.0,0.0,0.0,0.0,0.0,0.0,0.0,0.0,0.0,0.0,0.0,0.0,0.0,0.0,0.0,0.0,0.0,0.0,0.0,0.0,0.0,0.0,0.0,0.0,0.0,0.0,0.0,0.0,0.0,0.0,0.0,-0.1254,-0.1309,-0.1707,-0.2757,-0.3591,-0.4451,-0.5181,-0.6056,-0.6288,-0.585,0.0,0.0,0.0,0.0,0.0,0.0,0.0,0.0,0.0,0.0,0.0,0.0,0.0,0.0,0.0,0.0,0.0,0.0,0.0,0.0,0.0,0.0,0.0,0.0,0.0,0.0,0.0,0.0,0.0,0.0,0.0,0.0,0.0,0.0,0.0,0.0,0.0,0.0,0.0,0.0,0.0,0.0,0.0,0.0,0.0,0.0,0.0,0.0,0.0,0.0,0.0,0.0,0.0,0.0,0.0,0.0,0.0,0.0,0.0,0.0,0.108,0.0,0.0,0.0,0.0,0.0,0.0,0.0,0.0,0.0,0.0,0.0,0.0,0.0,0.0,0.0,0.0,0.0,0.0,0.0,0.0,0.0,0.0,0.0,0.0,0.0,0.0,0.0,0.0,0.0,0.0,0.0,0.0,0.0,0.0,0.0,0.0,0.0,0.0,0.0,0.0,0.0,-0.1202,-0.1304,-0.1667,-0.261,-0.351,-0.4268,-0.4986,-0.5925,-0.6332,-0.6003,-0.604,0.0,0.0,0.0,0.0,0.0,0.0,0.0,0.0,0.0,0.0,0.0,0.0,0.0,0.0,0.0,0.0,0.0,0.0,0.0,0.0,0.0,0.0,0.0,0.0,0.0,0.0,0.0,0.0,0.0,0.0,0.0,0.0,0.0,0.0,0.0,0.0,0.0,0.0,0.0,0.0,0.0,0.0,0.0,0.0,0.0,0.0,0.0,0.0,0.0,0.0,0.0,0.0,0.0,0.0,0.0,0.0,0.0,0.0,0.0,0.0,0.0819,0.0,0.0,0.0,0.0,0.0,0.0,0.0,0.0,0.0,0.0,0.0,0.0,0.0,0.0,0.0,0.0,0.0,0.0,0.0,0.0,0.0,0.0,0.0,0.0,0.0,0.0,0.0,0.0,0.0,0.0,0.0,0.0,0.0,0.0,0.0,0.0,0.0,0.0,0.0,0.0,-0.2579,-0.2275,-0.2478,-0.3879,-0.4413,-0.4919,-0.5767,-0.627,-0.6376,-0.6152,-0.5925,0.0,0.0,0.0,0.0,0.0,0.0,0.0,0.0,0.0,0.0,0.0,0.0,0.0,0.0,0.0,0.0,0.0,0.0,0.0,0.0,0.0,0.0,0.0,0.0,0.0,0.0,0.0,0.0,0.0,0.0,0.0,0.0,0.0,0.0,0.0,0.0,0.0,0.0,0.0,0.0,0.0,0.0,0.0,0.0,0.0,0.0,0.0,0.0,0.0,0.0,0.0,0.0,0.0,0.1162,0.1177,0.1182,0.1182,0.1185,0.1187,0.1137,0.0922,0.0509,0.0354,0.0,0.0,0.0,0.0,0.0,0.0,0.0,0.0,0.0,0.0,0.0,0.0,0.0,0.0,0.0,0.0,0.0,0.0,0.0,0.0,0.0,0.0,0.0,0.0,-0.3191,-0.266,0.0,0.0,0.0,0.0,0.0,0.0,0.0,0.0,0.0,0.0,0.0,0.0,-0.3786,-0.3164,-0.3374,-0.5225,-0.5415,-0.569,-0.6615,-0.661,-0.6478,-0.6308,-0.6037,-0.5817,0.0,0.0,0.0,0.0,0.0,0.0,0.0,0.0,0.0,0.0,0.0,0.0,0.0,0.0,0.0,0.0,0.0,0.0,0.0,0.0,0.0,0.0,0.0,0.0,0.0,0.0,0.0,0.0,0.0,0.0,0.0,0.0,0.5087,0.5087,0.0,0.0,0.0,0.0,0.0,0.0,0.0,0.0,0.0,0.0,0.0,0.0,0.0,0.3935,0.3309,0.26,0.1905,0.12,0.1204,0.1219,0.1323,0.1323,0.126,0.1284,0.1276,0.0,0.1018,0.0496,0.0,0.0,0.0,0.0,0.0,0.0,0.0,0.0,0.0,0.0,0.0,0.0,0.0,0.0,0.0,0.0,0.0,0.0,0.0,0.0,0.0,0.0,-0.3977,-0.1245,-0.1608,-0.212,0.0,-0.1517,-0.237,-0.2378,-0.2371,0.0,0.0,0.0,0.0,0.0,0.0,0.0,-0.2983,-0.2838,-0.3272,-0.5113,-0.5449,-0.5776,-0.6615,-0.6803,-0.6749,-0.6461,-0.6291,-0.6204,-0.6194,-0.7093,0.0,0.0,0.0,0.0,0.0,0.0,0.0,0.0,0.0,0.0,0.0,0.0,0.0,0.0,0.0,0.0,0.0,0.0,0.0,0.0,0.0,0.0,0.0,0.0,0.0,0.0,0.0,0.0,0.0,0.5557,0.5713,0.5163,0.5366,0.5457,0.0,0.0,0.0,0.0,0.0,0.0,0.0,0.0,0.0,0.5705,0.4995,0.4552,0.4375,0.3612,0.2841,0.2047,0.2075,0.1859,0.1308,0.1308,0.1316,0.1328,0.1328,0.1305,0.1265,0.0989,0.0445,-0.0219,0.0,0.0,0.0,0.0,-0.2722,-0.3081,-0.3497,-0.3815,-0.3887,-0.3946,0.0,0.0,0.0,0.0,0.0,0.0,0.0,0.0,0.0,0.0,-0.1818,-0.038,-0.0532,-0.0913,-0.0152,-0.0456,-0.0901,0.0,-0.0941,-0.1155,-0.1799,0.0,0.0,0.0,0.0,0.0,-0.3871,-0.3649,-0.4085,-0.5927,-0.6182,-0.6401,-0.6743,-0.6892,-0.6871,-0.6736,-0.6434,-0.6381,-0.646,-0.7153,-0.7739,0.0,0.0,0.0,0.0,0.0,0.0,0.0,0.0,0.0,0.0,0.0,0.0,0.0,0.0,0.0,0.0,0.0,0.0,0.0,0.0,0.0,0.0,0.0,0.0,0.0,0.0,0.0,0.0,0.5819,0.5927,0.5173,0.5287,0.5391,0.0,0.0,0.0,0.0,0.0,0.0,0.5421,0.5574,0.5728,0.5911,0.5399,0.5107,0.5112,0.4577,0.3867,0.3052,0.2854,0.238,0.1712,0.1456,0.1284,0.1284,0.1284,0.1366,0.1354,0.1294,0.0784,-0.0077,-0.03,-0.0966,-0.186,-0.2157,-0.2718,-0.3401,-0.3853,-0.4274,-0.4504,-0.4453,-0.468,-0.4773,-0.3508,0.0,0.0,0.0,0.0,-0.3222,-0.3224,-0.1627,0.0,0.0,0.0,0.0,0.0,0.0,0.0,0.0,0.0,0.0,0.0,0.0,0.0,0.0,0.0,-0.2397,-0.4081,-0.4201,-0.4821,-0.6433,-0.6716,-0.6902,-0.6976,-0.6983,-0.6966,-0.6929,-0.6695,-0.663,-0.6702,-0.7459,-0.8051,-0.8472,0.0,0.0,0.0,0.0,0.0,0.0,0.0,0.0,0.0,0.0,0.0,0.0,0.0,0.0,0.0,0.0,0.0,0.0,0.0,0.0,0.0,0.0,0.0,0.0,0.0,0.0,0.0,0.0,0.0,0.5106,0.5086,0.0,0.0,0.0,0.0,0.5283,0.5293,0.5424,0.5783,0.5789,0.5928,0.623,0.6237,0.5975,0.5493,0.5419,0.4977,0.4138,0.32,0.2803,0.2769,0.1788,0.1431,0.1431,0.1431,0.1414,0.1383,0.1324,0.1299,0.1133,0.0553,-0.0078,-0.0782,-0.172,-0.2776,-0.3885,-0.4293,-0.4698,-0.4963,-0.5152,-0.5122,-0.4681,-0.3033,-0.1406,0.0,0.0,-0.123,-0.0236,-0.0242,-0.0082,0.0,0.0,0.0,0.0,0.0,0.0,0.0,0.0,0.0,0.0,0.0,0.0,-0.0735,-0.2558,-0.1929,-0.1647,-0.2508,-0.3758,-0.507,-0.6261,-0.6622,-0.6824,-0.7105,-0.7129,-0.7071,-0.6939,-0.7161,-0.7181,-0.7114,-0.8535,-0.9219,-0.9155,-1.0312,0.0,0.0,0.0,0.0,0.0,0.0,0.0,0.0,0.0,0.0,0.0,0.0,0.0,0.0,0.0,0.0,0.0,0.0,0.0,0.0,0.0,0.0,0.0,0.0,0.0,0.0,0.0,0.0,0.5111,0.5154,0.0,0.5167,0.5084,0.5105,0.5222,0.537,0.5545,0.5927,0.6019,0.6234,0.6536,0.6542,0.6476,0.6414,0.6417,0.5966,0.5124,0.4861,0.4084,0.2867,0.2509,0.1973,0.1436,0.1436,0.1429,0.1417,0.1397,0.1109,0.0664,0.0494,-0.0246,-0.1231,-0.1066,-0.1829,-0.2966,-0.3049,-0.416,-0.5091,-0.2651,-0.1872,-0.1684,-0.1034,-0.0473,-0.0079,-0.0645,-0.0408,0.0,0.0,0.0,0.0,0.0,0.0,0.0,0.0,0.0,0.0,0.0,0.0,0.0,0.0,0.0,-0.0229,-0.0909,-0.0928,-0.1255,-0.2344,-0.2953,-0.4085,-0.6347,-0.6276,-0.6319,-0.7034,-0.7139,-0.7119,-0.7068,-0.7235,-0.73,-0.7431,-0.8904,-0.9621,-0.9558,-1.0895,-1.1229,0.0,0.0,0.0,0.0,0.0,0.0,0.0,0.0,0.0,0.0,0.0,0.0,0.0,0.0,0.0,0.0,0.0,0.0,0.0,0.0,0.0,0.0,0.0,0.0,0.0,0.0,0.6051,0.553,0.5805,0.5966,0.5673,0.5584,0.5554,0.5504,0.5587,0.5865,0.6228,0.6327,0.6522,0.677,0.6776,0.6851,0.7,0.7,0.6699,0.6163,0.5808,0.5006,0.3848,0.3224,0.2509,0.1883,0.1524,0.1436,0.1436,0.1436,0.1146,0.0773,0.0773,0.0172,-0.0601,-0.043,-0.0866,-0.1665,-0.1928,-0.3249,-0.4202,-0.1011,0.0,0.0,0.0,0.0,0.0,0.0,0.0,0.0,0.0,0.0,0.0,0.0,0.0,0.0,0.0,0.0,0.0,0.0,0.0,0.0,0.0,0.0,0.0,0.0,-0.0466,-0.1098,-0.1798,-0.2315,-0.3596,-0.5933,-0.5811,-0.6005,-0.6974,-0.7068,-0.7044,-0.708,-0.7243,-0.7498,-0.7931,-0.9303,-1.006,-1.0137,-1.1266,-1.1526,-1.0964,0.0,0.0,0.0,0.0,0.0,0.0,0.0,0.0,0.0,0.0,0.0,0.0,0.0,0.0,0.0,0.0,0.0,0.0,0.0,0.0,0.0,0.0,0.0,0.7014,0.655,0.6233,0.6384,0.6968,0.7159,0.6633,0.6403,0.6239,0.6089,0.6032,0.6235,0.6692,0.6709,0.6776,0.6929,0.6936,0.7,0.7139,0.7139,0.7139,0.7051,0.6163,0.5719,0.563,0.3758,0.2957,0.2867,0.1793,0.1436,0.1436,0.1436,0.1436,0.1436,0.1436,0.1346,0.1256,0.0359,0.0,-0.0089,-0.0984,-0.197,-0.25,-0.0614,0.0,0.0,0.0,0.0,0.0,0.0,0.0,0.0,0.0,0.0,0.0,0.0,0.0,0.0,0.0,0.0,0.0,0.0,0.0,0.0,0.0,0.0,0.0,0.0,-0.0707,0.0,-0.0706,-0.2,-0.3518,-0.4939,-0.5299,-0.5886,-0.6847,-0.6929,-0.6949,-0.704,-0.7285,-0.778,-0.8546,-0.9635,-1.0533,-1.1117,-1.1519,-1.1701,-1.1593,0.0,0.0,0.0,0.0,0.0,0.0,0.0,0.0,0.0,0.0,0.0,0.0,0.0,0.0,0.0,0.0,0.0,0.0,0.0,0.0,0.0,0.0,0.6676,0.701,0.7011,0.7062,0.7277,0.7711,0.7962,0.7983,0.8182,0.807,0.7369,0.7454,0.7304,0.6854,0.6865,0.6932,0.7078,0.7082,0.7102,0.7139,0.7139,0.7139,0.7139,0.6874,0.6343,0.563,0.4469,0.3578,0.2867,0.1793,0.1436,0.1436,0.1436,0.1436,0.1436,0.1436,0.0987,0.0448,0.0897,0.0986,0.0986,0.0717,0.0448,0.0179,0.0089,0.0,0.0,0.0,0.0,0.0,0.0,0.0,0.0,0.0,0.0,0.0,0.0,0.0,0.0,0.0,0.0,0.0,0.0,0.0,0.0,0.0,0.0,0.0,0.0,-0.0707,0.0,-0.1124,-0.1457,-0.272,-0.5127,-0.4913,-0.5221,-0.6896,-0.699,-0.6994,-0.7116,-0.7264,-0.7593,-0.7943,-0.9404,-1.0841,-1.2157,-1.208,-1.1984,0.0,0.0,0.0,0.0,0.0,0.0,0.0,0.0,0.0,0.0,0.0,0.0,0.0,0.0,0.0,0.0,0.0,0.0,0.0,0.0,0.0,0.0,0.7499,0.7581,0.8018,0.8015,0.8004,0.817,0.8859,0.9276,0.9204,0.9489,0.9433,0.8691,0.8363,0.8026,0.7609,0.7191,0.7054,0.7139,0.7139,0.7139,0.7139,0.7139,0.7139,0.7139,0.7139,0.6786,0.6251,0.527,0.438,0.34,0.2419,0.1793,0.1436,0.1436,0.1436,0.0,0.0,0.0,0.0,0.0,0.0897,0.1076,0.1076,0.1257,0.1347,0.0808,0.0359,0.0,0.0,0.0,0.0,0.0,0.0,0.0,0.0,0.0,0.0,0.0,0.0,0.0,0.0,0.0,0.0,0.0,0.0,0.0,0.0,0.0,0.0,0.0,-0.0562,-0.1046,-0.1316,-0.1321,-0.2256,-0.4656,-0.4535,-0.5003,-0.6873,-0.7001,0.0,0.0,0.0,-0.7717,-0.8577,-0.9948,0.0,0.0,0.0,0.0,0.0,0.0,0.0,0.0,-1.3551,-1.3987,0.0,0.0,0.0,0.0,0.0,0.0,0.0,0.0,0.0,0.0,0.0,0.0,0.0,0.0,0.0,0.0,0.7931,0.8638,0.9547,0.9275,0.904,0.9277,1.0326,1.0841,1.04,1.0524,1.0455,0.9902,0.898,0.8455,0.8536,0.0,0.0,0.0,0.0,0.7139,0.7139,0.7139,0.7139,0.7139,0.7139,0.7139,0.7051,0.6163,0.5272,0.4378,0.3312,0.2419,0.1524,0.1436,0.1436,0.1436,0.1345,0.1345,0.1256,0.0359,0.0269,0.0628,0.0628,0.0,0.0,0.1256,0.0718,0.0,0.0,0.0,0.0,0.0,0.0,0.0,0.0,0.0,0.0,0.0,0.0,0.0,0.0,0.0,0.0,0.0,0.0,0.0,0.0,0.0,-0.0,-0.0168,-0.0415,-0.0827,-0.1269,-0.1443,-0.2221,-0.4002,0.0,0.0,-0.6791,-0.6979,-0.7065,-0.7152,-0.7207,-0.8012,-0.9744,-1.0726,-1.1781,-1.2746,-1.3046,-1.3404,-1.3738,-1.3775,-1.4103,-1.4627,-1.3966,-1.4652,0.0,0.0,0.0,0.0,0.0,0.0,0.0,0.0,0.0,0.0,0.0,0.0,0.0,0.0,0.0,0.7199,0.8384,0.9511,1.0094,1.0225,1.0335,1.0506,1.1106,1.1611,1.1817,1.2093,1.1889,1.108,1.0125,0.9278,0.854,0.7577,0.7139,0.7139,0.7139,0.7139,0.7139,0.7139,0.7139,0.7139,0.0,0.0,0.7051,0.6163,0.563,0.5361,0.3669,0.2778,0.2509,0.1704,0.1436,0.1345,0.0987,0.1076,0.1256,0.0359,0.009,0.018,0.018,0.018,0.0269,0.0269,0.018,0.0,0.0,0.0,0.0,0.0,0.0,0.0,0.0,0.0,0.0,0.0,0.0,0.0,0.0,0.0,0.0,0.0,0.0,0.0,0.0,0.0,-0.0253,-0.1011,-0.0937,-0.0953,-0.1414,-0.2126,-0.3032,-0.418,-0.4952,-0.5977,-0.7285,-0.7314,-0.7319,-0.7569,-0.7505,-0.794,-0.915,-0.997,-1.0944,-1.215,-1.2826,-1.3216,-1.3175,-1.3591,-1.3841,-1.3847,-1.4909,-1.5825,0.0,0.0,0.0,0.0,0.0,0.0,0.0,0.0,0.0,0.0,0.0,0.458,0.4776,0.0,0.7411,0.7947,0.8995,0.9916,1.0396,1.0643,1.088,1.1123,1.1501,1.1951,1.2331,1.2541,1.2534,1.2015,1.1144,1.0188,0.9235,0.8277,0.758,0.7139,0.7139,0.7139,0.7139,0.7139,0.7139,0.7139,0.7139,0.7139,0.7051,0.6609,0.6163,0.563,0.4202,0.3312,0.2778,0.1793,0.1436,0.1346,0.1166,0.0897,0.0628,0.018,0.0,0.0,0.0,0.0,0.0,0.0,0.0,0.0,0.0,0.0,0.0,0.0,0.0,0.0,0.0,0.0,0.0,0.0,0.0,0.0,0.0,0.0,0.0,0.0,0.0,-0.018,-0.0728,-0.0807,-0.0972,-0.1414,-0.1238,-0.1251,-0.1475,-0.2381,-0.3389,-0.439,-0.5235,-0.6256,-0.7527,-0.7578,-0.7674,-0.7744,-0.772,-0.8039,-0.8927,-0.9895,-1.087,-1.2003,-1.29,-1.3411,-1.3528,-1.4011,-1.424,-1.4449,-1.5753,-1.6605,0.0,0.0,0.0,0.0,0.0,0.0,0.0,0.0,0.4039,0.4039,0.4344,0.4839,0.544,0.6491,0.7594,0.8703,0.9499,1.0159,1.0638,1.0864,1.1166,1.1383,1.1807,1.214,1.2431,1.2619,1.2705,1.2705,1.1843,1.0885,0.9923,0.8973,0.8105,0.7139,0.7139,0.7139,0.7139,0.7139,0.7139,0.7139,0.7139,0.7139,0.7139,0.7139,0.6605,0.563,0.4559,0.3578,0.2509,0.1704,0.1436,0.1436,0.1436,0.0808,0.0,0.0,0.0,0.0,0.0,0.0,0.0,0.0,0.0,0.0,0.0,0.0,0.0,0.0,0.0,0.0,0.0,0.0,0.0,0.0,0.0,0.0,0.0,0.0,0.0,0.0,-0.0182,-0.0548,-0.1485,-0.1582,-0.1582,-0.1582,-0.1474,-0.148,-0.1624,-0.2643,-0.3755,-0.4579,-0.5624,-0.6746,-0.7731,-0.8002,-0.7954,-0.7886,-0.7914,-0.8199,-0.8842,-0.996,-1.1022,-1.1938,-1.3058,-1.3829,-1.4256,-1.4605,-1.4901,-1.5292,-1.6312,-1.7015,0.4466,0.4374,0.0,0.4281,0.4278,0.4278,0.0,0.0,0.4409,0.4409,0.5148,0.5755,0.5823,0.7186,0.8425,0.8803,0.9638,1.0417,1.088,1.1133,1.1399,1.1884,1.1997,1.2174,1.2619,1.2705,1.2705,1.2705,1.1843,1.0885,0.9923,0.8973,0.8105,0.7139,0.7139,0.7139,0.7139,0.7139,0.7139,0.7139,0.7139,0.7139,0.7139,0.7139,0.6605,0.563,0.4117,0.2689,0.1524,0.1436,0.1436,0.1436,0.1438,0.0809,0.0,0.0,0.0,0.0,0.0,0.0,0.0,0.0,0.0,0.0,0.0,0.0,0.0,0.0,0.0,0.0,0.0,0.0,0.0,0.0,0.0,0.0,0.0,0.0,0.0,0.0,-0.0758,-0.1423,-0.1616,-0.1616,-0.1616,-0.1616,-0.1541,-0.1558,-0.1566,-0.3217,-0.4572,-0.4869,-0.6602,-0.7977,-0.8386,-0.8472,-0.845,-0.8243,-0.8334,-0.8401,-0.8436,-1.0135,-1.1224,-1.1621,-1.3367,-1.4351,-1.4719,-1.5158,-1.5335,-1.5419,-1.6382,-1.6892,0.4496,0.0,0.0,0.0,0.4349,0.4398,0.4398,0.449,0.4649,0.4649,0.5391,0.6145,0.666,0.7851,0.9048,0.0,1.0375,1.0816,1.1149,1.1283,1.1437,1.173,1.1861,1.2209,1.2619,1.2705,1.2705,1.2705,1.2357,1.1752,1.0799,0.984,0.8886,0.7929,0.7404,0.7139,0.7139,0.7139,0.7139,0.7139,0.7139,0.7139,0.7139,0.7139,0.6248,0.4825,0.376,0.242,0.0987,0.1256,0.1077,0.0629,0.0629,0.036,0.0,0.0,0.0,0.0,0.0,0.0,0.0,0.0,0.0,0.0,0.0,0.0,0.0,0.0,0.0,0.0,0.0,0.0,0.0,0.0,0.0,0.0,0.0,-0.0466,-0.0843,-0.0937,-0.1031,-0.1227,-0.1547,-0.1553,-0.1559,-0.1577,-0.1575,-0.1578,-0.1596,-0.3584,-0.5541,-0.694,-0.7945,-0.8608,-0.8621,-0.8822,-0.8886,-0.8785,-0.8877,-0.8923,-0.9154,-1.0869,-1.1869,-1.1974,-1.388,-1.4884,-1.4995,-1.542,-1.5756,-1.5929,-1.6757,-1.7166,0.4455,0.0,0.0,0.4346,0.4433,0.452,0.452,0.4616,0.4776,0.5064,0.5828,0.6749,0.7505,0.8565,0.0,1.0423,1.0778,1.0999,1.1225,1.1295,1.1352,1.1583,1.1752,1.2108,1.2505,1.2662,1.2705,1.2705,1.2705,1.2186,1.0977,1.0274,0.9318,0.8193,0.7489,0.7139,0.7139,0.7139,0.7139,0.7139,0.7139,0.7139,0.7051,0.6697,0.5714,0.42,0.3224,0.1883,0.0538,0.0897,0.0629,0.0,0.0,0.0,0.0,0.0,0.0,0.0,0.0,0.0,0.0,0.0,0.0,0.0,0.0,0.0,0.0,0.0,0.0,0.0,0.0,0.0,0.0,0.0,0.0,-0.0093,-0.037,-0.0929,-0.14,-0.1493,-0.1213,-0.113,-0.1551,-0.1566,-0.1579,-0.1601,-0.1692,-0.1692,-0.1715,-0.3927,-0.6297,-0.8571,-0.9046,-0.9068,-0.8891,-0.9161,-0.9274,-0.9271,-0.9393,-0.9459,-0.9703,-1.1428,-1.232,-1.2306,-1.4346,-1.542,-1.5426,-1.5903,-1.6269,-1.6517,-1.7268,-1.7635,0.0,0.0,0.4463,0.4463,0.4626,0.472,0.472,0.4741,0.5052,0.5861,0.6802,0.7685,0.8537,0.9311,1.0007,1.0557,1.0643,1.081,1.1198,1.1313,1.1405,1.156,1.1607,1.1804,0.0,1.2554,1.2705,1.2705,1.2705,1.1918,1.0009,0.9923,0.9052,0.7228,0.7139,0.7139,0.7139,0.7139,0.7139,0.7139,0.7139,0.7139,0.7051,0.5811,0.4919,0.4198,0.2329,0.0898,0.0,0.0,0.0,0.0,0.0,0.0,0.0,0.0,0.0,0.0,0.0,0.0,0.0,0.0,0.0,0.0,0.0,0.0,0.0,0.0,0.0,0.0,0.0,0.0,0.0,0.0,0.0,-0.0278,-0.1203,-0.141,-0.143,-0.143,-0.143,-0.1525,-0.1527,-0.1552,-0.1572,-0.1573,-0.1797,-0.202,-0.2022,-0.4329,-0.6828,-0.8928,-0.9422,-0.9547,-0.9364,-0.9631,-0.9651,-0.9469,-0.9748,-0.9821,-0.9611,-1.127,-1.2389,-1.2706,-1.4596,-1.5809,-1.6363,-1.6542,-1.6886,-1.7375,-1.7789,-1.8201,0.0,0.0,0.4662,0.4662,0.4683,0.4773,0.4773,0.4941,0.5331,0.6013,0.7208,0.8347,0.9053,0.9969,1.0737,1.1062,1.0947,1.0982,1.1219,1.1278,1.1275,1.1356,1.1626,0.0,0.0,0.0,0.0,1.2693,1.21,1.1494,1.0885,0.9671,0.8715,0.8017,0.7404,0.7139,0.7139,0.7139,0.7139,0.7139,0.7139,0.7054,0.6881,0.5808,0.5097,0.4476,0.1969,0.0896,0.0898,0.0269,0.0,0.0,0.0,0.0,0.0,0.0,0.0,0.0,0.0,0.0,0.0,0.0,0.0,0.0,0.0,0.0,0.0,0.0,0.0,0.0,0.0,0.0,-0.018,-0.0808,-0.0902,-0.0906,-0.0906,-0.1185,-0.138,-0.1492,-0.1496,-0.1502,-0.1523,-0.1534,-0.1645,-0.1862,-0.1897,-0.2624,-0.4429,-0.5429,-0.6895,-0.9069,-0.9445,-0.9468,-0.9382,-0.9464,-0.9622,-0.993,-1.0053,-1.0255,-1.0724,-1.1893,-1.2913,-1.3512,-1.505,-1.6012,-1.6394,-1.6894,-1.7229,-1.7392,-1.8129,-1.8612,0.0,0.4624,0.4716,0.4716,0.4809,0.4898,0.4898,0.5112,0.5547,0.6542,0.7631,0.8654,0.9591,1.0266,1.0806,1.1215,1.1106,1.1061,1.1391,1.1288,1.126,1.1356,1.1458,0.0,0.0,0.0,0.0,1.2687,1.1841,1.1239,1.0804,0.9389,0.8428,0.8017,0.7404,0.7139,0.7139,0.7139,0.7051,0.6966,0.6966,0.6877,0.6612,0.5991,0.5549,0.5109,0.1879,0.0627,0.0897,0.0269,0.0,0.0,0.0,0.0,0.0,0.0,0.0,0.0,0.0,0.0,0.0,0.0,0.0,0.0,0.0,0.0,0.0,0.0,0.0,-0.009,-0.0449,-0.0539,-0.0628,-0.1077,-0.1256,-0.1345,-0.0987,-0.1173,-0.1457,-0.1477,-0.1489,-0.1503,-0.1523,-0.1622,-0.1819,-0.2134,-0.2552,-0.3572,-0.572,-0.5996,-0.6926,-0.9172,-0.9395,-0.9403,-0.938,-0.9558,-0.9833,-1.0204,-1.0412,-1.074,-1.1192,-1.2187,-1.3121,-1.3991,-1.5106,-1.6027,-1.673,-1.7229,-1.7563,-1.7887,-1.8531,-1.8922,0.4701,0.4754,0.4852,0.4852,0.4936,0.5018,0.5023,0.5251,0.5857,0.7456,0.8008,0.8703,0.0,0.0,1.0494,1.1221,1.1139,1.115,1.1632,1.13,1.1159,0.0,0.0,0.0,0.0,0.0,0.0,1.2705,0.0,1.104,0.9937,0.9233,0.8274,0.7146,0.7139,0.7139,0.7139,0.7051,0.6966,0.6795,0.6795,0.6612,0.6343,0.6269,0.6189,0.5919,0.197,0.0179,0.0,0.0,0.0,0.0,0.0,0.0,0.0,0.0,0.0,0.0,0.0,0.0,0.0,0.0,0.0,0.0,0.0,0.0,-0.0,-0.0093,-0.0092,-0.0271,-0.1174,-0.1353,-0.1262,-0.0811,-0.1081,-0.144,-0.144,-0.1463,-0.1483,-0.1483,-0.1506,-0.1526,-0.1526,-0.1717,-0.2098,-0.2576,-0.3523,-0.4624,-0.5887,-0.6116,-0.7115,-0.9148,-0.9382,-0.9368,-0.9452,-0.9912,-1.0186,-1.0265,-1.0719,-1.0969,-1.1059,-1.2059,-1.3124,-1.4048,-1.4887,-1.6064,-1.7392,-1.7473,-1.7878,-1.87,-1.8922,-1.924,0.4779,0.4939,0.5097,0.5097,0.5132,0.5271,0.5365,0.609,0.693,0.7846,0.8966,1.002,0.0,0.0,0.0,1.1501,1.1222,0.0,1.1391,1.1332,0.0,0.0,0.0,1.1891,1.2236,1.2681,0.0,0.0,1.2181,1.1123,0.9932,0.9237,0.8364,0.7146,0.7139,0.7139,0.7139,0.6966,0.6881,0.6795,0.6612,0.6346,0.6171,0.6174,0.6005,0.5746,0.4663,0.2598,0.0,0.0,0.0,0.0,0.0,0.0,0.0,0.0,0.0,0.0,0.0,0.0,0.0,0.0,0.0,0.0,0.0,0.0,-0.019,-0.106,-0.135,-0.1253,-0.1076,-0.1262,-0.1441,-0.1344,-0.1424,-0.1503,-0.1503,-0.1509,-0.1515,-0.1515,-0.1616,-0.1812,-0.1812,-0.2192,-0.2585,-0.272,-0.3791,-0.4945,-0.5976,-0.6709,-0.7638,-0.9067,-0.9401,-0.9503,-0.9457,-0.9808,-1.0097,-1.0465,-1.0665,-1.0983,-1.1679,-1.2049,-1.2954,-1.4475,-1.5061,-1.6064,-1.7392,-1.8049,-1.8451,-1.87,-1.925,-1.9557,0.4974,0.5124,0.5254,0.52,0.5214,0.5263,0.5333,0.588,0.6549,0.7238,0.8471,0.0,0.0,0.0,0.0,0.0,0.0,0.0,1.1402,1.1343,1.1346,0.0,1.1764,0.0,1.2163,1.2707,1.3033,0.0,1.2237,1.1382,1.0171,0.9367,0.8446,0.7146,0.7139,0.7051,0.6966,0.67,0.6612,0.6526,0.6346,0.6169,0.5908,0.5908,0.5822,0.5741,0.0,0.4506,0.2453,0.0735,0.0,0.0,0.0,0.0,0.0,0.0,0.0,0.0,0.0,0.0,0.0,0.0,0.0,-0.0098,-0.0587,-0.0681,-0.0774,-0.1273,-0.1562,-0.1653,-0.1278,-0.1369,-0.1551,-0.1551,-0.1538,-0.1526,-0.1526,-0.1536,-0.155,-0.1661,-0.1957,-0.2146,-0.2225,-0.251,-0.2801,-0.2905,-0.4253,-0.548,-0.5986,-0.7067,-0.8251,-0.93,-0.9605,-0.9793,-0.9775,-1.0313,-1.0714,-1.0944,-1.1196,-1.1663,-1.2192,-1.225,-1.3118,-1.4977,-1.5228,-1.6221,-1.7968,-1.8451,-1.8772,-1.9002,-1.9478,-1.9784,0.5178,0.5301,0.5368,0.526,0.5303,0.5292,0.5292,0.5436,0.5724,0.6395,0.0,0.0,0.9221,0.0,1.0875,1.1244,0.0,1.1444,1.1585,1.142,1.1365,1.1671,1.1674,1.1803,1.2066,1.2668,1.2922,1.2506,1.2439,1.1806,1.0542,0.9784,0.8619,0.7149,0.7051,0.6966,0.6795,0.6523,0.6254,0.6083,0.6083,0.5908,0.5733,0.5733,0.5733,0.5735,0.5757,0.5825,0.5734,0.2226,0.047,0.0,0.0,0.0,0.0,0.0,0.0,0.0,0.0,0.0,0.0,0.0,-0.0101,-0.0404,-0.1314,-0.1598,-0.148,-0.1087,-0.1271,-0.1642,-0.1645,-0.1644,-0.1641,-0.1544,-0.1541,-0.1538,-0.1538,-0.1656,-0.1783,-0.2015,-0.2221,-0.251,-0.2665,-0.2757,-0.2839,-0.308,-0.4882,-0.6214,-0.6214,-0.7429,-0.8749,-0.9731,-1.0063,-1.0245,-1.0334,-1.0983,-1.1441,-1.1594,-1.2125,-1.246,-1.2549,-1.273,-1.3606,-1.5209,-1.5376,-1.6343,-1.8371,-1.8575,-1.8807,-1.9213,-1.9696,-1.9942,0.5303,0.5426,0.5515,0.5494,0.5664,0.5835,0.5673,0.638,0.0,0.0,0.0,0.8461,0.9367,0.9954,0.0,1.1106,0.0,0.0,0.0,0.0,1.1391,0.0,0.0,0.0,0.0,0.0,0.0,0.0,0.0,1.2461,1.1163,1.0461,0.9208,0.7146,0.6966,0.6792,0.6795,0.6349,0.6171,0.6083,0.5908,0.5733,0.5733,0.5733,0.5733,0.5738,0.5836,0.0,0.5934,0.5363,0.3108,0.0,0.0,0.0,0.0,0.0,0.0,0.0,0.0,0.0,0.0,0.0,-0.0606,-0.1314,-0.1516,-0.1613,-0.1614,-0.1537,-0.1643,-0.1747,-0.1667,-0.1656,-0.1639,-0.1639,-0.162,-0.1601,-0.1901,-0.2106,-0.2312,-0.232,-0.2523,-0.2722,-0.2813,-0.3013,-0.3111,-0.32,-0.5176,-0.6651,-0.6651,-0.8232,-0.9382,-0.9719,-1.0187,-1.0645,-1.1104,-1.1402,-1.189,-1.2517,-1.2649,-1.2898,-1.3266,-1.3358,-1.3735,-1.4609,-1.519,-1.5819,-1.655,-1.7821,-1.846,-1.847,-1.945,-2.002,0.5431,0.5553,0.5616,0.5488,0.558,0.5684,0.5454,0.0,0.0,0.0,0.0,0.754,0.8376,0.0,0.0,0.0,0.0,0.0,0.0,0.0,0.0,0.0,0.0,0.0,0.0,0.0,0.0,0.0,0.0,1.2573,1.1514,1.0112,0.8895,0.7845,0.7051,0.6612,0.6612,0.6083,0.5908,0.5908,0.5733,0.5733,0.5733,0.5733,0.5765,0.5825,0.588,0.0,0.6205,0.623,0.5029,0.3183,0.2107,0.1008,0.0,0.0,0.0,0.0,0.0,-0.0404,-0.0808,-0.0808,-0.1212,-0.1617,-0.1617,-0.1617,-0.162,-0.1635,-0.1639,-0.1641,-0.1655,-0.1649,-0.1639,-0.1639,-0.1729,-0.192,-0.2121,-0.2423,-0.2623,-0.2623,-0.2826,-0.3027,-0.3027,-0.313,-0.3331,-0.3531,-0.5425,-0.6915,-0.722,-0.8972,-1.0171,-1.0356,-1.066,-1.1052,-1.1621,-1.2016,-1.2549,-1.3091,-1.3327,-1.3534,-1.3909,-1.3736,-1.4205,-1.5251,-1.55,-1.6117,-1.6908,-1.7754,-1.8423,-1.8911,-1.9679,-2.0342,0.5564,0.5678,0.5719,0.5502,0.5513,0.5457,0.5252,0.5135,0.0,0.0,0.0,0.0,0.0,0.0,0.0,0.0,0.0,0.0,0.0,0.0,0.0,0.0,0.0,0.0,0.0,0.0,0.0,0.0,0.0,0.0,1.1626,0.9939,0.8803,0.8452,0.7221,0.6517,0.6343,0.5908,0.5733,0.5733,0.5733,0.5733,0.5735,0.576,0.5833,0.5945,0.5996,0.0,0.0,0.6342,0.6297,0.6261,0.4537,0.2821,0.131,0.0302,0.0,-0.0,-0.0303,-0.0909,-0.1617,-0.1617,-0.1617,-0.1617,-0.1617,-0.1617,-0.1617,-0.1617,-0.1617,-0.1617,-0.1617,-0.1617,-0.1617,-0.1718,-0.192,-0.2121,-0.2422,-0.2724,-0.2927,-0.2927,-0.3029,-0.323,-0.3331,-0.3331,-0.3531,-0.4133,-0.5627,-0.7021,-0.7627,-0.9414,-1.0708,-1.0998,-1.1292,-1.1585,-1.2175,-1.2662,-1.3152,-1.3636,-1.3915,-1.409,-1.4372,-1.421,-1.4592,-1.5735,-1.5735,-1.6226,-1.7129,-1.7572,-1.8175,-1.8956,-1.9486,-2.0334,0.5714,0.5801,0.5858,0.573,0.5787,0.5755,0.5463,0.0,0.0,0.0,0.5093,0.5705,0.746,0.0,0.0,0.0,0.0,0.0,0.0,0.0,0.0,0.0,0.0,0.0,0.0,0.0,0.0,0.0,0.0,0.0,1.1071,1.0656,0.9758,0.8269,0.7661,0.6962,0.6171,0.5819,0.5733,0.5733,0.5733,0.5733,0.5735,0.5841,0.5953,0.6081,0.6295,0.0,0.0,0.6545,0.6537,0.6364,0.616,0.5962,0.5356,0.1411,0.0,-0.0101,-0.1111,-0.1516,-0.1617,-0.1617,-0.1617,-0.1617,-0.1617,-0.1617,-0.1617,-0.1617,-0.1617,-0.1617,-0.1617,-0.1617,-0.1617,-0.1921,-0.2121,-0.2422,-0.2724,-0.2927,-0.313,-0.313,-0.323,-0.3331,-0.3833,-0.3932,-0.4133,-0.4634,-0.5932,-0.7126,-0.7822,-0.9221,-1.0511,-1.178,-1.1878,-1.2175,-1.2667,-1.3152,-1.3636,-1.4202,-1.4274,-1.4358,-1.4651,-1.4584,-1.4711,-1.5061,-1.5344,-1.5484,-1.5466,-1.6652,-1.7265,-1.7549,-1.8354,-1.9392,0.5798,0.5923,0.5966,0.5779,0.564,0.5582,0.5303,0.0,0.0,0.5026,0.5018,0.5553,0.731,0.7675,0.0,0.0,0.0,0.0,0.0,0.0,0.0,0.0,0.0,0.0,0.0,0.0,0.0,0.0,0.0,0.0,1.0661,1.0024,0.9497,0.8794,0.7397,0.6435,0.6083,0.5822,0.5733,0.5733,0.5733,0.5733,0.5738,0.585,0.5969,0.6094,0.6263,0.0,0.0,0.6491,0.6483,0.6448,0.6448,0.6356,0.6163,0.4437,0.2014,-0.0504,-0.1009,-0.1313,-0.1617,-0.1617,-0.1617,-0.1617,-0.1617,-0.1617,-0.1617,-0.1617,-0.1617,-0.1617,-0.1617,-0.1718,-0.192,-0.2222,-0.2423,-0.2725,-0.3027,-0.313,-0.323,-0.323,-0.3432,-0.3732,-0.3932,-0.4234,-0.4634,-0.5236,-0.6132,-0.7229,-0.8322,-0.9608,-1.089,-1.1878,-1.198,-1.237,-1.3152,-1.3346,-1.3727,-1.4298,-1.449,-1.4688,-1.4885,-1.5063,-1.5282,-1.5464,-1.5564,-1.5691,-1.5855,-1.6529,-1.7154,-1.8014,-1.8465,-1.9271,0.5847,0.5966,0.5991,0.5825,0.5665,0.5496,0.0,0.0,0.5067,0.5067,0.5067,0.5532,0.7231,0.7586,0.8335,0.0,0.0,0.0,0.0,0.0,0.0,0.0,0.0,0.0,0.0,0.0,0.0,0.0,0.0,0.0,1.0226,0.9152,0.8623,0.8711,0.7224,0.626,0.5997,0.5822,0.5749,0.5784,0.582,0.5855,0.5896,0.601,0.6127,0.6249,0.6333,0.0,0.0,0.6488,0.6469,0.6437,0.6437,0.6445,0.6356,0.5851,0.3527,0.0403,-0.0706,-0.1312,-0.1617,-0.1617,-0.1617,-0.1617,-0.1617,-0.1617,-0.1617,-0.1617,-0.1617,-0.1718,-0.1718,-0.192,-0.2222,-0.2422,-0.2623,-0.2826,-0.313,-0.3331,-0.343,-0.343,-0.3833,-0.4332,-0.4433,-0.4834,-0.5236,-0.5734,-0.6434,-0.7332,-0.8821,-0.9899,-1.1077,-1.2268,-1.2467,-1.2759,-1.3443,-1.3636,-1.3919,-1.4298,-1.4592,-1.479,-1.5083,-1.5356,-1.5635,-1.5832,-1.5927,-1.6028,-1.6312,-1.6595,-1.7145,-1.8064,-1.8241,-1.888,0.5871,0.5904,0.5904,0.5901,0.5725,0.5518,0.0,0.5273,0.5184,0.5184,0.5184,0.5663,0.7331,0.7789,0.8565,1.0303,0.0,0.0,0.0,0.0,0.0,0.0,0.0,0.0,0.0,0.0,0.0,0.0,0.0,0.0,0.9965,0.8105,0.7224,0.7489,0.7224,0.6612,0.5733,0.5733,0.579,0.5904,0.6024,0.6146,0.6268,0.638,0.6499,0.6613,0.0,0.0,0.0,0.6619,0.6545,0.6437,0.6437,0.6437,0.6237,0.4433,0.383,0.3225,-0.0303,-0.1617,-0.1617,-0.1617,-0.1617,-0.1617,-0.1617,-0.1617,-0.1617,-0.1617,-0.1819,-0.2022,-0.2022,-0.2222,-0.2422,-0.2725,-0.2826,-0.2826,-0.313,-0.3632,-0.4033,-0.4033,-0.4435,-0.4935,-0.5534,-0.5634,-0.5737,-0.6337,-0.6639,-0.7434,-0.9312,-0.9801,-1.0881,-1.3244,-1.3443,-1.3443,-1.3539,-1.4016,-1.4298,-1.4298,-1.4592,-1.479,-1.5083,-1.5356,-1.5635,-1.5832,-1.6028,-1.6312,-1.6588,-1.6878,-1.7066,-1.7326,-1.7326,-1.7878,0.585,0.5964,0.6007,0.5923,0.5787,0.5621,0.5415,0.5339,0.5287,0.5203,0.5252,0.5882,0.7585,0.7955,0.8734,1.0968,0.0,0.0,0.0,0.0,0.0,0.0,0.0,0.0,0.0,0.0,0.0,0.0,0.0,0.0,0.8999,0.7753,0.7139,0.7228,0.6523,0.5997,0.5733,0.5812,0.5909,0.6029,0.6151,0.623,0.6274,0.6385,0.6415,0.0,0.0,0.0,0.0,0.6494,0.6472,0.6437,0.6437,0.6437,0.6337,0.5536,0.4228,0.2619,0.1309,-0.0202,-0.1617,-0.1617,-0.1617,-0.1617,-0.1617,-0.1617,-0.1617,-0.1819,-0.1921,-0.2021,-0.2221,-0.2423,-0.2724,-0.2826,-0.2927,-0.323,-0.3632,-0.3831,-0.4133,-0.4433,-0.4935,-0.5434,-0.5534,-0.5934,-0.6234,-0.6337,-0.6639,-0.7434,-0.9312,-1.0194,-1.1272,-1.3244,-1.3823,-1.401,-1.401,-1.4202,-1.4394,-1.4592,-1.479,-1.5077,-1.5356,-1.5547,-1.573,-1.5832,-1.6028,-1.6312,-1.6588,-1.6878,-1.7066,-1.7326,-1.7326,-1.7613,0.0,0.5926,0.5945,0.5912,0.5817,0.5681,0.5483,0.5436,0.5417,0.5339,0.5385,0.5936,0.7764,0.8238,0.9008,1.116,0.0,0.0,0.0,0.0,0.0,0.0,0.0,0.0,0.0,0.0,0.0,0.0,0.0,0.0,0.8755,0.7486,0.6769,0.6769,0.6091,0.5798,0.5798,0.5958,0.61,0.6219,0.6391,0.6494,0.654,0.6562,0.6537,0.0,0.0,0.0,0.0,0.6437,0.6437,0.6437,0.6337,0.6239,0.6139,0.5336,0.4128,0.2718,0.1611,0.0302,-0.1111,-0.1515,-0.1718,-0.1718,-0.1718,-0.1718,-0.1819,-0.2121,-0.2222,-0.2323,-0.2522,-0.2725,-0.2927,-0.2927,-0.3229,-0.3632,-0.3932,-0.4334,-0.4734,-0.5035,-0.5536,-0.5934,-0.5934,-0.6137,-0.6437,-0.6539,-0.6739,-0.7537,-0.9213,-1.0293,-1.1565,-1.3039,-1.3817,-1.4298,-1.4298,-1.4394,-1.449,-1.4688,-1.5077,-1.5363,-1.5445,-1.5737,-1.5832,-1.5927,-1.6218,-1.6501,-1.6777,-1.6972,-1.7153,-1.7326,-1.7326,-1.7426,0.0,0.5814,0.576,0.5866,0.5812,0.57,0.5491,0.547,0.0,0.5464,0.5472,0.6076,0.7862,0.8599,0.9443,1.1147,0.0,0.0,0.0,0.0,0.0,0.0,0.0,0.0,0.0,0.0,0.0,0.0,0.0,0.0,0.9076,0.7302,0.6181,0.6086,0.5983,0.5926,0.5915,0.6159,0.6336,0.645,0.6698,0.6869,0.697,0.6855,0.6793,0.0,0.0,0.6437,0.0,0.6437,0.6437,0.6337,0.6142,0.5942,0.5741,0.4232,0.3629,0.3225,0.0907,0.0101,-0.0202,-0.1313,-0.1819,-0.2022,-0.2021,-0.2021,-0.2122,-0.2322,-0.2623,-0.2826,-0.2826,-0.3029,-0.323,-0.323,-0.3632,-0.4033,-0.4133,-0.4935,-0.5636,-0.5634,-0.6034,-0.6437,-0.6437,-0.6437,-0.6539,-0.6742,-0.7042,-0.7733,-0.9015,-1.0391,-1.156,-1.263,-1.3709,-1.4298,-1.4298,-1.4592,-1.4694,-1.4688,-1.5166,-1.554,-1.554,-1.573,-1.5927,-1.6224,-1.6494,-1.6784,-1.6979,-1.7239,-1.7326,-1.7326,-1.7326,-1.7426,0.576,0.0,0.5741,0.5765,0.5754,0.57,0.0,0.5537,0.5665,0.0,0.0,0.0,0.0,0.0,0.0,0.0,0.0,0.0,0.0,0.0,0.0,0.0,0.0,0.0,0.0,0.0,0.0,0.0,0.0,1.0166,0.9177,0.7959,0.6929,0.6086,0.6149,0.6138,0.6043,0.6279,0.6458,0.6581,0.6825,0.6907,0.6844,0.6815,0.67,0.0,0.0,0.6437,0.6437,0.6437,0.6237,0.6042,0.6042,0.5839,0.5636,0.5037,0.4334,0.3325,0.1814,0.0706,-0.0202,-0.1515,-0.1921,-0.2122,-0.2524,-0.2423,-0.2322,-0.2623,-0.2725,-0.2826,-0.3029,-0.343,-0.3831,-0.3831,-0.4234,-0.4734,-0.5135,-0.5434,-0.5734,-0.6134,-0.6337,-0.6437,-0.6642,-0.6742,-0.6842,-0.7039,-0.7341,-0.7939,-0.9019,-1.0391,-1.156,-1.263,-1.3806,-1.4592,-1.4592,-1.4688,-1.479,-1.4987,-1.5356,-1.554,-1.5737,-1.5737,-1.5927,-1.6224,-1.6697,-1.6972,-1.7239,-1.7239,-1.7326,-1.7326,-1.7326,-1.752,0.5733,0.5733,0.5733,0.5733,0.5733,0.5716,0.5648,0.0,0.0,0.0,0.0,0.0,0.0,0.0,0.0,0.0,0.0,0.0,0.0,0.0,0.0,0.0,0.0,0.0,0.0,0.0,0.0,0.0,0.0,1.0482,0.9415,0.8361,0.7305,0.6246,0.6309,0.629,0.617,0.6404,0.6554,0.6622,0.6812,0.6866,0.6801,0.6744,0.6676,0.0,0.0,0.642,0.6321,0.6321,0.6088,0.5839,0.5641,0.5541,0.5338,0.5138,0.4634,0.3929,0.2218,0.0504,-0.1009,-0.1718,-0.2122,-0.2424,-0.2725,-0.2826,-0.2826,-0.2927,-0.3027,-0.3027,-0.343,-0.3732,-0.4033,-0.4334,-0.4734,-0.5233,-0.5536,-0.5837,-0.6034,-0.6337,-0.6537,-0.6639,-0.6742,-0.6942,-0.7042,-0.7341,-0.7543,-0.7842,-0.8528,-0.9706,-1.0877,-1.2047,-1.3221,-1.4196,-1.479,-1.4975,-1.5166,-1.5267,-1.5547,-1.5737,-1.5832,-1.5832,-1.6021,-1.6407,-1.6871,-1.7153,-1.7326,-1.7326,-1.7326,-1.7326,-1.7326,-1.7613,0.5908,0.5908,0.5911,0.5733,0.5822,0.5908,0.5733,0.0,0.0,0.0,0.0,0.0,0.0,0.0,0.0,0.0,0.0,0.0,0.0,0.0,0.0,0.0,0.0,0.0,0.0,0.0,0.0,0.0,0.0,1.0702,0.9698,0.8715,0.7726,0.6437,0.6437,0.6391,0.6295,0.651,0.6619,0.6622,0.6744,0.6793,0.6771,0.6668,0.6676,0.6768,0.0,0.0,0.6238,0.6117,0.595,0.556,0.5345,0.514,0.514,0.4834,0.4834,0.4531,0.2317,-0.0,-0.2021,-0.2122,-0.2424,-0.2826,-0.2826,-0.3027,-0.323,-0.3331,-0.3331,-0.343,-0.3831,-0.4133,-0.4334,-0.4834,-0.5334,-0.5734,-0.5734,-0.6137,-0.6437,-0.6437,-0.6639,-0.6842,-0.6945,-0.7141,-0.7341,-0.7646,-0.7643,-0.7743,-0.8038,-0.9019,-1.0096,-1.1272,-1.2344,-1.3511,-1.479,-1.5166,-1.535,-1.554,-1.573,-1.5832,-1.5832,-1.5927,-1.6116,-1.6683,-1.7052,-1.7326,-1.7326,-1.7326,-1.7326,-1.7326,-1.7333,-1.7613,0.67,0.6877,0.67,0.5911,0.626,0.67,0.5911,0.0,0.0,0.0,0.0,0.0,0.0,0.0,0.0,0.0,0.0,0.0,0.0,0.0,0.0,0.0,0.0,0.0,0.0,0.0,0.0,0.0,0.0,1.1643,0.9702,0.941,0.8418,0.6437,0.6437,0.6429,0.6412,0.6548,0.6619,0.6622,0.6744,0.6747,0.6646,0.6627,0.663,0.6646,0.0,0.6269,0.635,0.6041,0.5686,0.546,0.5273,0.5037,0.4834,0.4834,0.4834,0.4431,0.2113,-0.0302,-0.2423,-0.2624,-0.2725,-0.2826,-0.3029,-0.313,-0.3331,-0.3732,-0.3833,-0.3932,-0.3932,-0.4634,-0.5336,-0.5436,-0.5934,-0.6237,-0.6237,-0.6539,-0.6742,-0.6742,-0.6939,-0.7241,-0.7447,-0.7547,-0.7643,-0.7939,-0.7942,-0.8038,-0.8333,-0.9312,-1.01,-1.0502,-1.1668,-1.2829,-1.4004,-1.4292,-1.4873,-1.573,-1.5737,-1.5927,-1.613,-1.64,-1.6588,-1.6885,-1.7145,-1.7326,-1.7326,-1.7326,-1.7326,-1.7333,-1.7527,-1.7807,0.6737,0.7017,0.7037,0.7207,0.758,0.7577,0.67,0.0,0.0,0.0,0.0,0.0,0.0,0.0,0.0,0.0,0.0,0.0,0.0,0.0,0.0,0.0,0.0,0.0,0.0,0.0,0.0,0.0,0.0,0.0,0.9706,0.9608,0.8616,0.6437,0.6437,0.6437,0.6437,0.6491,0.6521,0.6521,0.6578,0.6575,0.6521,0.6321,0.6392,0.6513,0.0,0.6049,0.6036,0.5774,0.5479,0.5175,0.5131,0.4981,0.4734,0.4433,0.3525,0.2215,0.1107,-0.0705,-0.2623,-0.2725,-0.2927,-0.3128,-0.3531,-0.3632,-0.3732,-0.4232,-0.4234,-0.4133,-0.4734,-0.5236,-0.5634,-0.5934,-0.6337,-0.6639,-0.6639,-0.6839,-0.7042,-0.7042,-0.7241,-0.7444,-0.7547,-0.7743,-0.7842,-0.7939,-0.8137,-0.8233,-0.8432,-0.892,-0.9706,-1.0498,-1.1175,-1.2242,-1.4004,-1.4202,-1.4777,-1.573,-1.5933,-1.6028,-1.6224,-1.6595,-1.6878,-1.6979,-1.7246,-1.7326,-1.7326,-1.7326,-1.7326,-1.7333,-1.7621,-1.7815,0.7097,0.7454,0.7889,0.8935,0.0,0.864,0.7712,0.0,0.0,0.0,0.0,0.0,0.0,0.0,0.0,0.0,0.0,0.0,0.0,0.0,0.0,0.0,0.0,0.0,0.0,0.0,0.0,0.0,0.0,0.0,0.9706,0.9608,0.8616,0.6437,0.6437,0.6437,0.6437,0.6437,0.6437,0.6437,0.6437,0.6337,0.6339,0.6142,0.605,0.624,0.5948,0.5801,0.5673,0.5567,0.536,0.5002,0.4979,0.4814,0.4533,0.4033,0.242,0.0605,0.0403,-0.1008,-0.2623,-0.2826,-0.3128,-0.3432,-0.3833,-0.4133,-0.4334,-0.4834,-0.4734,-0.4533,-0.5436,-0.5737,-0.5934,-0.6337,-0.6642,-0.6845,-0.6842,-0.7141,-0.7338,-0.7338,-0.7543,-0.7646,-0.7646,-0.7942,-0.8137,-0.8137,-0.8333,-0.8531,-0.8535,-0.873,-0.932,-1.0395,-1.0493,-1.1468,-1.3806,-1.4292,-1.4867,-1.592,-1.6123,-1.6224,-1.6414,-1.6791,-1.6979,-1.7066,-1.7239,-1.7326,-1.7326,-1.7333,-1.7426,-1.7426,-1.7721,-1.8001,0.8127,0.8914,0.9677,1.0854,0.0,0.0,0.8926,0.0,0.0,0.0,0.0,0.0,0.0,0.0,0.0,0.0,0.0,0.0,0.0,0.0,0.0,0.0,0.0,0.0,0.0,0.0,0.0,0.0,0.0,0.0,0.9706,0.9608,0.8616,0.6437,0.6437,0.6437,0.6437,0.6437,0.6437,0.6437,0.6437,0.6237,0.6042,0.6042,0.5906,0.5813,0.56,0.5589,0.5673,0.5352,0.5188,0.509,0.5006,0.461,0.4033,0.3432,0.2321,0.1008,0.0302,-0.0907,-0.2219,-0.2927,-0.3531,-0.3932,-0.4033,-0.4334,-0.4834,-0.5436,-0.5534,-0.5534,-0.5534,-0.5934,-0.6437,-0.6742,-0.6745,-0.6842,-0.7138,-0.7341,-0.7547,-0.7547,-0.7743,-0.7942,-0.7942,-0.8237,-0.8333,-0.8333,-0.8627,-0.8829,-0.9133,-0.9133,-0.9331,-0.9624,-0.9723,-1.06,-1.3028,-1.4082,-1.5235,-1.6487,-1.6312,-1.6414,-1.6885,-1.6979,-1.7066,-1.7239,-1.7326,-1.7326,-1.7326,-1.7527,-1.7628,-1.7721,-1.8195,-1.8481,0.86,0.9142,0.9727,1.0805,0.0,0.0,0.0,0.0,0.0,0.0,0.0,0.0,0.0,0.0,0.0,0.0,0.0,0.0,0.0,0.0,0.0,0.0,0.0,0.0,0.0,0.0,0.0,0.0,0.0,0.0,0.8715,0.8616,0.7922,0.6437,0.6437,0.6437,0.6437,0.6239,0.6139,0.6139,0.6139,0.6142,0.5942,0.5641,0.5496,0.5491,0.5322,0.5214,0.5347,0.5181,0.4925,0.4567,0.4022,0.3552,0.3026,0.2825,0.1513,-0.0101,-0.0403,-0.1713,-0.3327,-0.3632,-0.4033,-0.4533,-0.4935,-0.5135,-0.5434,-0.5937,-0.6239,-0.6339,-0.6339,-0.6539,-0.6742,-0.6942,-0.7144,-0.7344,-0.7444,-0.7643,-0.7842,-0.7842,-0.8038,-0.8237,-0.8237,-0.8432,-0.8627,-0.8627,-0.8832,-0.9133,-0.9236,-0.9331,-0.9529,-0.9628,-1.089,-1.2155,-1.3022,-1.4848,-1.6197,-1.6784,-1.6791,-1.6791,-1.6979,-1.716,-1.7239,-1.7326,-1.7434,-1.7527,-1.7527,-1.7807,-1.7908,-1.7994,-1.8288,-1.8481,0.9105,0.9548,1.0125,0.0,0.0,0.0,0.0,0.0,0.0,0.0,0.0,0.0,0.0,0.0,0.0,0.0,0.0,0.0,0.0,0.0,0.0,0.0,0.0,0.0,0.0,0.0,0.0,0.0,0.0,0.0,0.0,0.8021,0.7528,0.6434,0.6337,0.6237,0.6237,0.6039,0.5839,0.5839,0.5741,0.5741,0.5741,0.534,0.5177,0.5239,0.5062,0.5043,0.5157,0.491,0.4563,0.3896,0.3268,0.2725,0.2422,0.222,0.1211,-0.0101,-0.0806,-0.2116,-0.363,-0.4133,-0.4634,-0.5135,-0.5534,-0.5737,-0.6037,-0.6437,-0.6739,-0.6942,-0.7045,-0.6945,-0.7042,-0.7241,-0.7444,-0.7646,-0.7743,-0.7942,-0.8137,-0.8137,-0.8333,-0.8531,-0.8531,-0.873,-0.8928,-0.8928,-0.913,-0.9335,-0.9335,-0.9529,-0.9628,-0.9727,-1.1282,-1.2538,-1.3312,-1.4848,-1.6096,-1.7066,-1.7066,-1.7066,-1.7066,-1.7239,-1.7333,-1.7426,-1.7628,-1.7721,-1.7815,-1.8094,-1.8187,-1.8187,-1.8473,-1.8566,0.9563,1.0297,0.0,0.0,0.0,0.0,0.0,0.0,0.0,0.0,0.0,0.0,0.0,0.0,0.0,0.0,0.0,0.0,0.0,0.0,0.0,0.0,0.0,0.0,0.0,0.0,0.0,0.0,0.0,0.0,0.0,0.8021,0.7528,0.6434,0.6139,0.6042,0.6042,0.5737,0.5634,0.5634,0.5338,0.524,0.524,0.524,0.5037,0.4841,0.493,0.4971,0.4979,0.4439,0.3898,0.3308,0.2641,0.2422,0.2321,0.1818,0.1617,0.1313,-0.0906,-0.2116,-0.2925,-0.4332,-0.5133,-0.5636,-0.5636,-0.6139,-0.6845,-0.6845,-0.7042,-0.7241,-0.7543,-0.7444,-0.7241,-0.7543,-0.7646,-0.7646,-0.7939,-0.8237,-0.8432,-0.8432,-0.863,-0.8825,-0.8825,-0.9031,-0.9236,-0.9236,-0.943,-0.9628,-0.9628,-0.9628,-0.9727,-1.0019,-1.0216,-1.1375,-1.368,-1.3878,-1.493,-1.7138,-1.7326,-1.7326,-1.7326,-1.7326,-1.7426,-1.7721,-1.7729,-1.7815,-1.8087,-1.8381,-1.8481,-1.8481,-1.8743,-1.8827,1.0113,0.0,0.0,0.0,0.0,0.0,0.0,0.0,0.0,0.0,0.0,0.0,0.0,0.0,0.0,0.0,0.0,0.0,0.0,0.0,0.0,0.0,0.0,0.0,0.0,0.0,0.0,0.0,0.0,0.0,0.0,0.6736,0.6439,0.6139,0.5839,0.5737,0.5737,0.5438,0.5338,0.5338,0.5037,0.5037,0.524,0.5037,0.4834,0.4736,0.4459,0.43,0.4355,0.3442,0.2895,0.2643,0.2023,0.1818,0.1818,0.1617,0.1111,0.0303,-0.1109,-0.2922,-0.4636,-0.5236,-0.5837,-0.6442,-0.6442,-0.6739,-0.7039,-0.7039,-0.7406,-0.7661,-0.7572,-0.7821,-0.7971,-0.7869,-0.7842,-0.7939,-0.8233,-0.8333,-0.8432,-0.8627,-0.8928,-0.9034,-0.9034,-0.9331,-0.9529,-0.9529,-0.9529,-0.9628,-0.9826,-1.0019,-1.0216,-1.0314,-1.1184,-1.2339,-1.3782,-1.474,-1.5792,-1.7232,-1.7326,-1.7326,-1.7326,-1.752,-1.7628,-1.7721,-1.8102,-1.8288,-1.8381,-1.8566,-1.8743,-1.8743,-1.8735,-1.8827,1.0579,0.0,0.0,0.0,0.0,0.0,0.0,0.0,0.0,0.0,0.0,0.0,0.0,0.0,0.0,0.0,0.0,0.0,0.0,0.0,0.0,0.0,0.0,0.0,0.0,0.0,0.0,0.0,0.0,0.0,0.0,0.6042,0.5942,0.5839,0.5539,0.5438,0.5438,0.5138,0.5037,0.5037,0.4834,0.4734,0.4738,0.4535,0.4433,0.4433,0.3932,0.3655,0.3384,0.277,0.2345,0.2019,0.1717,0.1617,0.1617,0.1617,0.0505,-0.1009,-0.1411,-0.3525,-0.605,-0.6042,-0.6439,-0.6942,-0.6942,-0.7141,-0.7341,-0.7341,-0.7601,-0.7965,-0.8039,-0.8153,-0.8355,-0.8161,-0.8137,-0.8233,-0.8528,-0.863,-0.8733,-0.8931,-0.913,-0.9331,-0.9331,-0.9529,-0.9628,-0.9723,-0.9826,-1.0019,-1.0117,-1.0413,-1.0609,-1.0609,-1.138,-1.2247,-1.3301,-1.4166,-1.5222,-1.6756,-1.6857,-1.7044,-1.7613,-1.7714,-1.7815,-1.8009,-1.8295,-1.8574,-1.8658,-1.8743,-1.8827,-1.8827,-1.8827,-1.892,0.0,0.0,0.0,0.0,0.0,0.0,0.0,0.0,0.0,0.0,0.0,0.0,0.0,0.0,0.0,0.0,0.0,0.0,0.0,0.0,0.0,0.0,0.0,0.0,0.0,0.0,0.0,0.0,0.0,0.0,0.0,0.5942,0.5839,0.5536,0.5338,0.514,0.514,0.4937,0.4734,0.4734,0.4734,0.4433,0.3932,0.3932,0.3932,0.3831,0.333,0.2826,0.2321,0.2321,0.2019,0.1617,0.1617,0.1617,0.1516,0.1617,0.0101,-0.2017,-0.2115,-0.4228,-0.6962,-0.6848,-0.7042,-0.7238,-0.7238,-0.745,-0.7666,-0.7666,-0.7882,-0.823,-0.8663,-0.8585,-0.8471,-0.8457,-0.8443,-0.8528,-0.8825,-0.9031,-0.9236,-0.9236,-0.943,-0.9628,-0.9628,-0.9628,-0.9727,-1.0019,-1.0216,-1.0413,-1.0413,-1.0703,-1.0801,-1.0801,-1.1096,-1.1678,-1.2635,-1.2823,-1.3884,-1.6096,-1.6379,-1.6943,-1.8087,-1.7908,-1.8009,-1.8481,-1.8481,-1.8658,-1.8827,-1.8827,-1.8827,-1.8827,-1.8827,-1.9188,0.0,0.0,0.0,0.0,0.0,0.0,0.0,0.0,0.0,0.0,0.0,0.0,0.0,0.0,0.0,0.0,0.0,0.0,0.0,0.0,0.0,0.0,0.0,0.0,0.0,0.0,0.0,0.0,0.0,0.0,0.5737,0.5438,0.534,0.524,0.5037,0.4935,0.4935,0.4834,0.4634,0.4133,0.4133,0.3932,0.3432,0.3831,0.353,0.2724,0.2623,0.2221,0.1818,0.1818,0.1718,0.1617,0.1617,0.1314,0.101,0.1415,0.1212,0.0101,-0.4437,-0.6467,-0.7175,-0.7147,-0.7341,-0.7543,-0.7543,-0.7824,-0.8221,-0.8421,-0.8695,-0.8969,-0.9197,-0.9146,-0.9083,-0.9255,-0.9022,-0.8829,-0.9031,-0.9133,-0.9232,-0.943,-0.9727,-0.992,-0.992,-1.0117,-1.0216,-1.0314,-1.0507,-1.0703,-1.0703,-1.0998,-1.1096,-1.1096,-1.1194,-1.1775,-1.3221,-1.3884,-1.4937,-1.6756,-1.7326,-1.79,-1.8381,-1.8388,-1.8388,-1.8481,-1.8658,-1.8743,-1.8827,-1.8827,-1.9004,-1.9463,-1.9463,-1.9646,0.0,0.0,0.0,0.0,0.0,0.0,0.0,0.0,0.0,0.0,0.0,0.0,0.0,0.0,0.0,0.0,0.0,0.0,0.0,0.0,0.0,0.0,0.0,0.0,0.0,0.0,0.0,0.0,0.0,0.6234,0.5438,0.524,0.514,0.5037,0.4834,0.4634,0.4435,0.4435,0.4133,0.3632,0.3632,0.333,0.2826,0.3127,0.2825,0.2019,0.2019,0.1818,0.1617,0.1617,0.1415,0.1212,0.1516,0.1415,0.1111,0.0303,0.0202,-0.0202,-0.474,-0.6458,-0.6753,-0.7244,-0.7543,-0.7842,-0.7939,-0.8247,-0.8575,-0.8776,-0.9053,-0.9349,-0.9655,-0.9594,-0.9619,-0.9836,-0.9412,-0.9031,-0.9331,-0.943,-0.943,-0.9727,-0.992,-1.0019,-1.0216,-1.0413,-1.0605,-1.0605,-1.0806,-1.0998,-1.0998,-1.1096,-1.1296,-1.1585,-1.1585,-1.1975,-1.3039,-1.3522,-1.4472,-1.6278,-1.6749,-1.7512,-1.8566,-1.8651,-1.8651,-1.8651,-1.8743,-1.892,-1.9188,-1.9188,-1.9463,-1.992,-1.992,-2.0192,0.0,0.0,0.0,0.0,0.0,0.0,0.0,0.0,0.0,0.0,0.0,0.0,0.0,0.0,0.0,0.0,0.0,0.0,0.0,0.0,0.0,0.0,0.0,0.0,0.0,0.0,0.0,0.0,0.0,0.5436,0.514,0.514,0.4939,0.4634,0.4634,0.4435,0.3833,0.3833,0.3632,0.3029,0.2928,0.2725,0.222,0.222,0.2019,0.1617,0.1617,0.1516,0.1516,0.1516,0.1314,0.0909,0.101,0.101,0.0808,-0.0808,-0.1211,-0.1411,-0.4433,-0.5739,-0.6132,-0.7341,-0.7842,-0.8144,-0.8464,-0.869,-0.8823,-0.9153,-0.9387,-0.9655,-1.0,-1.002,-1.0003,-1.0314,-0.9859,-0.9514,-0.9677,-0.9747,-0.9834,-1.0061,-1.0143,-1.0216,-1.0511,-1.0703,-1.09,-1.09,-1.11,-1.1194,-1.1292,-1.1296,-1.1585,-1.2078,-1.2175,-1.237,-1.2861,-1.305,-1.3902,-1.5805,-1.6082,-1.6929,-1.8735,-1.892,-1.892,-1.892,-1.892,-1.9188,-1.9637,-1.9646,-1.992,-2.0374,-2.0374,-2.0645,0.0,0.0,0.0,0.0,0.0,0.0,0.0,0.0,0.0,0.0,0.0,0.0,0.0,0.0,0.0,0.0,0.0,0.0,0.0,0.0,0.0,0.0,0.0,0.0,0.0,0.0,0.0,0.0,0.5737,0.5138,0.4834,0.4834,0.4636,0.4133,0.4133,0.3833,0.3331,0.3331,0.3027,0.2522,0.202,0.1819,0.1718,0.1718,0.1718,0.1617,0.1617,0.1314,0.0909,0.1415,0.1516,0.1314,-0.0505,-0.1212,-0.1111,-0.101,-0.1111,-0.1918,-0.4834,-0.5839,-0.6139,-0.7736,-0.8333,-0.8457,-0.8899,-0.9061,-0.9324,-0.9777,-1.005,-1.0304,-1.0542,-1.0638,-1.072,-1.0826,-1.0762,-1.066,-1.0289,-1.0228,-1.0367,-1.0536,-1.0631,-1.0806,-1.1096,-1.1096,-1.1194,-1.1194,-1.1198,-1.1389,-1.178,-1.1883,-1.2078,-1.2662,-1.2667,-1.2861,-1.3346,-1.4004,-1.5045,-1.6386,-1.7131,-1.7878,-1.8735,-1.9279,-1.9455,-1.9455,-1.9455,-1.9554,-1.9637,-2.0019,-2.0464,-2.0907,-2.0907,-2.1186,0.0,0.0,0.0,0.0,0.0,0.0,0.0,0.0,0.0,0.0,0.0,0.0,0.0,0.0,0.0,0.0,0.0,0.0,0.0,0.0,0.0,0.0,0.0,0.0,0.0,0.0,0.0,0.0,0.5236,0.4836,0.4332,0.4334,0.4133,0.3531,0.3531,0.333,0.2725,0.2725,0.2523,0.1919,0.1718,0.1415,0.1212,0.1415,0.1415,0.1212,0.1516,0.1111,0.0303,-0.0,-0.0,0.0202,-0.0808,-0.1314,-0.1617,-0.1314,-0.1415,-0.202,-0.463,-0.5534,-0.5844,-0.8029,-0.8765,-0.8899,-0.9373,-0.9541,-0.9792,-1.0083,-1.0446,-1.0802,-1.0911,-1.1071,-1.1311,-1.11,-1.1221,-1.1344,-1.115,-1.0874,-1.0729,-1.0914,-1.1038,-1.1241,-1.1217,-1.1194,-1.1292,-1.1585,-1.1688,-1.1883,-1.237,-1.2467,-1.2662,-1.3152,-1.3152,-1.3443,-1.3919,-1.4292,-1.5051,-1.6487,-1.7124,-1.8056,-1.9188,-1.9737,-2.0011,-2.0011,-2.0011,-2.0102,-2.0365,-2.0546,-2.0916,-2.1365,-2.1365,-2.1802,0.0,0.0,0.0,0.0,0.0,0.0,0.0,0.0,0.0,0.0,0.0,0.0,0.0,0.0,0.0,0.0,0.0,0.0,0.0,0.0,0.0,0.0,0.0,0.0,0.0,0.0,0.0,0.0,0.4433,0.4234,0.3831,0.3833,0.3531,0.3027,0.3027,0.2725,0.2221,0.2221,0.2019,0.1617,0.1617,0.1415,0.101,0.0808,0.0606,0.0202,0.0606,0.0404,-0.0303,-0.1212,-0.1314,-0.101,-0.101,-0.1212,-0.1617,-0.1718,-0.1718,-0.2021,-0.4552,-0.5365,-0.5787,-0.8466,-0.9244,-0.9377,-0.9863,-1.011,-1.0325,-1.0592,-1.0916,-1.1236,-1.1236,-1.1455,-1.1642,-1.15,-1.1684,-1.1866,-1.1764,-1.1449,-1.1304,-1.1162,-1.1313,-1.1449,-1.1428,-1.1389,-1.1585,-1.2078,-1.2175,-1.237,-1.2958,-1.2958,-1.3152,-1.363,-1.3727,-1.3919,-1.4394,-1.4394,-1.5153,-1.6763,-1.7217,-1.8141,-1.9729,-2.0192,-2.0464,-2.0464,-2.0564,-2.0736,-2.0997,-2.1087,-2.1365,-2.1741,-2.1741,-2.2422,0.0,0.0,0.0,0.0,0.0,0.0,0.0,0.0,0.0,0.0,0.0,0.0,0.0,0.0,0.0,0.0,0.0,0.0,0.0,0.0,0.0,0.0,0.0,0.0,0.0,0.0,0.0,0.0,0.3531,0.323,0.323,0.323,0.3027,0.2422,0.2422,0.2221,0.1617,0.1617,0.1617,0.1617,0.1617,0.1617,0.1516,-0.0505,-0.1415,-0.1516,-0.1415,-0.1212,-0.0808,-0.1415,-0.1617,-0.1516,-0.1516,-0.1617,-0.1617,-0.1921,-0.2022,-0.2329,-0.4926,-0.588,-0.6308,-0.8942,-0.9735,-0.9871,-1.058,-1.0856,-1.0898,-1.1394,-1.1564,-1.1568,-1.1568,-1.1787,-1.2001,-1.1991,-1.2205,-1.221,-1.1921,-1.1882,-1.1897,-1.1595,-1.1515,-1.1649,-1.1918,-1.198,-1.2175,-1.2667,-1.2764,-1.2958,-1.3443,-1.3443,-1.363,-1.4202,-1.4298,-1.4394,-1.4688,-1.4694,-1.5534,-1.7505,-1.7692,-1.8434,-2.0201,-2.0727,-2.0997,-2.0997,-2.1365,-2.1454,-2.0997,-2.1463,-2.1651,-2.1741,-2.1919,-2.2511,0.0,0.0,0.0,0.0,0.0,0.0,0.0,0.0,0.0,0.0,0.0,0.0,0.0,0.0,0.0,0.0,0.0,0.0,0.0,0.0,0.0,0.0,0.0,0.0,0.0,0.0,0.0,0.0,0.0,0.3029,0.2724,0.2724,0.2423,0.1919,0.1918,0.1616,0.1111,0.1111,0.1212,0.1617,0.0909,0.0202,-0.0505,-0.0909,-0.1313,-0.1617,-0.1617,-0.1516,-0.1314,-0.1516,-0.1718,-0.1819,-0.1819,-0.1919,-0.212,-0.2221,-0.2238,-0.2673,-0.5255,-0.6135,-0.6738,-0.9531,-1.0551,-1.0584,-1.1194,-1.1363,-1.1372,-1.1551,-1.1678,-1.1896,-1.1896,-1.2114,-1.2223,-1.2223,-1.2659,-1.2945,-1.2787,-1.2817,-1.2787,-1.2486,-1.2739,-1.2936,-1.2752,-1.2787,-1.2833,-1.3175,-1.3249,-1.3443,-1.3919,-1.4016,-1.4106,-1.4298,-1.449,-1.4592,-1.4688,-1.4885,-1.5452,-1.6662,-1.7669,-1.8596,-1.972,-2.0826,-2.1463,-2.1463,-2.1642,-2.1642,-2.1463,-2.1642,-2.183,-2.1919,-2.2097,-2.3028,1.0338,0.0,0.0,0.0,0.0,0.0,0.0,0.0,0.0,0.0,0.0,0.0,0.0,0.0,0.0,0.0,0.0,0.0,0.0,0.0,0.0,0.0,0.0,0.0,0.0,0.0,0.0,0.0,0.0,0.0,0.212,0.2119,0.1918,0.1314,0.1516,0.1212,0.0505,0.0202,0.0303,0.0808,0.0101,-0.0707,-0.1617,-0.1415,-0.1415,-0.1819,-0.1818,-0.1818,-0.1718,-0.1718,-0.192,-0.2122,-0.2122,-0.2221,-0.2422,-0.2522,-0.2552,-0.3009,-0.541,-0.6427,-0.718,-0.9808,-1.0845,-1.1194,-1.1638,-1.1678,-1.1787,-1.1787,-1.2005,-1.2114,-1.2114,-1.2441,-1.2767,-1.298,-1.3305,-1.3635,-1.3635,-1.3635,-1.3567,-1.3334,-1.3614,-1.3805,-1.3601,-1.3534,-1.3651,-1.39,-1.3866,-1.4025,-1.431,-1.4394,-1.4394,-1.4394,-1.4688,-1.4885,-1.4975,-1.5172,-1.573,-1.7023,-1.8033,-1.9055,-2.0175,-2.1186,-2.1741,-2.183,-2.183,-2.183,-2.1909,-2.183,-2.2087,-2.2696,-2.2775,-2.3963,0.0,0.0,0.0,0.0,0.0,0.0,0.0,0.0,0.0,0.0,0.0,0.0,0.0,0.0,0.0,0.0,0.0,0.0,0.0,0.0,0.0,0.0,0.0,0.0,0.0,0.0,0.0,0.0,0.1918,0.1617,0.1617,0.1617,0.1314,0.0808,0.1313,0.101,-0.0,-0.1111,-0.1314,-0.0808,-0.0808,-0.1111,-0.1617,-0.2022,-0.2224,-0.2224,-0.2322,-0.2322,-0.2021,-0.2022,-0.2121,-0.2422,-0.2422,-0.2422,-0.2522,-0.2725,-0.286,-0.3226,-0.5385,-0.6757,-0.7846,-0.9643,-1.0802,-1.1678,-1.1896,-1.2005,-1.2114,-1.2327,-1.2436,-1.2436,-1.2441,-1.2876,-1.3418,-1.4062,-1.4169,-1.4164,-1.4164,-1.4277,-1.4212,-1.3984,-1.3941,-1.4074,-1.4333,-1.4293,-1.441,-1.4664,-1.4721,-1.4618,-1.4346,-1.4598,-1.4694,-1.4694,-1.4987,-1.5172,-1.5445,-1.554,-1.6473,-1.8603,-1.8788,-1.9621,-2.1553,-2.1651,-2.183,-2.2097,-2.2097,-2.2185,-2.2432,-2.2185,-2.2696,-2.38,-2.4049,-2.5231,0.7675,0.0,0.0,0.0,0.0,0.0,0.0,0.0,0.0,0.0,0.0,0.0,0.0,0.0,0.0,0.0,0.0,0.0,0.0,0.0,0.0,0.0,0.0,0.0,0.0,0.0,0.0,0.0,0.1718,0.1617,0.1617,0.0909,0.0404,0.0202,-0.0,-0.0303,-0.0606,-0.1212,-0.1516,-0.1415,-0.1718,-0.1921,-0.2022,-0.2222,-0.2322,-0.2322,-0.2823,-0.3025,-0.3127,-0.2522,-0.2423,-0.2724,-0.2724,-0.3026,-0.353,-0.363,-0.4013,-0.4652,-0.6147,-0.735,-0.8523,-1.001,-1.1126,-1.1896,-1.2223,-1.2332,-1.2441,-1.2881,-1.3098,-1.3202,-1.363,-1.3846,-1.3954,-1.4169,-1.4498,-1.4821,-1.4821,-1.5137,-1.5334,-1.4843,-1.5039,-1.5276,-1.5225,-1.5178,-1.5191,-1.5224,-1.5121,-1.5072,-1.5187,-1.5107,-1.4987,-1.4987,-1.5261,-1.5452,-1.5445,-1.5635,-1.6015,-1.6567,-1.7956,-1.9155,-1.9786,-2.1266,-2.2097,-2.2353,-2.2353,-2.2441,-2.2715,-2.2441,-2.2618,-2.3135,-2.4648,-2.5997,0.6707,0.6931,0.0,0.0,0.0,0.0,0.0,0.8521,0.0,0.0,0.0,0.0,0.0,0.0,0.0,0.0,0.0,0.0,0.0,0.0,0.0,0.0,0.0,0.0,0.0,0.1617,0.1516,0.1313,0.1313,0.1212,0.0909,0.0101,-0.0404,-0.0707,-0.101,-0.1111,-0.1111,-0.1617,-0.1819,-0.1819,-0.2122,-0.2323,-0.2323,-0.2523,-0.2723,-0.2924,-0.3327,-0.3728,-0.4029,-0.3627,-0.3528,-0.363,-0.363,-0.393,-0.4334,-0.4334,-0.4642,-0.5214,-0.6162,-0.7588,-0.9237,-1.0351,-1.1669,-1.298,-1.3088,-1.3197,-1.3197,-1.3527,-1.3635,-1.3851,-1.4385,-1.4493,-1.4606,-1.4815,-1.5137,-1.5357,-1.547,-1.5785,-1.5998,-1.5577,-1.5791,-1.6056,-1.6002,-1.5971,-1.5983,-1.5806,-1.5639,-1.5419,-1.5509,-1.5345,-1.5267,-1.5267,-1.5452,-1.5642,-1.5737,-1.5927,-1.6393,-1.7311,-1.8419,-1.9521,-2.0413,-2.1624,-2.2353,-2.253,-2.253,-2.2706,-2.2882,-2.2706,-2.3038,-2.4059,-2.5997,-2.7255,0.6207,0.6288,0.0,0.0,0.0,0.0,0.6813,0.6933,0.0,0.0,0.0,0.0,0.0,0.0,0.0,0.0,0.0,0.0,0.0,0.0,0.0,0.0,0.0,0.0,0.1617,0.1617,0.1415,0.0909,0.0707,0.0303,-0.0202,-0.0606,-0.1111,-0.1617,-0.1617,-0.1617,-0.1718,-0.2021,-0.2123,-0.2021,-0.2423,-0.2521,-0.2522,-0.2825,-0.3328,-0.3729,-0.4031,-0.4433,-0.4935,-0.4935,-0.4935,-0.4834,-0.4834,-0.4834,-0.4935,-0.4935,-0.5054,-0.5426,-0.5955,-0.7699,-0.9892,-1.0558,-1.22,-1.4062,-1.4169,-1.4169,-1.4169,-1.4277,-1.4385,-1.4493,-1.4928,-1.5143,-1.525,-1.5785,-1.5998,-1.6105,-1.6324,-1.6324,-1.6324,-1.643,-1.6324,-1.6424,-1.6624,-1.673,-1.6647,-1.6406,-1.6107,-1.5821,-1.5671,-1.5551,-1.554,-1.554,-1.573,-1.5927,-1.6218,-1.6312,-1.7232,-1.9255,-1.953,-2.0439,-2.2255,-2.2344,-2.253,-2.2803,-2.2803,-2.2969,-2.3222,-2.3057,-2.3983,-2.5819,-2.758,-2.8419,0.4492,0.4133,0.4018,0.4613,0.0,0.0,0.0,0.4858,0.0,0.0,0.0,0.0,0.0,0.0,0.0,0.0,0.0,0.0,0.0,0.0,0.0,0.0,0.0,0.0,0.1617,0.1617,0.1516,0.1415,-0.0202,-0.1212,-0.1313,-0.1415,-0.1617,-0.2022,-0.2022,-0.202,-0.222,-0.2321,-0.2322,-0.2321,-0.3025,-0.3327,-0.3428,-0.4131,-0.4433,-0.4634,-0.5033,-0.5334,-0.5436,-0.5934,-0.5534,-0.4834,-0.4834,-0.5035,-0.5436,-0.5639,-0.6182,-0.6798,-0.7223,-0.8246,-0.9684,-1.0668,-1.1769,-1.298,-1.3954,-1.4169,-1.4277,-1.4713,-1.5137,-1.5565,-1.5678,-1.5891,-1.6111,-1.6217,-1.6424,-1.6518,-1.663,-1.663,-1.6736,-1.6961,-1.6849,-1.663,-1.673,-1.673,-1.6823,-1.6989,-1.6549,-1.6293,-1.6434,-1.6062,-1.5832,-1.6028,-1.6123,-1.6218,-1.6494,-1.7217,-1.7855,-1.8226,-1.977,-2.0953,-2.148,-2.2325,-2.2794,-2.3057,-2.3057,-2.3396,-2.4241,-2.4155,-2.4744,-2.5819,-2.7058,-2.8051,0.3491,0.3138,0.3114,0.3406,0.0,0.0,0.0,0.0,0.0,0.0,0.0,0.0,0.0,0.0,0.0,0.0,0.0,0.0,0.0,0.0,0.0,0.0,0.0,0.0,0.1617,0.1111,0.0707,0.0404,-0.0808,-0.1718,-0.1921,-0.1819,-0.192,-0.2323,-0.2222,-0.2221,-0.2422,-0.2823,-0.3025,-0.3025,-0.3828,-0.4232,-0.4232,-0.4634,-0.5035,-0.5438,-0.5639,-0.6037,-0.6437,-0.6736,-0.6437,-0.5934,-0.5839,-0.6037,-0.6437,-0.6539,-0.6899,-0.7425,-0.7464,-0.8505,-1.0002,-1.1103,-1.2224,-1.3521,-1.4702,-1.503,-1.5137,-1.5571,-1.5897,-1.6105,-1.6311,-1.6418,-1.653,-1.653,-1.663,-1.673,-1.6955,-1.6955,-1.706,-1.7378,-1.7265,-1.7153,-1.7153,-1.7153,-1.7108,-1.7186,-1.679,-1.656,-1.6718,-1.6305,-1.6123,-1.6407,-1.6857,-1.7225,-1.7505,-1.8419,-1.9231,-1.977,-2.0773,-2.1596,-2.2208,-2.2687,-2.2969,-2.3135,-2.3637,-2.4221,-2.4638,-2.5652,-2.6318,-2.6648,-2.7799,-2.8767,0.0,0.0,0.0,0.0,0.0,0.3151,0.0,0.0,0.0,0.0,0.0,0.0,0.0,0.0,0.0,0.0,0.0,0.0,0.0,0.0,0.0,0.0,0.0,0.0,0.1111,0.0302,-0.0503,-0.0909,-0.1409,-0.1812,-0.2123,-0.2123,-0.2222,-0.2422,-0.2623,-0.2622,-0.2723,-0.3426,-0.3828,-0.3828,-0.4632,-0.4935,-0.4935,-0.5135,-0.5539,-0.6142,-0.6242,-0.6639,-0.7238,-0.7238,-0.7238,-0.7241,-0.6942,-0.7042,-0.7238,-0.7238,-0.7397,-0.7697,-0.7586,-0.8615,-1.0116,-1.1394,-1.2996,-1.4708,-1.5678,-1.5998,-1.5998,-1.6318,-1.643,-1.6424,-1.663,-1.673,-1.6842,-1.6842,-1.6842,-1.6948,-1.7173,-1.7279,-1.7384,-1.7582,-1.7582,-1.7582,-1.7582,-1.7535,-1.7415,-1.7291,-1.6948,-1.6738,-1.6703,-1.6505,-1.6407,-1.6864,-1.7591,-1.8226,-1.8696,-1.9704,-2.0701,-2.1606,-2.1882,-2.2325,-2.3057,-2.3144,-2.3222,-2.3377,-2.4382,-2.5041,-2.5368,-2.7197,-2.7947,-2.7557,-2.8858,-2.9729,0.0,0.0,0.0,0.0,0.1967,0.0,0.0,0.0,0.0,0.0,0.0,0.0,0.0,0.0,0.0,0.0,0.0,0.0,0.0,0.0,0.0,0.0,0.0,0.0,0.0,-0.0995,-0.1389,-0.1514,-0.1891,-0.2085,-0.202,-0.2221,-0.2522,-0.2725,-0.3226,-0.3528,-0.3831,-0.4332,-0.4634,-0.4634,-0.5233,-0.5534,-0.5536,-0.6239,-0.6642,-0.6745,-0.6939,-0.7138,-0.7238,-0.7238,-0.7341,-0.7543,-0.7241,-0.7138,-0.7238,-0.7444,-0.7642,-0.7872,-0.8173,-0.8384,-0.9075,-1.1415,-1.3742,-1.5785,-1.6111,-1.6217,-1.6318,-1.663,-1.6624,-1.6624,-1.673,-1.6955,-1.7173,-1.7173,-1.7272,-1.7477,-1.7582,-1.7582,-1.7582,-1.7582,-1.7582,-1.7582,-1.7582,-1.7368,-1.7291,-1.7463,-1.6987,-1.6808,-1.6953,-1.6777,-1.6951,-1.8064,-1.8334,-1.8788,-1.9869,-2.0872,-2.1516,-2.1695,-2.2511,-2.296,-2.3135,-2.3319,-2.382,-2.4628,-2.4872,-2.588,-2.7464,-2.8603,-2.8694,-2.7799,-2.9601,-3.0456,0.0,0.0,0.0,0.0,0.0,0.0,0.1419,0.0,0.132,0.0,0.0,0.0,0.0,0.0,0.0,0.0,0.0,0.0,0.0,0.0,0.0,0.0,0.0,0.0,0.0,-0.1579,-0.1782,-0.1817,-0.2084,-0.2473,-0.2923,-0.3025,-0.3327,-0.393,-0.4131,-0.4332,-0.4433,-0.5035,-0.5336,-0.5539,-0.6039,-0.6339,-0.6537,-0.6839,-0.7141,-0.7244,-0.7344,-0.754,-0.7637,-0.7637,-0.7839,-0.8038,-0.7935,-0.7836,-0.764,-0.7743,-0.8036,-0.8354,-0.8365,-0.8596,-0.9347,-1.1824,-1.4373,-1.6418,-1.6524,-1.6524,-1.663,-1.6849,-1.6955,-1.706,-1.716,-1.7378,-1.7483,-1.7483,-1.7483,-1.7582,-1.7582,-1.7582,-1.7687,-1.7799,-1.7799,-1.785,-1.7881,-1.7537,-1.7401,-1.7528,-1.7133,-1.6891,-1.7003,-1.7413,-1.7878,-1.8519,-1.9613,-2.0512,-2.106,-2.1961,-2.2501,-2.2501,-2.3047,-2.3319,-2.3319,-2.4069,-2.4638,-2.4957,-2.6191,-2.7406,-2.8694,-2.9693,-3.024,-3.0329,-3.1106,-3.1709,0.1664,0.0,0.0,0.0,0.0,0.0,0.0,0.0,0.0,0.0,0.0,0.0,0.0,0.0,0.0,0.0,0.0,0.0,0.0,0.0,0.0,0.0,0.0,0.0,0.0,-0.2156,-0.2166,-0.2318,0.0,-0.295,-0.3823,-0.3929,-0.4232,-0.4734,-0.4935,-0.5035,-0.5135,-0.5636,-0.6037,-0.6339,-0.6742,-0.7042,-0.7238,-0.7238,-0.7441,-0.7646,-0.7646,-0.7842,-0.8137,-0.8137,-0.8233,-0.8528,-0.8528,-0.8432,-0.8237,-0.8237,-0.8407,-0.8693,-0.8571,-0.9244,-1.0585,-1.27,-1.4849,-1.673,-1.6842,-1.6842,-1.6948,-1.7173,-1.7279,-1.7378,-1.7589,-1.7582,-1.7582,-1.7582,-1.7694,-1.7694,-1.7694,-1.7793,-1.7898,-1.8115,-1.8122,-1.8227,-1.8425,-1.7897,-1.7535,-1.7527,-1.7218,-1.7127,-1.7463,-1.8071,-1.8796,-1.9513,-2.0881,-2.1784,-2.2059,-2.2775,-2.3232,-2.3309,-2.3744,-2.3907,-2.3907,-2.4978,-2.5703,-2.5953,-2.7659,-2.8929,-2.9757,-3.093,-3.1842,-3.2362,-3.2362,-3.2791,0.0,0.0,0.0,0.0876,0.0,0.0,0.0,0.0,-0.0646,0.0,0.0,0.0,0.0,0.0,-0.4233,-0.5165,-0.5272,0.0,0.0,0.0,0.0,0.0,0.0,0.0,0.0,0.0,-0.2521,0.0,-0.3313,-0.3684,-0.4321,-0.4632,-0.4734,-0.4834,-0.5336,-0.5737,-0.5942,-0.6542,-0.6942,-0.7138,-0.7138,-0.7238,-0.7238,-0.7444,-0.7547,-0.7646,-0.7842,-0.8137,-0.8432,-0.8432,-0.8528,-0.8825,-0.8825,-0.8825,-0.8726,-0.8726,-0.8829,-0.8832,-0.8825,-1.0541,-1.2812,-1.3953,-1.5335,-1.6736,-1.7067,-1.7173,-1.7279,-1.7477,-1.7582,-1.7582,-1.7582,-1.7582,-1.7582,-1.7582,-1.7799,-1.8016,-1.8016,-1.822,-1.8422,-1.8422,-1.8422,-1.8629,-1.9628,-1.8511,-1.7513,-1.7405,-1.7194,-1.7448,-1.8611,-1.8796,-1.9521,-2.1418,-2.1695,-2.2059,-2.296,-2.3319,-2.358,-2.3754,-2.4563,-2.5041,-2.5041,-2.6141,-2.7128,-2.8004,-2.8995,-3.0012,-3.082,-3.2349,-3.3143,-3.3143,-3.3143,-3.3492,0.0,0.0,0.0364,0.0268,0.0,0.0,0.0,0.0,0.0,0.0,0.0,0.0,0.0,0.0,-0.5624,-0.5826,-0.6014,0.0,0.0,0.0,0.0,0.0,0.0,0.0,0.0,0.0,0.0,0.0,-0.4203,0.0,-0.5127,-0.5233,-0.5534,-0.5837,-0.6239,-0.6442,-0.6542,-0.6842,-0.7241,-0.7444,-0.7444,-0.7543,-0.7739,-0.7839,-0.7942,-0.8137,-0.8233,-0.8432,-0.8627,-0.8627,-0.8829,-0.9031,-0.9031,-0.913,-0.9327,-0.8924,-0.8928,-0.9229,-1.01,-1.1639,-1.3534,-1.4564,-1.5956,-1.7371,-1.7477,-1.7483,-1.7483,-1.7582,-1.7582,-1.7582,-1.7582,-1.7694,-1.7905,-1.7905,-1.8115,-1.822,-1.822,-1.8318,-1.8729,-1.9657,-1.9761,-1.999,-2.0696,-2.0394,-1.9999,-1.9644,-1.9289,-1.9247,-1.9687,-2.0331,-2.097,-2.1606,-2.2413,-2.3047,-2.3319,-2.358,-2.3993,-2.4638,-2.5136,-2.5641,-2.6224,-2.7302,-2.8255,-2.9073,-3.0012,-3.1079,-3.242,-3.2932,-3.3451,-3.4031,-3.4356,-3.461,-0.009,-0.0182,0.0,-0.0541,-0.0733,0.0,-0.3555,0.0,0.0,0.0,0.0,0.0,0.0,0.0,-0.6963,-0.6357,-0.68,-0.7119,0.0,-0.755,0.0,0.0,0.0,0.0,0.0,0.0,-0.5272,-0.4839,-0.4852,-0.5156,0.0,-0.5937,-0.6137,-0.6539,-0.6842,-0.6942,-0.7045,-0.7241,-0.7441,-0.7743,-0.7842,-0.7942,-0.8137,-0.8237,-0.8333,-0.8528,-0.8528,-0.873,-0.8928,-0.8928,-0.913,-0.9331,-0.9331,-0.943,-0.9529,-0.9225,-0.9422,-1.0109,-1.1272,-1.284,-1.4361,-1.5386,-1.6581,-1.7582,-1.7694,-1.7694,-1.7793,-1.7898,-1.7898,-1.7898,-1.7898,-1.801,-1.8115,-1.8115,-1.8632,-1.9146,-1.9146,-1.9546,-2.0158,-2.1081,-2.1183,-2.1361,-2.1787,-2.1942,-2.1569,-2.0677,-2.0295,-2.0322,-2.0692,-2.1329,-2.1961,-2.2325,-2.3135,-2.3677,-2.3764,-2.4176,-2.4659,-2.5305,-2.6141,-2.6812,-2.7395,-2.8664,-2.9589,-3.0088,-3.1154,-3.2205,-3.3213,-3.3754,-3.4312,-3.4839,-3.5449,-3.5897]}]]